[[{"header":{"parameterUnit":"m.s-1","parameterCategory":1,"la1":30.6,"la2":29.2853,"lo1":-89.7004,"lo2":-87.6739,"dy":0.0162,"dx":0.0183,"nx":112,"ny":82,"refTime":"2024-03-27T12:00:00:Z","depth":0,"parameterNumber":2,"parameterNumberName":"U-component_of_WINDS"},"data":[0.0,0.0,0.0,0.0,0.0,0.0,0.0,0.0,0.0,0.0,0.0,0.0,0.0,0.0,0.0,0.0,0.0,0.0,0.0,0.0,0.0,0.0,0.0,0.0,0.0,0.0,0.0,0.0,0.0,0.0,0.0,0.0,0.0,0.0,0.0,0.0,0.0,0.0,0.0,0.0,0.0,0.0,0.0,0.0,0.0,0.0,0.0,0.0,0.0,0.0,0.0,0.0,0.0,0.0,0.0,0.0,0.0,0.0,0.0,0.0,0.0,0.0,0.0,0.0,0.0,0.0,0.0,0.0,0.0,0.0,0.0,0.0,0.0,0.0,0.0,0.0,0.0,0.0,0.0,0.0,0.0,0.0,0.0,0.0,0.0,0.0,0.0,0.0,0.0,0.0,0.0,2.0792,2.3277,2.541,2.6657,2.4944,2.3174,2.1738,0.0,0.0,0.0,0.0,0.0,0.0,0.0,0.0,0.0,0.0,0.0,0.0,0.0,0.0,0.0,0.0,0.0,0.0,0.0,0.0,0.0,0.0,0.0,0.0,0.0,0.0,0.0,0.0,0.0,0.0,0.0,0.0,0.0,0.0,0.0,0.0,0.0,0.0,0.0,0.0,0.0,0.0,0.0,0.0,0.0,0.0,0.0,0.0,0.0,0.0,0.0,0.0,0.0,0.0,0.0,0.0,0.0,0.0,0.0,0.0,0.0,0.0,0.0,0.0,0.0,0.0,0.0,0.0,0.0,0.0,0.0,0.0,0.0,0.0,0.0,0.0,0.0,0.0,0.0,0.0,0.0,0.0,0.0,0.0,0.0,0.0,0.0,0.0,0.0,0.0,0.0,0.0,0.0,0.0,0.0,0.0,0.0,0.0,0.0,0.0,0.0,0.0,0.0,0.0,2.1161,2.3876,2.5644,2.637,2.5787,2.4551,2.3392,2.2417,0.0,0.0,0.0,0.0,0.0,0.0,0.0,0.0,0.0,0.0,0.0,0.0,0.0,0.0,0.0,0.0,0.0,0.0,0.0,0.0,0.0,0.0,0.0,0.0,0.0,0.0,0.0,0.0,0.0,0.0,0.0,0.0,0.0,0.0,0.0,0.0,0.0,0.0,0.0,0.0,0.0,0.0,0.0,0.0,0.0,0.0,0.0,0.0,0.0,0.0,0.0,0.0,0.0,0.0,0.0,0.0,0.0,0.0,0.0,0.0,0.0,0.0,0.0,0.0,0.0,0.0,0.0,0.0,0.0,0.0,0.0,0.0,0.0,0.0,0.0,0.0,0.0,0.0,0.0,0.0,0.0,0.0,0.0,0.0,0.0,0.0,0.0,0.0,0.0,0.0,0.0,0.0,0.0,0.0,0.0,0.0,0.0,0.0,0.0,0.0,0.0,0.0,0.0,2.1431,2.238,2.526,2.5523,2.5458,2.5435,2.4387,2.3401,2.2565,2.1784,0.0,0.0,0.0,0.0,0.0,0.0,0.0,0.0,0.0,0.0,0.0,0.0,0.0,0.0,0.0,0.0,0.0,0.0,0.0,0.0,0.0,0.0,0.0,0.0,0.0,0.0,0.0,0.0,0.0,0.0,0.0,0.0,0.0,0.0,0.0,0.0,0.0,0.0,0.0,0.0,0.0,0.0,0.0,0.0,0.0,0.0,0.0,0.0,0.0,0.0,0.0,0.0,0.0,0.0,0.0,0.0,0.0,0.0,0.0,0.0,0.0,0.0,0.0,0.0,0.0,0.0,0.0,0.0,0.0,0.0,0.0,0.0,0.0,0.0,0.0,0.0,0.0,0.0,0.0,0.0,0.0,0.0,0.0,0.0,0.0,0.0,0.0,0.0,0.0,0.0,0.0,0.0,0.0,0.0,0.0,0.0,0.0,0.0,0.0,0.0,0.0,0.0,2.3006,2.3414,2.5521,2.4985,2.4634,2.5019,2.3909,2.3054,2.2744,2.1606,0.0,0.0,0.0,0.0,0.0,0.0,0.0,0.0,0.0,0.0,0.0,0.0,0.0,0.0,0.0,0.0,0.0,0.0,0.0,0.0,0.0,0.0,0.0,0.0,0.0,0.0,0.0,0.0,0.0,0.0,0.0,0.0,0.0,0.0,0.0,0.0,0.0,0.0,0.0,0.0,0.0,0.0,0.0,0.0,0.0,0.0,0.0,0.0,0.0,0.0,0.0,0.0,0.0,0.0,0.0,0.0,0.0,0.0,0.0,0.0,0.0,0.0,0.0,0.0,0.0,0.0,0.0,0.0,0.0,0.0,0.0,0.0,0.0,0.0,0.0,0.0,0.0,0.0,0.0,0.0,0.0,0.0,0.0,0.0,0.0,0.0,0.0,0.0,0.0,0.0,0.0,0.0,0.0,0.0,0.0,0.0,0.0,0.0,0.0,0.0,0.0,0.0,2.3158,2.3829,2.4639,2.5068,2.4968,2.408,2.2518,2.2109,2.3349,2.1226,0.0,0.0,0.0,0.0,0.0,0.0,0.0,0.0,0.0,0.0,0.0,0.0,0.0,0.0,0.0,0.0,0.0,0.0,0.0,0.0,0.0,0.0,0.0,0.0,0.0,0.0,0.0,0.0,0.0,0.0,0.0,0.0,0.0,0.0,0.0,0.0,0.0,0.0,0.0,0.0,0.0,0.0,0.0,0.0,0.0,0.0,0.0,0.0,0.0,0.0,0.0,0.0,0.0,0.0,0.0,0.0,0.0,0.0,0.0,0.0,0.0,0.0,0.0,0.0,0.0,0.0,0.0,0.0,0.0,0.0,0.0,0.0,0.0,0.0,0.0,0.0,0.0,0.0,0.0,0.0,0.0,0.0,0.0,0.0,0.0,0.0,0.0,0.0,0.0,0.0,0.0,0.0,0.0,0.0,0.0,0.0,0.0,0.0,0.0,0.0,0.0,0.0,2.3493,2.4233,0.0,2.4413,2.4236,2.3878,2.269,2.2404,2.3434,0.0,0.0,0.0,0.0,0.0,0.0,0.0,0.0,0.0,0.0,0.0,0.0,0.0,0.0,0.0,0.0,0.0,0.0,0.0,0.0,0.0,0.0,0.0,0.0,0.0,0.0,0.0,0.0,0.0,0.0,0.0,0.0,0.0,0.0,0.0,0.0,0.0,0.0,0.0,0.0,0.0,0.0,0.0,0.0,0.0,0.0,0.0,0.0,0.0,0.0,0.0,0.0,0.0,0.0,0.0,0.0,0.0,0.0,0.0,0.0,0.0,0.0,0.0,0.0,0.0,0.0,0.0,0.0,0.0,0.0,0.0,0.0,0.0,0.0,0.0,0.0,0.0,0.0,0.0,0.0,0.0,0.0,0.0,0.0,0.0,0.0,0.0,0.0,0.0,0.0,0.0,0.0,0.0,0.0,0.0,0.0,0.0,0.0,0.0,0.0,0.0,0.0,2.284,2.358,2.4128,0.0,2.4027,2.3728,2.3469,2.2273,2.2029,2.3036,0.0,0.0,0.0,0.0,0.0,0.0,0.0,0.0,0.0,0.0,0.0,0.0,0.0,0.0,0.0,0.0,0.0,0.0,0.0,0.0,0.0,0.0,0.0,0.0,0.0,0.0,0.0,0.0,0.0,0.0,0.0,0.0,0.0,0.0,0.0,0.0,0.0,0.0,0.0,0.0,0.0,0.0,0.0,0.0,0.0,0.0,0.0,0.0,0.0,0.0,0.0,0.0,0.0,0.0,0.0,0.0,0.0,0.0,0.0,0.0,0.0,0.0,0.0,0.0,0.0,0.0,0.0,0.0,0.0,0.0,0.0,0.0,0.0,0.0,0.0,0.0,0.0,0.0,0.0,0.0,0.0,0.0,0.0,0.0,0.0,0.0,0.0,0.0,0.0,0.0,0.0,0.0,0.0,0.0,0.0,0.0,0.0,0.0,0.0,0.0,0.0,0.0,2.3592,2.3409,2.3437,2.4296,2.4022,2.3506,2.2771,2.1061,2.0682,0.0,0.0,0.0,0.0,0.0,0.0,0.0,0.0,0.0,0.0,0.0,0.0,0.0,0.0,0.0,0.0,0.0,0.0,0.0,0.0,0.0,0.0,0.0,0.0,0.0,0.0,0.0,0.0,0.0,0.0,0.0,0.0,0.0,0.0,0.0,0.0,0.0,0.0,0.0,0.0,0.0,0.0,0.0,0.0,0.0,0.0,0.0,0.0,0.0,0.0,0.0,0.0,0.0,0.0,0.0,0.0,0.0,0.0,0.0,0.0,0.0,0.0,0.0,0.0,0.0,0.0,0.0,0.0,0.0,0.0,0.0,0.0,0.0,0.0,0.0,0.0,0.0,0.0,0.0,0.0,0.0,0.0,0.0,0.0,0.0,0.0,0.0,0.0,0.0,0.0,0.0,0.0,0.0,0.0,0.0,0.0,0.0,0.0,0.0,0.0,0.0,0.0,0.0,2.3458,2.3329,2.3432,2.4136,2.3949,2.3443,2.2648,2.1493,2.1228,2.2106,0.0,0.0,0.0,0.0,0.0,0.0,0.0,0.0,0.0,0.0,0.0,0.0,0.0,0.0,0.0,0.0,0.0,0.0,0.0,0.0,0.0,0.0,0.0,0.0,0.0,0.0,0.0,0.0,0.0,0.0,0.0,0.0,0.0,0.0,0.0,0.0,0.0,0.0,0.0,0.0,0.0,0.0,0.0,0.0,0.0,0.0,0.0,0.0,0.0,0.0,0.0,0.0,0.0,0.0,0.0,0.0,0.0,0.0,0.0,0.0,0.0,0.0,0.0,0.0,0.0,0.0,0.0,0.0,0.0,0.0,0.0,0.0,0.0,0.0,0.0,0.0,0.0,0.0,0.0,0.0,0.0,0.0,0.0,0.0,0.0,0.0,0.0,0.0,0.0,0.0,0.0,0.0,0.0,0.0,0.0,0.0,0.0,0.0,0.0,0.0,0.0,0.0,2.3868,2.3494,2.3412,2.4027,2.3935,2.3324,2.2103,2.1514,2.1182,2.1171,0.0,0.0,0.0,0.0,0.0,0.0,0.0,0.0,0.0,0.0,0.0,0.0,0.0,0.0,0.0,0.0,0.0,0.0,0.0,0.0,0.0,0.0,0.0,0.0,0.0,0.0,0.0,0.0,0.0,0.0,0.0,0.0,0.0,0.0,0.0,0.0,0.0,0.0,0.0,0.0,0.0,0.0,0.0,0.0,0.0,0.0,0.0,0.0,0.0,0.0,0.0,0.0,0.0,0.0,0.0,0.0,0.0,0.0,0.0,0.0,0.0,0.0,0.0,0.0,0.0,0.0,0.0,0.0,0.0,0.0,0.0,0.0,0.0,0.0,0.0,0.0,0.0,0.0,0.0,0.0,0.0,0.0,0.0,0.0,0.0,0.0,0.0,0.0,0.0,0.0,0.0,0.0,0.0,0.0,0.0,0.0,0.0,0.0,0.0,0.0,0.0,0.0,2.4482,2.3657,2.3253,2.3997,2.3925,2.3144,2.1563,2.1299,2.0825,1.9957,0.0,0.0,0.0,0.0,0.0,0.0,0.0,0.0,0.0,0.0,0.0,0.0,0.0,0.0,0.0,0.0,0.0,0.0,0.0,0.0,0.0,0.0,0.0,0.0,0.0,0.0,0.0,0.0,0.0,0.0,0.0,0.0,0.0,0.0,0.0,0.0,0.0,0.0,0.0,0.0,0.0,0.0,0.0,0.0,0.0,0.0,0.0,0.0,0.0,0.0,0.0,0.0,0.0,0.0,0.0,0.0,0.0,0.0,0.0,0.0,1.8375,0.0,0.0,0.0,0.0,0.0,0.0,0.0,0.0,0.0,0.0,0.0,0.0,0.0,0.0,0.0,0.0,0.0,0.0,0.0,0.0,0.0,0.0,0.0,0.0,0.0,0.0,0.0,0.0,0.0,0.0,0.0,0.0,0.0,0.0,0.0,0.0,0.0,0.0,0.0,0.0,0.0,2.4286,2.2993,2.2429,2.3723,2.3821,2.3361,2.2319,2.1586,2.1085,2.0777,0.0,0.0,0.0,0.0,0.0,0.0,0.0,0.0,0.0,0.0,0.0,0.0,0.0,0.0,0.0,0.0,0.0,0.0,0.0,0.0,0.0,0.0,0.0,0.0,0.0,0.0,0.0,0.0,0.0,0.0,0.0,0.0,0.0,0.0,0.0,0.0,0.0,0.0,0.0,0.0,0.0,0.0,0.0,0.0,0.0,0.0,0.0,0.0,0.0,0.0,0.0,0.0,0.0,0.0,0.0,0.0,0.0,0.0,0.0,0.0,0.0,2.0044,0.0,0.0,0.0,0.0,0.0,0.0,0.0,0.0,0.0,0.0,0.0,0.0,0.0,0.0,0.0,0.0,0.0,0.0,0.0,0.0,0.0,0.0,0.0,0.0,0.0,0.0,0.0,0.0,0.0,0.0,0.0,0.0,0.0,0.0,0.0,0.0,0.0,0.0,0.0,0.0,2.4261,2.3083,2.2601,2.3671,2.38,2.3412,2.2493,2.2005,2.1334,2.0416,2.0271,0.0,0.0,0.0,0.0,0.0,0.0,0.0,0.0,0.0,0.0,0.0,0.0,0.0,0.0,0.0,0.0,0.0,0.0,0.0,0.0,0.0,0.0,0.0,0.0,0.0,0.0,0.0,0.0,0.0,0.0,0.0,0.0,0.0,0.0,0.0,0.0,0.0,0.0,0.0,0.0,0.0,0.0,0.0,0.0,0.0,0.0,0.0,0.0,0.0,0.0,0.0,0.0,0.0,2.184,2.2474,2.2869,2.3232,2.3348,2.3271,2.2805,2.1811,2.0497,0.0,0.0,0.0,0.0,0.0,0.0,0.0,0.0,0.0,0.0,0.0,0.0,0.0,0.0,0.0,0.0,0.0,0.0,0.0,0.0,0.0,0.0,0.0,0.0,0.0,2.3031,2.2394,0.0,0.0,0.0,0.0,0.0,0.0,0.0,0.0,0.0,0.0,0.0,0.0,2.4271,2.3442,2.3055,2.3738,2.38,2.3468,2.2618,2.2396,2.1693,2.0201,2.0566,2.0593,0.0,0.0,0.0,0.0,0.0,0.0,0.0,0.0,0.0,0.0,0.0,0.0,0.0,0.0,0.0,0.0,0.0,0.0,0.0,0.0,0.0,0.0,0.0,0.0,0.0,0.0,0.0,0.0,0.0,0.0,0.0,0.0,1.7658,1.7907,0.0,0.0,0.0,0.0,0.0,0.0,0.0,0.0,0.0,0.0,0.0,0.0,0.0,0.0,2.2742,2.2362,2.2167,2.2086,2.3422,2.3573,2.2687,2.4586,2.5216,2.4812,2.4746,0.0,2.1487,2.0254,0.0,0.0,0.0,0.0,0.0,0.0,0.0,0.0,0.0,0.0,0.0,0.0,0.0,0.0,0.0,0.0,0.0,0.0,0.0,0.0,0.0,0.0,2.3148,2.2461,2.2814,2.3085,0.0,2.2907,2.3554,2.3554,0.0,0.0,0.0,0.0,0.0,0.0,0.0,0.0,2.4038,2.3315,2.2977,2.3728,2.38,2.3717,2.3527,2.2772,2.2147,2.1802,2.1173,2.1053,2.1697,2.1802,0.0,0.0,0.0,0.0,0.0,0.0,0.0,0.0,0.0,0.0,0.0,0.0,0.0,0.0,0.0,0.0,0.0,0.0,0.0,0.0,0.0,0.0,0.0,0.0,0.0,0.0,0.0,0.0,0.0,1.7431,1.8024,1.896,1.927,1.9688,0.0,0.0,0.0,0.0,0.0,0.0,0.0,0.0,0.0,2.1932,2.2816,2.352,2.3949,2.4096,2.4129,2.4102,2.5125,2.5527,2.5459,2.6779,2.7292,2.7094,2.6693,2.5811,2.4493,2.2332,2.14,2.1315,0.0,0.0,0.0,0.0,0.0,2.3,2.3013,2.2829,0.0,0.0,0.0,0.0,0.0,0.0,0.0,0.0,0.0,0.0,0.0,0.0,0.0,2.4149,2.4126,2.4169,2.4045,2.4388,2.4349,0.0,2.3872,2.4365,2.4003,0.0,0.0,0.0,0.0,0.0,2.4053,2.3598,2.3386,2.3716,2.3682,2.3588,2.347,2.3086,2.2615,2.2077,2.1702,2.1382,2.1167,2.1686,2.2071,0.0,0.0,0.0,0.0,0.0,0.0,0.0,0.0,0.0,0.0,0.0,0.0,0.0,0.0,0.0,0.0,0.0,0.0,0.0,0.0,0.0,0.0,0.0,0.0,0.0,0.0,0.0,0.0,1.8125,1.858,1.954,1.9893,2.0313,0.0,0.0,0.0,0.0,0.0,0.0,2.2304,2.3327,2.3752,2.3396,2.4824,2.5558,2.5449,2.5677,2.6024,2.6427,2.6998,2.7647,2.8372,2.9048,2.9349,2.9221,2.8489,2.7871,2.714,2.4468,2.3075,2.2633,2.2434,2.2478,2.2711,2.3276,2.3788,2.4249,2.4501,2.4435,2.4173,2.3857,0.0,2.3328,2.3519,0.0,0.0,0.0,0.0,2.5114,2.4869,2.5491,2.6163,2.6065,2.5837,2.5677,2.5798,2.5918,2.5506,0.0,2.4326,2.4809,2.4199,0.0,0.0,0.0,0.0,2.431,2.4027,2.3986,2.3923,2.3668,2.3568,2.3453,2.3324,2.3235,2.297,2.2306,2.2218,2.1901,2.1207,2.1873,2.2194,2.1995,0.0,0.0,0.0,0.0,0.0,0.0,0.0,0.0,0.0,0.0,0.0,0.0,0.0,0.0,0.0,0.0,0.0,0.0,0.0,0.0,0.0,0.0,0.0,0.0,0.0,0.0,0.0,0.0,0.0,1.8842,1.9941,0.0,0.0,0.0,0.0,2.2345,2.2952,2.3573,2.4243,2.457,2.5245,2.6352,2.6047,2.6673,2.8282,2.7174,2.7406,2.8916,2.9207,2.9708,3.0387,3.1122,3.1209,3.0742,3.0008,2.9275,2.8411,2.5719,2.4747,2.487,2.4149,2.3996,2.4194,2.4228,2.4807,2.5496,2.483,2.5027,2.5465,2.455,2.4429,2.468,2.4983,2.5292,0.0,0.0,2.6072,2.6498,2.5607,2.6809,2.8068,2.736,2.7564,2.7775,2.7162,2.7345,2.7268,0.0,2.5295,2.499,2.4954,0.0,2.3821,2.3816,2.4469,2.4648,2.3822,2.4377,2.45,2.3605,2.3505,2.3453,2.3324,2.3114,2.3028,2.3048,2.2873,2.2813,2.296,2.3013,2.3048,2.3001,2.3211,0.0,0.0,0.0,0.0,0.0,0.0,0.0,0.0,0.0,0.0,0.0,0.0,0.0,0.0,0.0,0.0,0.0,0.0,0.0,0.0,0.0,0.0,0.0,0.0,0.0,0.0,0.0,0.0,2.2204,2.3007,0.0,0.0,2.4255,2.4716,2.4494,2.547,2.5903,2.5403,2.6611,2.734,2.7367,2.8093,2.8779,2.9393,2.897,2.9047,2.961,3.0156,3.0541,3.0789,3.1802,3.1909,3.1338,3.1402,3.1086,3.0491,2.954,2.8011,2.6198,2.5443,2.5321,2.5595,2.607,2.6431,2.6702,2.6434,2.6501,2.6543,2.5371,2.5539,2.6099,2.5655,2.6206,2.6851,2.6476,2.7068,2.7724,2.7186,2.7827,2.8567,2.8485,2.8384,2.8187,2.7836,2.7814,2.768,2.7083,2.6715,2.6397,2.5854,2.5534,2.5172,2.4664,2.5165,2.5349,2.4517,2.4569,2.4443,2.3933,2.337,2.3021,2.2971,2.2902,2.287,2.2895,2.2952,2.2902,2.2701,2.2952,2.3028,2.2902,2.3071,2.3458,0.0,0.0,0.0,0.0,0.0,0.0,0.0,0.0,0.0,0.0,0.0,0.0,0.0,0.0,0.0,0.0,0.0,0.0,0.0,0.0,0.0,0.0,0.0,0.0,0.0,0.0,2.3642,2.473,2.557,2.601,2.5933,2.6376,2.6649,2.6541,2.7243,2.7524,2.7237,2.8448,2.9116,2.8955,2.9912,3.0524,3.0677,3.0329,3.0262,3.0593,3.0893,3.1118,3.1271,3.2015,3.2067,3.1628,3.1943,3.1849,3.1456,3.1456,3.0135,2.8053,2.741,2.6999,2.6887,2.7368,2.7746,2.8011,2.8011,2.7845,2.7542,2.6689,2.6952,2.7454,2.6877,2.7412,2.8073,2.7699,2.8263,2.8939,2.8502,2.8933,2.946,2.9357,2.9025,2.8705,2.8578,2.8402,2.8271,2.8209,2.76,2.7008,2.6537,2.6225,2.5973,2.5715,2.6033,2.6031,2.5165,2.4903,2.4488,2.3726,2.3098,2.2716,2.2716,2.2929,2.2997,2.2814,2.3164,2.3154,2.2623,2.3164,2.3387,2.318,2.3664,2.4401,2.5344,0.0,0.0,0.0,0.0,0.0,0.0,0.0,0.0,0.0,0.0,0.0,0.0,0.0,0.0,0.0,0.0,0.0,0.0,0.0,0.0,0.0,0.0,0.0,2.2966,2.4766,2.6072,2.6104,2.7313,2.7924,2.7302,2.7416,2.7824,2.8485,2.8191,2.8539,2.981,3.0058,3.0511,3.1205,3.1434,3.174,3.2212,3.1143,3.1058,3.1881,3.1466,3.1495,3.1865,3.1879,3.1782,3.1575,3.1588,3.1464,3.1249,3.1249,3.0965,3.0514,3.0005,2.9112,2.8056,2.8056,2.8622,2.9386,2.941,2.8976,2.8432,2.8432,2.8581,2.8774,2.8755,2.8958,2.9174,2.9181,2.9744,3.0138,2.9361,3.0074,3.079,3.0022,2.9639,2.944,2.9407,2.9211,2.9095,2.9317,2.7921,2.6767,2.7048,2.644,2.6155,2.691,2.7017,0.0,2.5725,2.5418,2.4682,2.3063,2.2685,2.2528,2.2556,2.3205,2.3364,2.2823,2.3451,2.3527,2.2814,2.373,2.4141,2.3907,2.5066,2.6087,2.6985,0.0,0.0,0.0,0.0,0.0,0.0,0.0,0.0,0.0,0.0,0.0,0.0,0.0,0.0,0.0,0.0,0.0,0.0,0.0,0.0,0.0,0.0,2.4637,2.4637,2.5993,2.7338,2.8225,2.9351,3.0055,3.0081,3.0835,3.1262,3.1076,3.1511,3.1782,3.1761,3.1861,3.1991,3.2133,3.19,3.1987,3.2425,3.141,3.1141,3.1601,3.1041,3.0851,3.0984,3.1321,3.1419,3.1397,3.1677,3.1986,3.2217,3.2217,3.2065,3.172,3.0695,2.9887,2.9296,2.9296,2.9133,2.8958,2.949,2.9334,2.8921,2.8921,2.9563,3.0324,3.0086,3.0412,3.085,3.0892,3.0875,3.0711,3.0229,3.0375,3.059,3.0347,3.0253,3.0069,2.9506,2.935,2.9192,2.8955,2.8664,2.8695,2.9438,2.887,2.82,2.7836,2.7768,0.0,2.5566,2.5233,2.5056,2.4803,2.3722,2.323,2.3755,2.3508,2.3011,0.0,2.2651,2.2808,2.2589,2.2974,2.3526,2.4195,2.5786,2.6731,0.0,0.0,0.0,0.0,0.0,0.0,0.0,0.0,0.0,0.0,0.0,0.0,0.0,0.0,0.0,0.0,0.0,0.0,0.0,0.0,0.0,0.0,2.5274,2.6511,2.7024,2.7956,2.8936,2.9773,3.0891,3.1663,3.1811,3.224,3.2503,3.2472,3.2494,3.249,3.2434,3.2454,3.2471,3.2417,3.2191,3.2257,3.2647,3.1804,3.1569,3.1916,3.1293,3.0974,3.0989,3.0998,3.1102,0.0,3.1567,3.1893,3.2327,3.2533,3.2378,0.0,0.0,0.0,0.0,0.0,2.9524,2.9232,2.9664,2.9805,2.9848,2.9848,3.0629,3.1456,3.0956,3.1152,3.156,3.1589,3.1222,3.0903,3.1314,3.1195,3.1052,3.1371,3.1437,3.1305,3.0874,3.0775,3.0636,3.0213,0.0,0.0,3.0861,3.0208,2.944,2.8876,2.8448,2.769,0.0,2.5313,2.4876,2.4964,2.383,2.3358,2.4119,2.4163,0.0,0.0,0.0,2.3937,2.4051,2.4087,0.0,0.0,0.0,2.7854,0.0,0.0,0.0,0.0,2.9331,2.9366,0.0,0.0,0.0,0.0,0.0,0.0,0.0,0.0,0.0,0.0,0.0,0.0,0.0,0.0,0.0,0.0,2.7,2.8433,2.9537,3.0134,3.0587,3.085,3.1915,3.2661,3.2661,3.2394,3.2467,3.2982,3.2105,3.1808,3.2375,0.0,0.0,0.0,0.0,3.2591,3.3008,3.2352,3.22,3.2584,3.1945,3.1626,3.1597,3.1076,3.1056,3.1442,3.1353,3.1585,3.2027,3.2385,3.2234,3.1827,3.198,3.1402,3.0395,2.9918,2.977,0.0,0.0,0.0,0.0,3.0955,3.1549,3.2146,3.1589,3.1528,3.1703,3.177,3.1295,3.1062,3.2376,3.2188,3.189,3.2542,3.2707,3.2707,3.2707,3.2641,3.2464,3.2096,3.2021,3.1864,3.1516,3.0698,3.0023,2.9702,2.8976,2.8049,2.6972,2.5487,2.4503,2.4491,0.0,0.0,2.4183,2.5004,2.5093,2.4331,2.5232,2.5933,2.6162,2.6213,2.673,2.7799,2.8652,2.9276,2.9647,3.0269,3.0744,3.1125,3.0517,3.0409,0.0,0.0,0.0,0.0,0.0,0.0,0.0,0.0,0.0,0.0,0.0,0.0,0.0,0.0,0.0,2.736,2.8745,2.9732,3.0252,3.101,3.1449,3.1302,3.1929,3.2382,3.2382,3.2783,3.3116,3.3229,3.2734,3.2646,3.3101,3.2821,0.0,3.3101,3.3118,3.3275,3.3619,3.3008,3.2922,3.3284,0.0,0.0,3.2293,3.2177,3.2167,3.2232,3.1707,3.1945,3.2666,3.2219,3.2417,3.2812,3.1242,3.0449,3.0168,2.9506,2.9624,3.0112,3.0112,3.0337,3.068,3.1266,3.1701,3.2063,3.2517,3.2413,0.0,3.2884,3.2671,3.2343,3.2641,3.2575,3.2508,3.2674,3.2707,3.2707,3.2707,3.2232,3.1802,3.1701,3.1433,3.1177,3.1102,3.0611,3.0045,2.9402,2.8673,2.7588,2.6015,2.5494,2.543,2.5794,2.5136,2.4969,2.5698,2.5418,2.4855,2.4124,2.5211,2.5894,2.5948,2.7469,2.8417,2.8641,2.9682,3.0558,3.1232,3.1017,3.128,3.1951,3.1349,3.1176,0.0,0.0,0.0,0.0,0.0,0.0,0.0,0.0,0.0,0.0,0.0,2.3689,2.4764,0.0,2.7584,2.8882,3.0014,3.0825,3.1115,3.1657,3.184,3.1409,3.1885,3.2244,3.2244,3.2538,3.2749,3.2749,3.257,3.2552,3.2749,3.257,3.2552,3.2749,3.2749,3.2899,3.3252,3.2943,3.3095,3.3638,3.2988,3.2798,3.2977,3.2642,3.2497,3.2468,3.2148,3.2285,3.2658,3.2228,3.2254,3.2495,3.1353,3.1049,3.1153,3.0421,3.0389,3.0686,3.0686,3.0992,3.1451,3.1833,3.2357,3.2812,3.2812,3.2737,3.2725,3.3083,3.2847,3.2681,3.3406,3.3444,3.3337,3.3701,3.3801,3.3801,3.3801,3.3524,3.3149,3.2784,3.253,3.2271,3.1915,3.1361,3.0638,2.9671,2.9225,2.8516,2.7128,2.6616,2.6505,2.6727,2.6104,2.5797,2.6161,2.6203,2.6047,2.5682,2.6715,2.7403,2.7545,2.8689,2.954,3.0053,3.0953,3.1943,3.2882,3.3032,3.3401,3.4009,3.3706,3.3001,0.0,0.0,0.0,0.0,0.0,0.0,0.0,0.0,2.2088,2.3546,2.4571,2.5631,2.7116,2.8246,2.9274,3.0195,3.1033,3.1627,3.1853,3.2081,3.201,3.1549,3.1902,3.22,3.22,3.22,3.22,3.22,3.22,3.22,3.22,3.22,3.22,3.22,3.2246,3.2426,3.2704,3.2775,3.3111,3.3687,3.322,3.3133,3.3433,3.2975,3.276,3.2748,3.2793,3.2757,3.2613,3.2567,3.2436,3.2272,3.2198,3.24,3.2604,3.1596,3.1368,3.159,3.1476,3.1899,3.2513,3.2639,3.3289,3.3923,3.3335,3.3335,3.3548,3.3548,3.3214,3.3137,3.4374,3.4314,3.4095,3.4738,3.4883,3.4883,3.4883,3.4783,3.453,3.3933,3.3668,3.3403,3.2807,3.2199,3.1412,3.0188,2.9902,2.9446,2.8514,2.7879,2.7514,2.7514,2.6965,2.6634,2.6634,2.7173,2.7514,2.7514,2.847,2.9127,2.9432,3.0015,3.0785,3.1633,3.2518,3.3482,3.4533,3.5075,3.5573,3.6029,3.5884,3.4854,1.5969,1.6497,1.7853,1.9991,2.0699,2.1447,0.0,0.0,2.4285,2.526,2.6223,2.7199,2.8188,2.9366,3.0507,3.1442,3.1885,3.2118,3.2146,3.2182,3.2173,3.2119,3.2146,3.22,3.22,3.22,3.22,3.22,3.22,3.22,3.22,3.22,3.22,3.22,3.2498,3.265,3.2704,3.3058,3.3269,3.3357,3.3301,3.329,3.3314,3.3534,3.3642,3.3648,3.3836,3.3631,3.3146,3.3547,3.3698,3.3712,3.4121,3.429,3.4096,3.1973,3.2,3.2993,3.2373,3.2626,3.3277,3.3891,3.4569,3.5197,3.5102,3.5263,3.5481,3.5481,3.5154,3.4897,3.5288,3.4923,3.4496,3.4835,3.4883,3.4883,3.4883,3.4397,3.39,3.3834,3.3271,3.2807,3.2707,3.2641,3.2089,3.0651,2.9888,2.9191,2.8475,2.831,2.8276,2.8276,2.821,2.8144,2.8144,2.8243,2.8276,2.8276,2.9231,2.9939,3.0245,3.1853,3.29,3.3257,3.4322,3.5285,3.6158,3.5855,3.6106,3.685,3.6138,3.5755,1.7426,1.8155,1.9336,0.0,2.2123,2.3566,2.4864,2.571,2.6582,2.7673,2.8662,2.9537,3.0282,3.0974,3.1591,0.0,3.2128,3.22,3.22,3.22,3.22,3.22,3.22,3.22,3.22,3.22,3.22,3.22,3.22,3.22,3.22,3.22,3.22,3.22,3.2691,3.2764,3.2408,3.29,3.3099,3.2952,3.2952,3.3076,3.3304,3.3635,3.394,3.4133,3.4243,3.394,3.3374,3.361,3.366,3.3694,3.4061,3.4666,3.5216,3.4077,3.4004,3.4478,3.4207,3.4302,3.4573,3.4839,3.5156,3.5408,3.5408,3.5492,3.5576,3.5576,3.5546,3.5573,3.5831,3.583,3.5805,3.6113,3.6174,3.6174,3.6174,3.5943,3.5711,3.5711,3.5479,3.5247,3.5247,3.4551,3.3756,3.3149,3.1692,3.0599,3.0301,2.988,2.945,2.9019,2.8631,2.8409,2.8409,2.8764,2.9152,2.9615,3.0783,3.1725,3.2286,3.342,3.4287,3.4819,3.5302,3.5995,3.6904,3.6738,3.6968,3.7516,3.7182,3.7147,1.8346,0.0,0.0,2.1682,2.3757,2.5758,2.6439,2.7453,2.858,2.9755,3.0449,3.1058,3.1775,3.2009,3.2146,3.22,3.22,3.22,3.22,3.22,3.22,3.22,3.22,3.22,3.22,3.22,3.22,3.22,3.22,3.2255,3.2445,3.2445,3.2526,3.2671,3.3078,3.3105,3.2671,3.3105,3.3145,3.2808,3.2808,3.2869,3.3005,3.3444,3.3888,3.423,3.4332,3.4138,3.3748,3.3748,3.3748,3.3773,3.411,3.4845,3.5696,3.5756,3.5723,3.5647,3.5458,3.5521,3.5679,3.5679,3.5805,3.5977,3.5977,3.5977,3.5977,3.5977,3.5961,3.6025,3.6294,3.6415,3.6574,3.6878,3.7039,3.7089,3.7089,3.7089,3.7089,3.7089,3.7039,3.7001,3.7077,3.6146,3.5394,3.55,3.3977,3.2508,3.1714,3.1118,3.0522,2.9771,2.945,2.9294,2.9294,2.9738,3.0334,3.1062,3.2078,3.2968,3.3666,3.4387,3.5089,3.5792,3.607,3.6562,3.7314,3.7418,3.7621,3.789,3.7951,3.8055,1.7686,0.0,2.1179,2.3205,2.5642,2.7763,2.8695,2.9375,3.0107,3.1048,3.1109,3.1236,3.2046,3.2055,3.1963,3.2182,3.22,3.22,3.22,3.22,3.22,3.22,3.22,3.22,0.0,3.22,3.22,3.22,3.22,3.2445,3.3033,3.3061,3.3313,3.3826,3.388,3.388,3.3853,3.388,3.3601,3.3079,3.3079,3.278,3.2273,3.297,3.3496,3.3854,3.423,3.4382,3.4353,3.4353,3.4353,3.4421,3.4929,3.5188,3.5348,3.6306,3.656,3.6296,3.5616,3.5837,3.6377,3.6377,3.6848,3.7447,3.7447,3.7447,3.7447,3.7447,3.6911,3.6432,3.6703,3.6492,3.6299,3.6561,3.6865,3.7089,3.7089,3.7089,3.7089,3.7089,3.6853,3.6717,3.7051,3.6807,3.6651,3.6985,3.6373,3.4838,3.1979,3.1581,3.1283,3.0555,3.1085,3.1515,3.1515,3.1515,3.1857,3.2575,3.2663,3.3014,3.368,3.4456,3.5176,3.5783,3.6776,3.7269,3.7314,3.7694,3.7881,3.7899,3.8089,3.8182,1.9592,0.0,2.3096,2.4762,2.67,2.8365,2.9083,2.9971,3.0618,3.0528,3.0397,3.0235,3.009,3.0011,3.0128,3.0591,3.1433,3.2,3.2,3.2453,3.2653,3.2255,3.22,0.0,0.0,0.0,0.0,3.22,3.212,3.2359,3.3069,3.3024,3.3242,3.3888,3.4287,3.4314,3.3908,3.4314,3.4008,3.3088,3.2707,3.2636,3.2935,3.3182,3.3618,3.4213,3.4332,3.4382,3.4382,3.4382,3.4601,3.4971,3.5448,3.5895,3.6274,3.6968,3.7189,3.7101,3.6863,3.6926,3.7147,3.7147,3.7305,3.7495,3.7495,3.7495,3.7495,3.7495,3.7337,3.7174,3.7448,3.7587,3.7691,3.7773,3.8181,3.8434,3.8066,3.81,3.8181,3.7979,3.8033,3.8095,3.8221,3.792,3.7516,3.7143,3.6473,3.5479,3.3977,3.3347,3.2961,3.2729,3.2464,3.2332,3.2332,3.2332,3.263,3.337,3.3883,3.4476,3.5145,3.589,3.6397,3.6584,3.6943,3.7324,3.7842,3.7469,3.7704,3.8409,3.7854,3.7999,2.1039,2.2905,2.4698,2.6043,2.7526,2.8867,2.9571,2.9869,2.9954,2.9748,2.9048,2.8438,2.8392,2.801,2.8086,2.9365,3.0315,3.111,3.1809,3.2342,3.2642,3.2526,3.2517,0.0,0.0,0.0,0.0,3.2227,3.2495,3.2894,3.3357,3.3514,3.3877,3.4511,3.491,3.4957,3.4558,3.493,3.4651,3.3694,3.2689,3.2554,3.3233,3.3135,3.3339,3.3819,3.4077,3.4179,3.4196,3.4332,3.4601,3.4938,3.525,3.5575,3.5959,3.6662,3.6955,3.7018,3.7168,3.7195,3.718,3.6998,3.7059,3.7195,3.7195,3.7361,3.7495,3.7495,3.7495,3.7554,3.7714,3.8004,3.8219,3.8219,3.8614,3.8849,3.8492,3.853,3.8614,3.845,3.8446,3.8539,3.8747,3.8691,3.8427,3.7963,3.7466,3.6717,3.5446,3.4883,3.4485,3.4232,3.3768,3.3503,3.3503,3.3238,3.3403,3.4165,3.5026,3.5752,3.6328,3.7186,3.7711,3.7823,3.7823,3.8058,3.8539,3.8139,3.8176,3.8595,3.836,3.8465,2.1954,2.394,2.5886,2.693,2.806,2.9125,2.9923,2.9082,2.8282,2.8654,2.7131,2.5978,0.0,0.0,2.6033,2.8425,2.9002,2.9747,3.1629,3.1942,3.225,0.0,0.0,0.0,0.0,0.0,0.0,3.23,0.0,3.385,3.3904,3.4465,3.508,3.5662,3.569,3.569,3.569,3.5662,3.5364,3.4775,3.3078,3.2572,3.3125,3.2845,3.2749,3.2775,3.3479,3.3819,3.3836,3.423,3.4428,3.4433,3.4462,3.4491,3.4643,3.5619,3.6088,3.624,3.6595,3.6739,3.6677,3.6146,3.6335,3.6801,3.6801,3.7153,3.7558,3.7558,3.7541,3.7495,3.7495,3.7699,3.79,3.7886,3.8148,3.8394,3.8365,3.8379,3.8379,3.8365,3.8134,3.8116,3.8692,3.908,3.9315,3.9315,3.9315,3.854,3.6439,3.6141,3.5843,3.5148,3.5048,3.5015,3.5015,3.4331,3.4232,3.4949,3.6008,3.6728,3.7148,3.819,3.8944,3.9301,3.9312,3.9312,3.9347,3.9519,3.9206,3.8518,3.9465,3.9472,2.3647,2.515,2.636,2.7032,2.7442,2.7613,2.7498,2.6885,2.6166,2.5498,2.4254,2.3233,0.0,0.0,0.0,2.6378,2.8926,0.0,3.1432,3.2437,0.0,0.0,0.0,3.3085,3.3436,3.4008,0.0,0.0,3.2998,3.3343,3.3801,3.4398,3.5021,3.5669,3.569,3.569,3.569,3.5256,3.4957,3.4775,3.388,3.3453,3.3487,3.3413,3.328,3.3164,3.3601,3.3819,3.3836,3.423,3.4635,3.5047,3.5486,3.5928,3.6353,3.7053,3.7325,3.7312,3.7074,3.7231,3.7408,3.6837,3.7345,3.8194,3.8194,3.8232,3.827,3.827,3.7906,3.7495,3.7495,3.7699,3.7842,3.7641,3.799,3.828,3.7833,3.7889,3.7976,3.779,3.8004,3.8389,3.8752,3.908,3.9315,3.9315,3.9315,3.9116,3.852,3.7963,3.7553,3.7387,3.687,3.6539,3.6539,3.5876,3.5744,3.6506,3.624,3.6649,3.7889,3.8144,3.8597,3.9277,3.9312,3.9603,4.0175,3.9656,3.9654,4.0197,3.9695,3.9726,2.4758,2.5776,2.6537,2.683,2.6617,2.6258,2.5926,2.4981,2.3958,2.3128,2.1964,0.0,0.0,0.0,0.0,0.0,0.0,0.0,3.065,3.1908,3.2685,0.0,3.2796,0.0,3.3425,3.4011,3.38,0.0,3.3207,3.3713,3.3798,3.4372,3.5018,3.5669,3.569,3.569,3.569,3.512,3.493,3.5174,3.4314,3.3968,3.4133,3.3859,3.367,3.3578,0.0,3.3974,3.4009,3.4612,3.5039,3.5339,3.5952,3.636,3.6709,3.7272,3.752,3.7533,3.7213,3.7468,3.7883,3.7233,3.7626,3.835,3.8269,3.8357,3.8445,3.8144,3.778,3.7495,3.7495,3.7596,3.7685,3.7539,3.776,3.7921,3.7584,3.7611,3.7685,3.7539,3.786,3.8276,3.8572,3.8876,3.9121,3.9288,3.9315,3.9315,3.9315,3.8937,3.8659,3.8659,3.803,3.7586,3.7586,3.6891,3.6671,3.7056,3.7266,3.7763,3.8652,3.9308,3.9838,4.0294,4.0294,4.0551,4.0983,4.0516,4.0429,4.0662,4.0429,4.044,2.5428,2.6019,2.6424,2.6424,2.5757,2.5034,2.4714,2.3243,2.1729,2.1082,0.0,1.9324,2.0016,0.0,2.1857,2.5045,0.0,2.7832,2.9865,3.0926,3.1746,3.2448,3.2623,3.2798,3.3106,3.3527,3.3271,3.202,3.3564,3.4327,3.3808,3.4357,3.5018,3.5669,3.569,3.569,3.569,3.5174,3.5174,3.569,3.4639,3.4368,3.4775,3.426,3.3989,3.3919,0.0,0.0,3.4373,3.5123,3.5456,3.5595,3.6199,3.6414,3.6514,3.7152,3.7409,3.7415,3.7387,3.7743,3.8074,3.7429,3.7636,3.8152,3.8031,3.8357,3.8634,3.7969,3.7685,3.7621,3.7527,3.7495,3.7495,3.7495,3.7495,3.7495,3.7495,3.7495,3.7541,3.7621,3.7792,3.8065,3.8592,3.8823,3.9095,3.9526,3.9514,3.9448,3.9448,3.9348,3.9315,3.9315,3.8725,3.8348,3.8348,3.7652,3.7288,3.74,3.8507,3.9257,3.9462,4.0745,4.1499,4.1604,4.1604,4.1604,4.1604,4.1604,4.1253,4.0678,4.1288,4.1253,2.5588,2.592,2.5989,2.5989,2.5312,2.4305,2.3055,2.1274,0.0,0.0,1.7484,1.7067,1.7207,1.9502,0.0,2.4048,0.0,0.0,0.0,0.0,3.1104,0.0,0.0,0.0,0.0,0.0,0.0,0.0,0.0,0.0,3.3719,3.434,3.5018,3.5669,3.569,3.569,3.569,3.5608,3.5608,3.569,3.55,3.5174,3.4802,3.4694,3.4368,3.3927,0.0,0.0,3.4992,3.5449,3.5827,3.6199,3.6867,3.7128,3.7273,3.8412,3.851,3.8134,3.8664,3.8568,3.8105,3.747,3.8305,3.9543,3.9525,3.9839,4.0072,3.9345,3.8744,3.8207,3.7653,3.7495,3.7495,3.7495,3.7495,3.7495,3.7495,3.7495,3.7653,3.8239,3.8096,3.8386,3.9886,3.9899,4.0015,4.0889,4.0547,4.021,4.021,3.968,3.9315,3.9315,3.9183,3.9103,3.9103,3.8427,3.8261,3.8884,3.8584,3.8948,4.0144,4.0525,4.0983,4.1604,4.1604,4.1604,4.1604,4.1604,4.1534,4.1394,4.1534,4.1534,2.571,2.5906,2.5841,2.5599,2.4618,2.3263,2.1564,0.0,0.0,0.0,1.6775,1.6965,1.6965,0.0,0.0,0.0,0.0,0.0,0.0,0.0,0.0,0.0,0.0,0.0,0.0,0.0,0.0,0.0,0.0,0.0,3.3683,3.4688,3.5365,3.569,3.569,3.569,3.569,3.569,3.569,3.569,3.569,3.5554,3.5283,3.5283,3.512,3.4822,3.4931,0.0,3.5602,3.6059,3.6636,3.736,3.8028,3.8492,3.8841,3.945,3.9276,3.8783,3.9102,3.8962,3.8638,3.8344,3.9002,3.9873,3.9734,4.0109,4.0293,3.8839,3.8491,3.835,3.7685,3.7495,3.7495,3.7495,3.7495,3.759,3.7954,3.8017,3.8207,3.8902,3.8867,3.9047,4.0068,4.0236,4.0413,4.1044,4.0998,4.0912,4.0912,4.0613,4.0097,3.9381,3.9315,3.9315,3.9315,3.897,3.8904,3.9282,3.9327,3.9653,4.0383,4.0838,4.1229,4.1593,4.1604,4.1604,4.1604,4.1604,4.1604,4.1604,4.1604,4.1604,2.5622,2.5819,2.5775,2.5315,2.4025,2.2328,2.0391,1.8755,0.0,0.0,1.6337,1.7065,1.7065,0.0,0.0,0.0,0.0,0.0,0.0,0.0,0.0,0.0,0.0,0.0,0.0,0.0,0.0,0.0,0.0,0.0,3.3662,3.4939,3.5683,3.569,3.569,3.569,3.569,3.569,3.569,3.569,3.5825,3.5879,3.5879,3.6015,3.6015,3.5873,3.573,0.0,0.0,3.6817,3.7624,3.8667,3.9189,3.9596,3.9944,4.0205,3.9828,3.9237,3.9518,3.945,3.9286,3.9265,3.9636,4.0056,3.9842,4.026,4.0451,3.8665,3.8555,3.8792,3.8096,3.7938,3.7938,3.7938,3.7938,3.8064,3.8618,3.8697,3.8934,3.9598,3.9598,3.9723,4.0429,4.0655,4.0906,4.1406,4.1568,4.1626,4.1626,4.1494,4.0978,3.9865,3.9613,3.9481,3.9315,3.9315,3.9315,3.9315,3.9982,4.0417,4.0417,4.1175,4.1604,4.1604,4.1604,4.1604,4.1604,4.1604,4.1604,4.1604,4.1604,4.1604,2.514,2.5577,2.5775,2.5315,2.3766,2.1848,1.9905,0.0,0.0,1.4822,1.5284,1.5953,1.5953,1.809,0.0,0.0,0.0,2.3735,0.0,0.0,0.0,0.0,0.0,0.0,0.0,0.0,0.0,0.0,0.0,0.0,0.0,3.4847,3.5571,3.5696,3.569,3.569,3.569,3.569,3.569,3.5717,3.6252,3.6524,3.6551,3.7073,3.7046,3.6524,0.0,0.0,0.0,3.7777,3.8612,3.9915,3.9973,3.9712,3.9421,4.0583,4.0234,3.9353,4.0448,4.044,3.9906,3.9853,4.0235,4.0701,4.071,4.1081,4.1336,4.0546,4.0356,4.023,3.9503,3.9313,3.9313,3.9313,3.9313,3.9345,3.9408,3.9408,3.9629,4.0356,3.9945,4.0102,4.2024,4.1873,4.1907,4.3182,4.2822,4.2421,4.2421,4.1825,4.1361,4.1229,4.066,4.0044,3.9348,3.9315,3.9315,3.9315,3.9982,4.0417,4.0417,4.1175,4.1604,4.1604,4.1604,4.1604,4.1604,4.1604,4.1604,4.1604,4.1604,4.1604,2.4419,2.4922,2.4923,2.4421,2.287,2.0943,1.9004,0.0,1.5758,1.4625,1.5159,1.5798,1.5798,1.7429,1.8992,1.9659,2.0106,0.0,0.0,0.0,0.0,0.0,0.0,0.0,0.0,0.0,0.0,0.0,0.0,0.0,0.0,3.4544,3.5237,3.5696,3.569,3.5852,3.6252,3.5879,3.6069,3.6774,3.6659,3.6795,3.7154,3.7398,3.7371,3.7127,0.0,0.0,0.0,3.8012,3.8744,3.9902,4.0167,4.0383,4.0625,4.1409,4.0873,3.9809,4.0276,4.0016,3.9453,3.9421,3.9796,4.0261,4.0155,4.0828,4.1384,4.0261,4.0261,4.0419,3.9692,3.9503,3.9503,3.9503,3.9503,3.9629,4.0072,4.0166,4.0356,4.1051,4.1304,4.1753,4.2799,4.2912,4.3099,4.3859,4.3527,4.3168,4.3168,4.2918,4.2553,4.2123,4.1044,4.0276,4.0011,3.9547,3.9315,3.9315,3.982,4.0204,4.0405,4.0919,4.1334,4.1593,4.1604,4.1604,4.1604,4.1604,4.1604,4.1604,4.1604,4.1604,2.3195,2.3831,2.394,2.3419,2.1865,1.9981,0.0,0.0,1.5365,1.4559,1.505,1.5636,1.5776,1.6933,1.8061,1.8606,1.888,1.9659,2.1537,0.0,0.0,0.0,0.0,0.0,0.0,0.0,0.0,0.0,0.0,0.0,0.0,3.4512,3.5178,3.5669,3.569,3.5879,3.6334,3.609,3.6395,3.7235,3.6964,3.7181,3.7778,3.7778,3.7778,3.7778,0.0,0.0,0.0,3.8379,3.9012,4.0006,4.0296,4.071,4.1123,4.1406,4.0902,4.0128,4.0305,3.9929,3.9405,3.9569,3.9733,3.9904,3.9995,4.0649,4.117,4.0356,4.064,4.1051,4.0293,4.0419,4.0687,4.0482,4.0451,4.064,4.1367,4.1367,4.143,4.2094,4.2631,4.3132,4.3585,4.388,4.409,4.432,4.4304,4.4077,4.3679,4.3779,4.3547,4.262,4.1607,4.0926,4.0727,4.023,3.9931,3.9931,4.0086,4.0354,4.0687,4.0904,4.1186,4.1593,4.1604,4.1604,4.1604,4.1604,4.1604,4.1604,4.1604,4.1604,2.1363,2.2302,2.2914,2.2437,2.0844,1.9032,0.0,0.0,1.4963,1.4506,1.4778,1.5256,1.5711,1.6676,1.7698,1.8562,1.9157,2.0148,2.2046,0.0,0.0,0.0,0.0,0.0,0.0,0.0,0.0,0.0,0.0,0.0,0.0,3.4899,3.5624,3.5696,3.569,3.569,3.5717,3.6307,3.6605,3.6632,3.7208,3.7805,3.8374,3.8374,3.8374,0.0,0.0,0.0,0.0,3.9084,3.9722,4.0674,4.0466,4.0404,4.038,4.0191,4.0118,4.0168,4.0771,4.0537,4.0085,4.0686,4.0448,3.9995,4.0612,4.0783,4.0919,4.1425,4.2111,4.2522,4.1763,4.2631,4.3499,4.2821,4.268,4.2853,4.3531,4.3169,4.2884,4.3562,4.3688,4.393,4.4672,4.4787,4.4773,4.4696,4.5317,4.5251,4.3812,4.4257,4.4125,4.2653,4.2487,4.2189,4.1461,4.1394,4.1394,4.1394,4.105,4.1071,4.146,4.1168,4.1186,4.1593,4.1604,4.1604,4.1604,4.1604,4.1604,4.1604,4.1604,4.1604,1.9244,1.9834,2.0025,1.9878,1.8895,1.7686,1.6522,0.0,1.4963,1.4506,1.4766,1.5234,1.5711,1.6339,1.7213,1.8502,1.8827,1.9528,0.0,0.0,0.0,0.0,0.0,0.0,0.0,0.0,0.0,0.0,0.0,0.0,0.0,3.4763,3.5204,3.5669,3.569,3.5879,3.6307,3.6497,3.7012,3.7832,3.8022,3.8212,3.8401,3.8401,0.0,0.0,0.0,0.0,0.0,3.924,3.9634,4.0229,4.0484,4.0809,4.1066,4.0856,4.0786,4.0768,4.048,4.0213,3.9984,3.9807,3.9797,3.9925,4.013,4.0461,4.0902,4.144,4.2142,4.2648,4.2427,4.3042,4.3657,4.3436,4.339,4.3439,4.3657,4.3531,4.3436,4.3657,4.4068,4.4629,4.535,4.5467,4.5652,4.6117,4.5947,4.5616,4.5152,4.5317,4.5267,4.4821,4.4754,4.386,4.1593,4.1394,4.1394,4.1394,4.1592,4.1901,4.2292,4.2467,4.2775,4.3173,4.3184,4.2938,4.24,4.24,4.24,4.24,4.24,4.2693,1.7475,1.8035,1.8167,1.8167,1.7445,1.6522,0.0,0.0,1.4804,1.4694,1.4755,1.5089,1.5898,1.6159,1.6719,1.8196,1.8567,1.9216,0.0,0.0,0.0,0.0,0.0,0.0,0.0,0.0,0.0,0.0,0.0,0.0,0.0,0.0,3.5498,3.5669,3.569,3.5879,3.6252,3.6497,3.7073,3.8049,3.7832,3.7962,3.8374,3.7913,0.0,0.0,0.0,0.0,0.0,3.9047,3.9366,4.0012,3.9991,4.0569,4.1316,4.0625,4.0699,4.1029,4.0617,4.0147,3.9761,4.0092,4.0226,4.0296,4.0528,4.1052,4.1642,4.2214,4.2916,4.339,4.3137,4.3783,4.4415,4.4131,4.4085,4.4148,4.4415,4.4289,4.4162,4.4447,4.4826,4.5359,4.6093,4.6212,4.6368,4.6844,4.6742,4.6411,4.5881,4.6062,4.598,4.5432,4.5631,4.492,4.2833,4.2899,4.2932,4.2667,4.2811,4.2983,4.3124,4.3238,4.3471,4.3886,4.3886,4.3676,4.3219,4.3219,4.3219,4.3219,4.3219,4.3465,0.0,1.671,1.7087,1.7087,1.6404,1.5593,1.5147,0.0,0.0,1.496,1.4697,1.4845,1.6301,1.6181,1.6392,1.7947,1.8547,0.0,0.0,0.0,0.0,0.0,0.0,0.0,0.0,0.0,0.0,0.0,0.0,0.0,0.0,0.0,3.628,3.5717,3.569,3.569,3.569,3.6307,3.6877,3.7452,3.6937,3.7284,3.8239,3.7175,0.0,0.0,0.0,0.0,0.0,3.8618,3.9038,3.9929,3.9208,3.9947,4.123,3.9787,4.0031,4.1089,4.1055,4.0262,3.9545,4.1245,4.1352,4.0955,4.169,4.2288,4.2821,4.3499,4.4194,4.4541,4.3941,4.4794,4.5634,4.492,4.4762,4.497,4.5647,4.5268,4.4984,4.571,4.5868,4.6122,4.69,4.7039,4.7052,4.7076,4.7669,4.7636,4.6212,4.6643,4.6543,4.5167,4.5598,4.5697,4.5002,4.5465,4.5499,4.4736,4.4532,4.4248,4.3875,4.3643,4.3682,4.4062,4.3992,4.4003,4.4003,4.3933,4.3933,4.4003,4.4003,4.3992,1.4713,0.0,1.5074,1.5074,1.4887,1.4691,0.0,0.0,0.0,0.0,0.0,1.5003,1.6909,1.6838,1.7306,1.9793,2.0038,0.0,0.0,0.0,0.0,0.0,0.0,0.0,0.0,0.0,0.0,0.0,0.0,0.0,0.0,0.0,3.5852,3.569,3.569,3.569,3.569,3.6307,3.6687,3.6822,3.7588,3.7642,3.7039,3.7208,0.0,0.0,0.0,0.0,3.8591,3.8456,3.9038,4.0012,4.0208,4.0711,4.1287,4.0278,4.0408,4.1031,4.0436,4.0065,3.9943,4.0794,4.0928,4.1117,4.275,4.2988,4.2821,4.3499,4.4194,4.4668,4.451,4.5142,4.5742,4.5584,4.5521,4.5584,4.5742,4.5647,4.5742,4.6424,4.655,4.6998,4.8271,4.8494,4.8515,4.858,4.921,4.9342,4.8431,4.8498,4.8465,4.81,4.7736,4.7404,4.7239,4.6344,4.5499,4.4736,4.526,4.5301,4.4674,4.5224,4.5567,4.5653,4.5103,4.4834,4.4834,4.4202,4.4202,4.4834,4.4834,4.5115,1.4275,1.4396,1.4396,1.4396,1.4396,1.4396,1.4396,0.0,0.0,0.0,0.0,0.0,1.7481,1.7611,0.0,2.0529,2.0977,0.0,0.0,0.0,0.0,0.0,0.0,0.0,0.0,0.0,0.0,0.0,0.0,0.0,0.0,0.0,3.569,3.569,3.569,3.569,3.569,3.6035,3.6334,3.6605,3.6964,3.6964,3.6605,3.6639,0.0,0.0,0.0,0.0,3.7995,3.7995,3.8628,3.9624,4.0096,4.0541,4.0907,4.0625,4.0734,4.1008,4.0603,4.0646,4.0902,4.0816,4.1017,4.1555,4.3203,4.3453,4.339,4.4383,4.492,4.5205,4.5205,4.5489,4.5805,4.5805,4.5805,4.5868,4.6202,4.6266,4.6487,4.7182,4.7426,4.7791,4.8386,4.8928,4.9247,4.9126,4.9739,5.0071,4.964,4.9607,4.9475,4.916,4.8763,4.8365,4.8034,4.7272,4.6477,4.5764,4.6543,4.6709,4.5972,4.646,4.6577,4.6214,4.6507,4.6484,4.6133,4.5712,4.5888,4.6648,4.6309,4.6542,1.4166,1.441,1.4489,1.4419,1.4454,1.4512,1.4512,0.0,0.0,0.0,0.0,0.0,0.0,0.0,0.0,0.0,0.0,0.0,0.0,0.0,0.0,0.0,0.0,0.0,0.0,0.0,0.0,0.0,0.0,0.0,0.0,0.0,0.0,3.569,3.569,3.569,3.569,3.569,3.5961,3.6469,3.6062,3.6062,3.6442,3.6035,3.609,0.0,0.0,0.0,3.7371,3.7458,3.8094,3.9069,3.9571,4.0046,4.0473,4.0754,4.0923,4.1018,4.1012,4.1444,4.1851,4.1171,4.1472,4.2299,4.336,4.3783,4.4131,4.5426,4.5805,4.5805,4.5805,4.5805,4.5805,4.5805,4.5805,4.5963,4.6645,4.6803,4.7056,4.7877,4.8338,4.8482,4.8314,4.9148,4.9667,4.924,4.9937,5.0435,5.0236,5.032,5.0121,4.9491,4.9359,4.8978,4.8233,4.8166,4.7868,4.7106,4.7766,4.7909,4.7335,4.7474,4.7257,4.6565,4.7828,4.8192,4.7573,4.7585,4.7889,4.8508,4.7854,4.7889,1.3674,1.4395,1.4903,1.4501,1.4697,1.4994,1.4994,0.0,0.0,0.0,0.0,0.0,0.0,0.0,0.0,0.0,0.0,0.0,0.0,0.0,0.0,0.0,0.0,0.0,0.0,0.0,0.0,0.0,0.0,0.0,0.0,0.0,0.0,3.569,3.569,3.569,3.569,3.569,3.5744,3.5825,3.6252,3.6252,3.5852,3.628,3.6225,0.0,0.0,3.6178,3.6795,3.729,3.7902,3.8596,3.9403,4.009,4.0626,4.0256,4.0507,4.1018,4.1012,4.1342,4.1798,4.1682,4.2466,4.3427,4.3625,4.4085,4.4731,4.5552,4.5805,4.5805,4.5805,4.5805,4.5805,4.5805,4.5805,4.5963,4.6645,4.6803,4.7182,4.8478,4.8788,4.912,4.9949,5.0526,5.056,4.9667,5.0955,5.1612,5.0369,5.075,5.1099,5.0966,5.0419,4.9739,4.8995,4.8928,4.863,4.7868,4.7729,4.7689,4.7707,4.8094,4.8262,4.8157,4.8367,4.8438,4.8332,4.838,4.8486,4.8591,4.8403,4.8403,1.378,1.4403,1.4797,1.5084,1.5322,1.5478,1.5478,0.0,0.0,0.0,0.0,0.0,0.0,0.0,0.0,0.0,0.0,0.0,0.0,0.0,0.0,0.0,0.0,0.0,0.0,0.0,0.0,0.0,0.0,0.0,0.0,0.0,0.0,0.0,3.5039,3.5201,3.5201,3.4883,3.5066,3.569,3.5961,3.5961,3.5717,3.5988,3.5961,3.569,0.0,3.5852,3.6171,3.6747,3.7328,3.7895,3.8845,3.935,3.954,3.9839,3.9971,4.0099,4.101,4.1326,4.1458,4.2084,4.2931,4.3783,4.4117,4.4464,4.4857,4.5584,4.5805,4.5805,4.5805,4.5805,4.5886,4.6266,4.636,4.6645,4.7688,4.7909,4.8225,4.9236,4.9601,4.9892,5.0228,5.0964,5.1273,5.0619,5.159,5.2159,5.1479,5.1695,5.1729,5.1331,5.1,5.0485,4.9739,4.9673,4.931,4.8423,4.8508,4.8553,4.8453,4.9313,4.9385,4.8508,4.935,4.9574,4.9153,4.9201,4.9412,4.982,4.9363,4.9398,1.3883,1.4448,1.4894,1.5787,1.5998,1.6001,1.6133,0.0,0.0,0.0,0.0,0.0,0.0,0.0,0.0,0.0,0.0,0.0,0.0,0.0,0.0,0.0,0.0,0.0,0.0,0.0,0.0,0.0,0.0,0.0,0.0,0.0,0.0,0.0,3.4423,3.4666,3.4802,3.4206,3.4504,3.569,3.5554,3.5554,3.569,3.569,3.569,3.569,3.569,3.569,3.5744,3.6361,3.6873,3.7385,3.8257,3.8595,3.8765,3.9751,3.9877,3.9812,4.1477,4.1797,4.1659,4.2796,4.3516,4.4036,4.4541,4.4826,4.5096,4.5647,4.5805,4.5805,4.5805,4.5918,4.6171,4.6676,4.6929,4.7403,4.8623,4.8908,4.9078,4.9754,5.0136,5.0326,5.0199,5.1016,5.1532,5.1204,5.1874,5.2325,5.2159,5.2292,5.2192,5.1596,5.1563,5.1265,5.0518,5.032,4.9875,4.9085,4.932,4.9466,4.9349,5.0244,5.0169,4.9069,5.0276,5.0606,4.9973,5.0149,5.0465,5.0887,5.0641,5.0746,1.3582,1.4612,1.5691,1.6467,1.6529,0.0,1.7149,1.8203,0.0,0.0,0.0,0.0,0.0,0.0,0.0,0.0,0.0,0.0,0.0,0.0,0.0,0.0,0.0,0.0,0.0,0.0,0.0,0.0,0.0,0.0,0.0,0.0,0.0,0.0,0.0,3.4233,3.4775,3.4206,3.4504,3.569,3.5147,3.5174,3.569,3.569,3.569,3.569,3.569,3.569,3.5744,3.6361,3.6873,3.7329,3.7802,3.8409,3.9201,4.0378,4.0825,4.1114,4.2928,4.3196,4.2949,4.4175,4.4573,4.4636,4.4668,4.5173,4.571,4.5773,4.5805,4.5805,4.5805,4.6266,4.674,4.6803,4.7308,4.8004,4.875,4.8908,4.9078,4.9754,4.9931,5.0058,5.0422,5.0857,5.1043,5.0761,5.1696,5.2159,5.1463,5.1961,5.2391,5.2325,5.2325,5.2027,5.1265,5.0585,5.0154,5.0106,4.989,4.9965,5.0378,5.0232,5.0342,5.0733,5.0851,5.0887,5.0816,5.1505,5.1505,5.0922,5.2291,5.2558,1.4167,1.4912,1.5556,1.671,0.0,0.0,0.0,0.0,0.0,0.0,0.0,0.0,0.0,0.0,0.0,0.0,0.0,0.0,0.0,0.0,0.0,0.0,0.0,0.0,0.0,0.0,0.0,0.0,0.0,0.0,0.0,0.0,0.0,0.0,0.0,3.3512,3.3729,3.3132,3.3439,3.4585,3.4341,3.4558,3.5147,3.5147,3.5364,3.569,3.569,3.569,3.5717,3.5934,3.6326,3.6796,3.7462,3.8273,3.9192,4.0009,4.0575,4.1138,4.2069,4.2604,4.3034,4.3833,4.4369,4.4812,4.5236,4.5584,4.5805,4.5805,4.6108,4.6424,4.6424,4.6613,4.7024,4.7896,4.832,4.8699,4.9394,4.9501,4.9596,4.9848,5.0097,5.0409,5.078,5.1229,5.159,5.1726,5.2137,5.2292,5.2027,5.2226,5.2391,5.2391,5.2391,5.2292,5.1994,5.1729,5.1578,5.1578,5.0894,5.0552,5.0745,5.1249,5.163,5.1839,5.2138,5.2326,5.2326,5.2607,5.2607,5.2326,5.2923,5.3029,1.4412,1.5046,1.5546,0.0,0.0,0.0,0.0,0.0,0.0,0.0,0.0,0.0,0.0,0.0,0.0,0.0,0.0,0.0,0.0,0.0,0.0,0.0,0.0,0.0,0.0,0.0,0.0,0.0,0.0,0.0,0.0,0.0,0.0,0.0,0.0,3.2925,3.3088,3.2499,3.2689,3.3656,3.3466,3.3772,3.4531,3.4531,3.4721,3.5147,3.5337,3.5418,3.5418,3.5608,3.6058,3.6674,3.7539,3.8371,3.918,3.992,4.0628,4.1308,4.1792,4.2348,4.2921,4.3507,4.4022,4.451,4.5236,4.5615,4.5805,4.5805,4.6297,4.6866,4.7087,4.715,4.7435,4.8623,4.8908,4.9078,4.9754,4.9912,4.9912,4.9912,5.0214,5.064,5.1027,5.1503,5.1941,5.2338,5.2391,5.2391,5.2391,5.2391,5.2391,5.2391,5.2391,5.2391,5.2391,5.2391,5.2391,5.2391,5.1743,5.1346,5.1244,5.1841,5.2274,5.2409,5.2927,5.3204,5.3204,5.3415,5.3415,5.3204,5.3696,5.3801,1.4048,1.493,1.5772,0.0,0.0,0.0,0.0,0.0,0.0,0.0,0.0,0.0,0.0,0.0,0.0,0.0,0.0,0.0,0.0,0.0,0.0,0.0,0.0,0.0,0.0,0.0,0.0,0.0,0.0,0.0,0.0,0.0,0.0,0.0,0.0,0.0,3.3088,3.2499,3.2499,3.3088,3.2472,3.2779,3.3908,3.3908,3.3908,3.3935,3.4531,3.4775,3.4829,3.5445,3.6211,3.7095,3.8098,3.873,3.9235,4.037,4.1234,4.1897,4.2493,4.2711,4.2838,4.3467,4.3671,4.3846,4.451,4.5205,4.5773,4.5805,4.6297,4.6992,4.7719,4.7909,4.8067,4.8731,4.8908,4.9078,4.9754,4.9912,4.9912,4.9912,5.0234,5.064,5.1059,5.1503,5.1941,5.2338,5.2391,5.2391,5.2391,5.2391,5.2391,5.2391,5.2391,5.2391,5.2391,5.2391,5.2391,5.2391,5.2391,5.2289,5.2018,5.1831,5.1939,5.2394,5.2962,5.3204,5.3204,5.3963,5.3928,5.3239,5.4805,5.5071,1.5059,1.5273,0.0,0.0,0.0,0.0,0.0,0.0,0.0,0.0,0.0,0.0,0.0,0.0,0.0,0.0,0.0,0.0,0.0,0.0,0.0,0.0,0.0,0.0,0.0,0.0,0.0,0.0,0.0,0.0,0.0,0.0,0.0,0.0,0.0,0.0,3.2472,3.2282,3.2282,3.2445,3.2282,3.2608,3.3341,3.3341,3.3539,3.3908,3.4097,3.4179,3.4198,3.4678,3.5692,3.7039,3.7587,3.8554,3.9761,4.0526,4.1474,4.2365,4.2044,4.2568,4.3341,4.3105,4.3327,4.3846,4.451,4.4857,4.5142,4.5647,4.6676,4.7624,4.7846,4.8256,4.8762,4.9457,4.9596,4.9659,4.9848,4.9912,4.9959,5.0273,5.066,5.1078,5.1522,5.1926,5.2266,5.2373,5.2391,5.2391,5.2391,5.2391,5.2391,5.2391,5.2391,5.2391,5.2391,5.2391,5.2391,5.2391,5.2391,5.2363,5.2289,5.2891,5.3293,5.3437,5.4356,5.4805,5.4805,5.5051,5.5036,5.484,5.5282,5.5352,1.4962,0.0,0.0,0.0,0.0,0.0,0.0,0.0,0.0,0.0,0.0,0.0,0.0,0.0,0.0,0.0,0.0,0.0,0.0,0.0,0.0,0.0,0.0,0.0,0.0,0.0,0.0,0.0,0.0,0.0,0.0,0.0,0.0,0.0,0.0,3.22,3.22,3.22,3.22,3.22,3.22,3.239,3.2735,3.2735,3.2933,3.3249,3.3466,3.371,3.3927,3.4327,3.5329,3.6627,3.72,3.8415,3.9876,4.0498,4.1386,4.2206,4.1763,4.2157,4.2821,4.2378,4.2726,4.3453,4.4085,4.4496,4.4857,4.5584,4.6803,4.7909,4.7909,4.8604,4.9394,4.9785,4.969,4.9584,4.9848,4.9912,4.9959,5.0214,5.0736,5.121,5.1452,5.1999,5.2391,5.2391,5.2391,5.2391,5.2391,5.2391,5.2391,5.2391,5.2391,5.2391,5.2391,5.2391,5.2391,5.2391,5.2391,5.2391,5.2391,5.3382,5.3896,5.3896,5.4961,5.5493,5.5493,5.5493,5.5493,5.5493,5.5493,5.5493,1.4241,0.0,0.0,0.0,0.0,0.0,0.0,0.0,0.0,0.0,0.0,0.0,0.0,0.0,0.0,0.0,0.0,0.0,0.0,0.0,0.0,0.0,0.0,0.0,0.0,0.0,0.0,0.0,0.0,0.0,0.0,0.0,0.0,0.0,3.22,3.22,3.22,3.22,3.22,0.0,3.22,3.22,3.22,3.22,3.22,3.2227,3.2789,3.3341,3.3903,3.4266,3.5012,3.6032,3.6924,3.8237,3.9686,4.0352,4.0988,4.151,4.1573,4.1605,4.1605,4.1605,4.2048,4.2743,4.347,4.4134,4.4812,4.5647,4.6866,4.7909,4.7972,4.8932,4.9912,4.9912,4.9426,4.9141,4.9754,4.9912,4.9931,4.9951,5.0583,5.1102,5.1172,5.1853,5.2391,5.2391,5.2391,5.2391,5.2391,5.2391,5.2391,5.2391,5.2391,5.2391,5.2391,5.2391,5.2391,5.2391,5.2391,5.2391,5.2391,5.3382,5.3896,5.3896,5.4961,5.5493,5.5493,5.5493,5.5493,5.5493,5.5493,5.5493,1.4787,1.4997,0.0,0.0,0.0,0.0,0.0,0.0,0.0,0.0,0.0,0.0,0.0,0.0,0.0,0.0,0.0,0.0,0.0,0.0,0.0,0.0,0.0,0.0,0.0,0.0,0.0,0.0,0.0,0.0,0.0,0.0,0.0,3.22,3.22,3.22,3.22,3.22,3.22,0.0,3.22,3.22,3.22,3.22,3.22,3.22,3.2336,3.29,3.367,3.3573,3.4672,3.6441,3.6886,3.783,3.9049,4.0195,4.0704,4.0893,4.1415,4.1605,4.1605,4.1605,4.17,4.2079,4.3312,4.3786,4.4292,4.6076,4.7214,4.8004,4.856,4.9299,4.9912,4.9912,4.9785,4.9722,4.988,4.9912,4.9979,5.0312,5.0774,5.1229,5.1596,5.2086,5.2391,5.2391,5.2391,5.2391,5.2391,5.2391,5.2391,5.2391,5.2391,5.2391,5.2391,5.2391,5.2391,5.2391,5.2391,5.2391,5.2391,5.3382,5.3896,5.3896,5.4961,5.5493,5.5493,5.5493,5.5493,5.5493,5.5493,5.5493,0.0,0.0,0.0,0.0,0.0,0.0,0.0,0.0,0.0,0.0,0.0,0.0,0.0,0.0,0.0,0.0,0.0,0.0,0.0,0.0,0.0,0.0,0.0,0.0,0.0,0.0,0.0,0.0,0.0,0.0,0.0,3.22,3.22,3.22,3.22,3.22,3.22,3.22,3.22,3.22,3.22,3.22,3.22,3.22,3.22,3.2218,3.2372,3.2717,3.3182,3.3445,3.4508,3.6001,3.6337,3.7352,3.8701,3.9361,4.004,4.064,4.0988,4.1352,4.1605,4.1605,4.1605,4.1858,4.3263,4.3706,4.4085,4.5823,4.6834,4.7435,4.7782,4.8667,4.9426,4.9426,4.9659,4.9912,4.9912,4.9912,4.9998,5.0428,5.08,5.1247,5.1707,5.214,5.2391,5.2391,5.2391,5.2391,5.2391,5.2391,5.2391,5.2391,5.2391,5.2391,5.2391,5.2391,5.2391,5.2391,5.2391,5.2391,5.2391,5.3128,5.3649,5.3896,5.4961,5.5493,5.5493,5.5844,5.6034,5.6034,5.6034,5.6034,0.0,0.0,0.0,0.0,0.0,0.0,0.0,0.0,0.0,0.0,0.0,0.0,0.0,0.0,0.0,0.0,0.0,0.0,0.0,0.0,0.0,0.0,0.0,0.0,0.0,0.0,0.0,0.0,0.0,0.0,3.2037,3.2146,3.2146,3.2037,3.2146,3.2146,3.2037,3.2146,3.2146,3.2037,3.2146,3.22,3.22,3.22,3.22,3.2218,3.2543,3.2739,3.2864,3.3618,3.4543,3.5529,3.5881,3.6971,3.8333,3.8445,3.9234,4.0261,4.0514,4.0956,4.1447,4.1573,4.1605,4.1841,4.3278,4.3688,4.4004,4.5521,4.636,4.6834,4.6961,4.794,4.8908,4.8908,4.9426,4.9912,4.9912,4.9912,4.9998,5.0428,5.0908,5.1359,5.1817,5.2176,5.2391,5.2391,5.2391,5.2391,5.2391,5.2391,5.2391,5.2391,5.2391,5.2391,5.2391,5.2391,5.2458,5.259,5.259,5.2623,5.2756,5.3203,5.367,5.4123,5.4942,5.5409,5.5534,5.613,5.649,5.6596,5.6596,5.6666,0.0,0.0,0.0,0.0,0.0,0.0,0.0,0.0,0.0,0.0,0.0,0.0,0.0,0.0,0.0,0.0,0.0,0.0,0.0,0.0,0.0,0.0,0.0,0.0,0.0,0.0,0.0,0.0,0.0,0.0,3.145,3.1929,3.1956,3.1422,3.1929,3.1956,3.1422,3.1929,3.1929,3.1422,3.1956,3.22,3.22,3.22,3.22,3.2218,3.2543,3.2899,3.3287,3.4138,3.5011,3.5881,3.6383,3.703,3.7685,3.8302,3.8603,3.895,4.0198,4.0672,4.083,4.1399,4.1605,4.1841,4.3278,4.3706,4.4102,4.6108,4.674,4.6961,4.7593,4.832,4.8908,4.8908,4.9426,4.9912,4.9912,4.9912,4.9998,5.0428,5.1135,5.1849,5.2248,5.2356,5.2391,5.2391,5.2391,5.2391,5.2391,5.2391,5.2391,5.2391,5.2391,5.2391,5.2391,5.2391,5.2656,5.3235,5.325,5.3548,5.4177,5.4724,5.5046,5.5116,5.4906,5.5135,5.5763,5.5704,5.5999,5.6596,5.6596,5.6982,0.0,0.0,0.0,0.0,0.0,0.0,0.0,0.0,0.0,0.0,0.0,0.0,0.0,0.0,0.0,0.0,0.0,0.0,0.0,0.0,0.0,0.0,0.0,0.0,0.0,0.0,0.0,0.0,0.0,3.1793,3.0853,3.1368,3.1422,3.0825,3.1042,3.107,3.0798,3.107,3.107,3.0798,3.107,3.1368,3.1712,3.1712,3.1875,3.2237,3.2775,3.3276,3.3779,3.4593,3.548,3.6368,3.6616,3.7029,3.7527,3.7843,3.8428,3.9155,3.9787,4.0482,4.1209,4.151,4.1605,4.1841,4.3278,4.3706,4.4071,4.576,4.6234,4.6329,4.6645,4.753,4.832,4.832,4.9141,4.9912,4.9912,5.0077,5.0428,5.1078,5.1707,5.2194,5.2356,5.2391,5.2391,5.2391,5.2391,5.2391,5.2391,5.2391,5.2391,5.2391,5.2391,5.2557,5.2937,5.297,5.3268,5.3978,5.4011,5.4144,5.4475,5.4715,5.5044,5.5477,5.5485,5.557,5.579,5.6599,5.7075,5.7298,5.7719,5.8141,0.0,0.0,0.0,0.0,0.0,0.0,0.0,0.0,0.0,0.0,0.0,0.0,0.0,0.0,0.0,0.0,0.0,0.0,0.0,0.0,0.0,0.0,0.0,0.0,0.0,0.0,0.0,0.0,0.0,3.1287,3.0228,3.0744,3.0798,3.0201,3.0337,3.0337,3.0174,3.0174,3.0256,3.0401,3.0401,3.0635,3.107,3.1311,3.1691,3.2136,3.295,3.3624,3.4228,3.5041,3.5911,3.6723,3.6846,3.7134,3.7495,3.7495,3.8254,3.9281,3.9439,4.0293,4.1367,4.1542,4.1605,4.1841,4.3278,4.3688,4.399,4.5412,4.5805,4.5805,4.5805,4.6834,4.7909,4.7909,4.8901,4.9912,4.9912,5.0214,5.0698,5.1355,5.1871,5.2248,5.2248,5.232,5.2391,5.2391,5.2391,5.2391,5.2391,5.2391,5.2391,5.2391,5.2391,5.269,5.3349,5.3382,5.378,5.4707,5.4773,5.4872,5.5038,5.5038,5.5303,5.5866,5.6135,5.6218,5.6184,5.728,5.7899,5.8141,5.8722,5.9108,0.0,0.0,0.0,0.0,0.0,0.0,0.0,0.0,0.0,0.0,0.0,0.0,0.0,0.0,0.0,0.0,0.0,0.0,0.0,0.0,0.0,0.0,0.0,0.0,0.0,0.0,0.0,0.0,0.0,3.0228,2.9567,3.012,3.0174,2.9583,3.0093,3.012,2.954,2.954,2.9838,3.0401,3.0401,3.0401,3.0473,3.1354,3.1785,3.1875,3.286,3.3779,3.4631,3.5513,3.6211,3.6754,3.7271,3.748,3.7495,3.7495,3.7969,3.8634,3.9281,4.0008,4.0767,4.1399,4.1605,4.1841,4.3278,4.372,4.4004,4.5394,4.5805,4.5805,4.5805,4.6834,4.7909,4.7909,4.8901,4.9912,4.9912,5.0214,5.0525,5.0563,5.1261,5.1849,5.1849,5.2158,5.2391,5.2391,5.2391,5.2391,5.2391,5.2391,5.2391,5.2391,5.2391,5.269,5.3349,5.3382,5.4011,5.5468,5.5535,5.5866,5.6567,5.66,5.66,5.6633,5.6658,5.6843,5.7209,5.703,5.7621,5.8932,5.8968,5.9369,0.0,0.0,0.0,0.0,0.0,0.0,0.0,0.0,0.0,0.0,0.0,0.0,0.0,0.0,0.0,0.0,0.0,0.0,0.0,0.0,0.0,0.0,0.0,0.0,0.0,0.0,0.0,0.0,0.0,0.0,2.8969,2.9485,2.954,2.8942,2.8763,2.8573,2.8356,2.8725,2.9024,2.9252,2.9252,2.9442,2.9838,3.0382,3.1209,3.2234,3.3144,3.4147,3.5172,3.5689,3.643,3.7225,3.7436,3.7495,3.7495,3.7495,3.8191,3.9187,3.9408,4.0261,4.1272,4.1525,4.1605,4.1858,4.3263,4.3688,4.4004,4.5394,4.5805,4.5805,4.5805,4.6834,4.813,4.8964,4.9564,4.9912,4.9912,5.0214,5.0583,5.0819,5.1392,5.1813,5.1813,5.214,5.2391,5.2391,5.2391,5.2391,5.2391,5.2391,5.2391,5.2391,5.2771,5.3334,5.4045,5.4541,5.5237,5.6249,5.6316,5.6216,5.5998,5.6448,5.6481,5.5998,5.6448,5.6921,5.7311,5.7672,5.8265,5.9003,5.9475,5.958,0.0,0.0,0.0,0.0,0.0,0.0,0.0,0.0,0.0,0.0,0.0,0.0,0.0,0.0,0.0,0.0,0.0,0.0,0.0,0.0,0.0,0.0,0.0,0.0,0.0,0.0,0.0,0.0,0.0,0.0,2.8627,2.8969,2.8915,2.8329,2.7922,2.7689,2.7689,2.8112,2.8383,2.8616,2.8616,2.8855,2.9367,2.9919,3.0807,3.2002,3.3071,3.4319,3.5609,3.5992,3.6677,3.7495,3.7495,3.7495,3.7495,3.7495,3.8349,3.9503,3.9503,4.0419,4.1605,4.1605,4.1605,4.1858,4.328,4.3706,4.4004,4.5394,4.5805,4.5837,4.6076,4.7182,4.8509,4.9627,4.9912,4.9912,4.9912,5.0214,5.0544,5.0679,5.1285,5.1743,5.1596,5.2017,5.2391,5.2391,5.2391,5.2391,5.2391,5.2391,5.2391,5.2391,5.3003,5.3713,5.4442,5.517,5.5899,5.6666,5.6699,5.6382,5.5634,5.6316,5.6349,5.5634,5.6526,5.7208,5.7653,5.8165,5.8599,5.9003,5.9756,5.9545,0.0,0.0,0.0,0.0,0.0,0.0,0.0,0.0,0.0,0.0,0.0,0.0,0.0,0.0,0.0,0.0,0.0,0.0,0.0,0.0,0.0,0.0,0.0,0.0,0.0,0.0,0.0,0.0,0.0,2.8546,2.8616,2.8573,2.8275,2.7678,2.7662,2.7662,2.7651,2.7662,2.8003,2.8573,2.8589,2.8794,2.9129,3.0051,3.0683,3.1088,3.2572,3.422,3.5899,3.6446,3.7014,3.7495,3.7495,3.7495,3.7495,3.7495,3.8349,3.9503,3.9503,4.0419,4.1605,4.1605,4.1605,4.1858,4.328,4.3706,4.4004,4.5394,4.5805,4.5981,4.6645,4.7846,4.9078,4.9722,4.9912,4.9912,4.9912,5.0214,5.0389,4.9991,5.094,5.1633,5.1191,5.1835,5.2391,5.2391,5.2391,5.2424,5.2424,5.2424,5.2424,5.2458,5.3036,5.3713,5.4475,5.5204,5.5932,5.6647,5.6699,5.6349,5.5601,5.6282,5.6316,5.5601,5.6888,5.7848,5.8404,5.8422,5.8616,5.9003,5.9685,5.9194,1.6059,0.0,0.0,0.0,0.0,0.0,0.0,0.0,0.0,0.0,0.0,0.0,0.0,0.0,0.0,0.0,0.0,0.0,0.0,0.0,0.0,0.0,0.0,0.0,0.0,0.0,0.0,0.0,2.7445,2.7662,2.8546,2.8193,2.7461,2.643,2.6821,2.6849,2.6402,2.7271,2.7786,2.7949,2.8639,2.9017,2.9129,2.9879,3.0661,3.1558,3.2602,3.3786,3.5014,3.5703,3.6591,3.7495,3.7495,3.7495,3.7495,3.7495,3.8349,3.9503,3.9503,4.0419,4.1605,4.1605,4.1605,4.1841,4.3263,4.3688,4.4004,4.5394,4.5805,4.6058,4.7277,4.8225,4.9078,4.9722,4.9912,4.9912,4.9912,5.0214,5.0389,4.9991,5.066,5.1266,5.1102,5.1835,5.2391,5.2391,5.2391,5.259,5.3069,5.2723,5.2789,5.3831,5.4078,5.4508,5.5237,5.5984,5.6481,5.6699,5.6699,5.6117,5.4872,5.5502,5.5568,5.4806,5.6118,5.7324,5.8404,5.8841,5.9036,5.8968,5.8035,5.7333,0.0,0.0,0.0,0.0,0.0,0.0,1.7628,1.7814,0.0,0.0,0.0,0.0,0.0,0.0,0.0,0.0,0.0,0.0,0.0,0.0,0.0,0.0,0.0,0.0,0.0,0.0,0.0,2.6918,2.6849,2.7228,2.8166,2.7895,2.7271,2.6321,2.6632,2.6496,2.5901,2.6712,2.7297,2.7705,2.8265,2.8802,2.9306,2.9566,3.0359,3.1559,3.2078,3.3023,3.4275,3.4972,3.5966,3.7069,3.7369,3.7495,3.7495,3.7495,3.8159,3.9108,3.9408,4.023,4.1209,4.151,4.1605,4.1858,4.3263,4.3688,4.4004,4.5394,4.6013,4.6487,4.7624,4.8383,4.9078,4.9722,4.9912,4.9912,4.9912,5.0077,5.0214,5.0156,5.0813,5.1378,5.1378,5.1944,5.2391,5.2391,5.2656,5.297,5.3349,5.3334,5.3599,5.4409,5.4773,5.5137,5.5568,5.6282,5.6699,5.6699,5.6415,5.5719,5.4541,5.4906,5.4806,5.4045,5.5667,5.7111,5.8273,5.8648,5.8681,5.8457,5.6877,5.6315,0.0,0.0,0.0,0.0,0.0,0.0,1.838,1.8387,1.8348,0.0,0.0,0.0,0.0,0.0,0.0,0.0,0.0,0.0,0.0,0.0,0.0,0.0,0.0,0.0,0.0,2.5344,2.5724,2.5793,2.6415,2.6984,2.7364,2.7461,2.7228,2.6632,2.6604,2.6333,2.582,2.6136,2.6754,2.7659,2.7703,2.8408,2.9651,2.9305,2.9973,3.1365,3.1365,3.2243,3.3723,3.4466,3.543,3.6472,3.7196,3.7495,3.7495,3.7495,3.7969,3.8697,3.9281,4.004,4.0798,4.1415,4.1605,4.1858,4.328,4.3706,4.4004,4.5394,4.6297,4.6961,4.7719,4.8383,4.9078,4.9722,4.9912,4.9912,4.9912,4.9912,5.0018,5.0486,5.1172,5.1725,5.1813,5.214,5.2391,5.2391,5.297,5.3415,5.3515,5.4078,5.4574,5.474,5.527,5.5634,5.5733,5.6316,5.6666,5.6581,5.5965,5.5237,5.4409,5.4475,5.4177,5.3515,5.5634,5.7185,5.8089,5.807,5.7897,5.7572,5.6145,5.5864,0.0,0.0,0.0,0.0,0.0,0.0,1.8568,1.8389,1.8206,0.0,0.0,0.0,0.0,0.0,0.0,0.0,0.0,0.0,0.0,0.0,0.0,0.0,0.0,0.0,0.0,2.4096,2.4652,2.5154,2.6198,2.6442,2.5588,2.5995,2.5968,2.5357,2.5357,2.5276,2.5181,2.5916,2.6651,2.7383,2.7863,2.878,2.9975,2.9663,3.0352,3.178,3.178,3.2391,3.3473,3.4746,3.5688,3.6472,3.7196,3.7495,3.7495,3.7495,3.8285,3.9313,3.9439,4.0324,4.1447,4.1573,4.1605,4.1858,4.328,4.3706,4.4004,4.5394,4.6297,4.6961,4.7719,4.8383,4.9078,4.9722,4.9912,4.9912,4.9912,4.9912,5.0097,5.0851,5.1135,5.1359,5.1725,5.214,5.2391,5.2391,5.297,5.3614,5.421,5.4409,5.4939,5.615,5.5866,5.5833,5.6415,5.6633,5.6448,5.5833,5.5667,5.5005,5.368,5.4177,5.4442,5.4276,5.6921,5.8203,5.8089,5.7955,5.732,5.6252,5.5749,5.5684,0.0,0.0,0.0,1.9404,0.0,0.0,0.0,1.9031,1.8921,0.0,0.0,0.0,0.0,0.0,0.0,0.0,0.0,0.0,0.0,0.0,0.0,0.0,0.0,0.0,0.0,2.2862,2.3459,2.4055,2.4665,2.499,2.5018,2.529,2.5453,2.5453,2.5453,2.5388,2.5244,2.5827,2.6565,2.7486,2.7498,2.8254,2.9582,2.9276,2.998,3.145,3.1574,3.2261,3.339,3.4572,3.54,3.6026,3.7084,3.7495,3.7495,3.7495,3.8159,3.906,3.9376,4.0198,4.1146,4.151,4.1605,4.1858,4.328,4.418,4.4889,4.5584,4.6026,4.655,4.7624,4.813,4.8667,4.9659,4.9912,4.9912,4.9912,4.9912,5.0136,5.0932,5.1083,5.1322,5.1962,5.2266,5.2391,5.2391,5.297,5.368,5.4409,5.4806,5.5468,5.66,5.6382,5.6316,5.6666,5.6699,5.6382,5.5667,5.527,5.4707,5.3978,5.3945,5.4309,5.5038,5.672,5.7509,5.7243,5.7708,5.7412,5.639,5.6578,5.6776,0.0,0.0,0.0,0.0,0.0,2.0705,0.0,0.0,0.0,1.9505,0.0,0.0,0.0,0.0,0.0,0.0,0.0,0.0,0.0,0.0,0.0,0.0,0.0,0.0,0.0,2.1669,2.2198,2.2822,2.2957,2.3445,2.4449,2.4693,2.5046,2.5534,2.5728,2.5722,2.5494,2.5825,2.6525,2.7624,2.706,2.7571,2.9013,2.8683,2.9417,3.1022,3.1176,3.2027,3.3377,3.4244,3.4941,3.5535,3.6958,3.7495,3.7495,3.7495,3.7923,3.8603,3.9281,3.9977,4.0704,4.1367,4.17,4.2048,4.3312,4.4591,4.5615,4.5742,4.5805,4.6089,4.7372,4.7782,4.8225,4.9406,4.9817,4.9912,4.9912,4.9912,5.0136,5.0932,5.1083,5.1378,5.2248,5.2391,5.2391,5.2391,5.297,5.3614,5.421,5.5071,5.5833,5.6415,5.6633,5.6699,5.6699,5.6699,5.6316,5.5435,5.4839,5.4442,5.4276,5.3978,5.4442,5.58,5.6441,5.6704,5.6627,5.7722,5.772,5.6765,5.7475,5.7999,0.0,0.0,0.0,0.0,2.1245,0.0,0.0,0.0,2.0032,1.9734,0.0,0.0,0.0,0.0,0.0,0.0,0.0,0.0,0.0,0.0,0.0,0.0,0.0,0.0,0.0,0.0,2.094,2.1548,2.2103,2.2468,2.2603,2.3621,2.4245,2.4299,2.5107,2.5535,2.5494,2.6002,2.6627,2.7341,2.6966,2.749,2.8725,2.8101,2.8989,3.1005,3.1011,3.1913,3.3359,3.4058,3.4753,3.5535,3.6958,3.7495,3.7495,3.7495,3.7923,3.8603,3.9281,3.9977,4.0704,4.1367,4.2048,4.2743,4.3467,4.4225,4.4952,4.5615,4.5805,4.5963,4.674,4.7403,4.8098,4.8845,4.9489,4.9912,4.9912,4.9912,5.0136,5.0932,5.1083,5.1378,5.2248,5.2391,5.2391,5.2391,5.297,5.3415,5.3515,5.474,5.5634,5.5733,5.6316,5.6699,5.6699,5.6699,5.6117,5.4707,5.4541,5.421,5.3548,5.4707,5.5733,5.6567,5.7288,5.7597,5.7471,5.8256,5.7841,5.6302,5.7318,5.831,0.0,0.0,0.0,0.0,0.0,0.0,0.0,0.0,2.0544,0.0,0.0,0.0,0.0,0.0,0.0,0.0,0.0,0.0,0.0,0.0,0.0,0.0,0.0,0.0,0.0,0.0,0.0,0.0,0.0,2.1084,2.175,2.2416,2.3271,2.4367,2.4898,2.5406,2.5947,2.6416,2.6962,2.7531,2.727,2.76,2.844,2.7934,2.8815,3.0786,3.0931,3.1861,3.3403,3.4492,3.5124,3.5535,3.6958,3.7495,3.7495,3.7495,3.8159,3.9123,3.9408,4.023,4.1209,4.151,4.2111,4.2838,4.3485,4.418,4.4857,4.5584,4.5805,4.5931,4.6645,4.734,4.8067,4.875,4.9426,4.9912,4.9912,5.0077,5.0428,5.1003,5.1322,5.1707,5.2302,5.2391,5.2391,5.2391,5.2656,5.3102,5.3945,5.4574,5.5303,5.615,5.615,5.6249,5.6666,5.5918,5.5137,5.4541,5.4508,5.4541,5.4674,5.5686,5.6382,5.6699,5.6998,5.7346,5.7716,5.826,5.8633,5.8799,5.9163,5.9553,2.1007,0.0,0.0,0.0,0.0,0.0,0.0,0.0,0.0,0.0,0.0,0.0,0.0,0.0,0.0,0.0,0.0,0.0,0.0,0.0,0.0,0.0,0.0,0.0,0.0,0.0,0.0,0.0,1.9358,1.9809,2.0638,2.1376,2.2404,2.3676,2.4684,2.5491,2.6105,2.6811,2.7371,2.7753,2.7607,2.7727,2.8057,2.7846,2.8753,3.0459,3.0755,3.1827,3.3403,3.4604,3.5219,3.5535,3.6736,3.7337,3.7495,3.7495,3.8127,3.8997,3.9376,4.0419,4.1605,4.1605,4.1953,4.2522,4.3217,4.3895,4.4591,4.5317,4.5647,4.59,4.6392,4.7214,4.8035,4.8509,4.9299,4.9912,4.9912,5.0214,5.0621,5.1008,5.1322,5.1645,5.204,5.2259,5.2391,5.2391,5.2391,5.2855,5.4045,5.4376,5.4906,5.5984,5.58,5.5733,5.6051,5.5123,5.4508,5.4508,5.4707,5.5038,5.5601,5.6316,5.6699,5.6699,5.6699,5.6964,5.7495,5.7805,5.8663,6.0064,6.022,6.0527,0.0,0.0,0.0,2.173,0.0,0.0,0.0,0.0,2.1987,0.0,0.0,0.0,0.0,0.0,0.0,0.0,0.0,0.0,0.0,0.0,0.0,0.0,0.0,0.0,0.0,0.0,0.0,1.7957,1.851,1.8836,1.8891,2.074,2.1701,2.1503,2.4385,2.5854,2.5609,2.7121,2.7892,2.7879,2.7904,2.7735,2.7429,2.7748,2.867,3.0033,3.0459,3.1654,3.334,3.4036,3.4776,3.5472,3.617,3.688,3.7495,3.7495,3.7541,3.7748,3.9029,4.0419,4.1605,4.1605,4.1637,4.1763,4.2522,4.3186,4.3881,4.4559,4.5236,4.5805,4.5837,4.6866,4.7909,4.794,4.8932,4.9912,4.9912,5.0214,5.0621,5.1008,5.0898,5.0856,5.1278,5.1927,5.2391,5.2391,5.2391,5.2656,5.3349,5.4045,5.4508,5.4574,5.5204,5.5336,5.4641,5.4541,5.4508,5.4508,5.517,5.5568,5.5601,5.6316,5.6699,5.6699,5.6699,5.6732,5.6732,5.6738,5.7346,5.8508,5.9602,6.0898,0.0,0.0,2.1385,2.173,0.0,0.0,0.0,0.0,0.0,0.0,0.0,0.0,0.0,0.0,0.0,0.0,0.0,0.0,0.0,0.0,0.0,0.0,0.0,0.0,0.0,0.0,0.0,1.7322,1.7875,1.8426,0.0,2.0184,2.1271,2.2154,2.4139,2.5491,2.6112,2.7295,2.7898,2.7898,2.8186,2.8234,2.8131,2.7978,2.8971,3.0804,3.0646,3.1636,3.334,3.4004,3.4731,3.5472,3.6139,3.6833,3.7495,3.7495,3.778,3.8365,3.9756,4.083,4.1605,4.1605,4.1605,4.1731,4.249,4.3169,4.3846,4.451,4.5236,4.5805,4.5805,4.6834,4.7909,4.7909,4.8901,4.9959,5.0234,5.0621,5.104,5.1485,5.1298,5.1158,5.128,5.1894,5.2391,5.2391,5.3202,5.3864,5.4111,5.4343,5.4508,5.4508,5.4276,5.4243,5.4475,5.4508,5.4707,5.5204,5.5468,5.5833,5.6316,5.6547,5.6699,5.6699,5.6699,5.6931,5.7428,5.7334,5.8189,5.9927,5.9684,6.0044,2.0561,2.0942,0.0,2.1562,2.1952,0.0,2.2313,0.0,0.0,0.0,0.0,0.0,0.0,0.0,0.0,0.0,0.0,0.0,0.0,1.6018,0.0,0.0,0.0,0.0,0.0,0.0,1.7431,1.7041,1.7707,1.8388,0.0,0.0,2.1101,2.212,2.4025,2.5301,2.5937,2.7388,2.8075,2.7973,2.8489,2.863,2.8499,2.8379,2.9292,3.098,3.0867,3.1752,3.3372,3.4302,3.4966,3.5503,3.6437,3.7069,3.7495,3.7495,3.8096,3.9013,4.0198,4.1051,4.1605,4.1605,4.1605,4.17,4.2174,4.2979,4.3783,4.4225,4.5047,4.5805,4.5805,4.6834,4.7909,4.7909,4.8901,4.9959,5.0234,5.0736,5.1191,5.1503,5.1191,5.1,5.1231,5.1894,5.2391,5.2391,5.3367,5.421,5.4475,5.4276,5.4111,5.4111,5.368,5.3581,5.4078,5.4607,5.5104,5.5568,5.5833,5.6216,5.6699,5.6699,5.6964,5.7475,5.6964,5.7196,5.8171,5.7811,5.8373,5.9875,5.9495,5.9601]},{"header":{"parameterUnit":"m.s-1","parameterCategory":1,"la1":30.6,"la2":29.2853,"lo1":-89.7004,"lo2":-87.6739,"dy":0.0162,"dx":0.0183,"nx":112,"ny":82,"refTime":"2024-03-27T12:00:00:Z","depth":0,"parameterNumber":3,"parameterNumberName":"V-component_of_WINDS"},"data":[0.0,0.0,0.0,0.0,0.0,0.0,0.0,0.0,0.0,0.0,0.0,0.0,0.0,0.0,0.0,0.0,0.0,0.0,0.0,0.0,0.0,0.0,0.0,0.0,0.0,0.0,0.0,0.0,0.0,0.0,0.0,0.0,0.0,0.0,0.0,0.0,0.0,0.0,0.0,0.0,0.0,0.0,0.0,0.0,0.0,0.0,0.0,0.0,0.0,0.0,0.0,0.0,0.0,0.0,0.0,0.0,0.0,0.0,0.0,0.0,0.0,0.0,0.0,0.0,0.0,0.0,0.0,0.0,0.0,0.0,0.0,0.0,0.0,0.0,0.0,0.0,0.0,0.0,0.0,0.0,0.0,0.0,0.0,0.0,0.0,0.0,0.0,0.0,0.0,0.0,0.0,0.4574,0.6401,0.7738,0.807,0.9017,0.9378,0.8866,0.0,0.0,0.0,0.0,0.0,0.0,0.0,0.0,0.0,0.0,0.0,0.0,0.0,0.0,0.0,0.0,0.0,0.0,0.0,0.0,0.0,0.0,0.0,0.0,0.0,0.0,0.0,0.0,0.0,0.0,0.0,0.0,0.0,0.0,0.0,0.0,0.0,0.0,0.0,0.0,0.0,0.0,0.0,0.0,0.0,0.0,0.0,0.0,0.0,0.0,0.0,0.0,0.0,0.0,0.0,0.0,0.0,0.0,0.0,0.0,0.0,0.0,0.0,0.0,0.0,0.0,0.0,0.0,0.0,0.0,0.0,0.0,0.0,0.0,0.0,0.0,0.0,0.0,0.0,0.0,0.0,0.0,0.0,0.0,0.0,0.0,0.0,0.0,0.0,0.0,0.0,0.0,0.0,0.0,0.0,0.0,0.0,0.0,0.0,0.0,0.0,0.0,0.0,0.0,0.4715,0.5801,0.7217,0.8204,0.8488,0.9179,0.957,0.9472,0.0,0.0,0.0,0.0,0.0,0.0,0.0,0.0,0.0,0.0,0.0,0.0,0.0,0.0,0.0,0.0,0.0,0.0,0.0,0.0,0.0,0.0,0.0,0.0,0.0,0.0,0.0,0.0,0.0,0.0,0.0,0.0,0.0,0.0,0.0,0.0,0.0,0.0,0.0,0.0,0.0,0.0,0.0,0.0,0.0,0.0,0.0,0.0,0.0,0.0,0.0,0.0,0.0,0.0,0.0,0.0,0.0,0.0,0.0,0.0,0.0,0.0,0.0,0.0,0.0,0.0,0.0,0.0,0.0,0.0,0.0,0.0,0.0,0.0,0.0,0.0,0.0,0.0,0.0,0.0,0.0,0.0,0.0,0.0,0.0,0.0,0.0,0.0,0.0,0.0,0.0,0.0,0.0,0.0,0.0,0.0,0.0,0.0,0.0,0.0,0.0,0.0,0.0,0.4935,0.5502,0.6386,0.7636,0.8487,0.868,0.9392,0.9753,0.9622,0.9163,0.0,0.0,0.0,0.0,0.0,0.0,0.0,0.0,0.0,0.0,0.0,0.0,0.0,0.0,0.0,0.0,0.0,0.0,0.0,0.0,0.0,0.0,0.0,0.0,0.0,0.0,0.0,0.0,0.0,0.0,0.0,0.0,0.0,0.0,0.0,0.0,0.0,0.0,0.0,0.0,0.0,0.0,0.0,0.0,0.0,0.0,0.0,0.0,0.0,0.0,0.0,0.0,0.0,0.0,0.0,0.0,0.0,0.0,0.0,0.0,0.0,0.0,0.0,0.0,0.0,0.0,0.0,0.0,0.0,0.0,0.0,0.0,0.0,0.0,0.0,0.0,0.0,0.0,0.0,0.0,0.0,0.0,0.0,0.0,0.0,0.0,0.0,0.0,0.0,0.0,0.0,0.0,0.0,0.0,0.0,0.0,0.0,0.0,0.0,0.0,0.0,0.0,0.5576,0.6192,0.6779,0.7923,0.8723,0.8921,0.9433,0.9771,0.9801,0.9381,0.0,0.0,0.0,0.0,0.0,0.0,0.0,0.0,0.0,0.0,0.0,0.0,0.0,0.0,0.0,0.0,0.0,0.0,0.0,0.0,0.0,0.0,0.0,0.0,0.0,0.0,0.0,0.0,0.0,0.0,0.0,0.0,0.0,0.0,0.0,0.0,0.0,0.0,0.0,0.0,0.0,0.0,0.0,0.0,0.0,0.0,0.0,0.0,0.0,0.0,0.0,0.0,0.0,0.0,0.0,0.0,0.0,0.0,0.0,0.0,0.0,0.0,0.0,0.0,0.0,0.0,0.0,0.0,0.0,0.0,0.0,0.0,0.0,0.0,0.0,0.0,0.0,0.0,0.0,0.0,0.0,0.0,0.0,0.0,0.0,0.0,0.0,0.0,0.0,0.0,0.0,0.0,0.0,0.0,0.0,0.0,0.0,0.0,0.0,0.0,0.0,0.0,0.5613,0.6455,0.7182,0.8175,0.8949,0.9319,0.9126,0.9399,1.0365,0.9659,0.0,0.0,0.0,0.0,0.0,0.0,0.0,0.0,0.0,0.0,0.0,0.0,0.0,0.0,0.0,0.0,0.0,0.0,0.0,0.0,0.0,0.0,0.0,0.0,0.0,0.0,0.0,0.0,0.0,0.0,0.0,0.0,0.0,0.0,0.0,0.0,0.0,0.0,0.0,0.0,0.0,0.0,0.0,0.0,0.0,0.0,0.0,0.0,0.0,0.0,0.0,0.0,0.0,0.0,0.0,0.0,0.0,0.0,0.0,0.0,0.0,0.0,0.0,0.0,0.0,0.0,0.0,0.0,0.0,0.0,0.0,0.0,0.0,0.0,0.0,0.0,0.0,0.0,0.0,0.0,0.0,0.0,0.0,0.0,0.0,0.0,0.0,0.0,0.0,0.0,0.0,0.0,0.0,0.0,0.0,0.0,0.0,0.0,0.0,0.0,0.0,0.0,0.6199,0.7178,0.0,0.8645,0.9349,0.9511,0.9529,0.98,1.0464,0.0,0.0,0.0,0.0,0.0,0.0,0.0,0.0,0.0,0.0,0.0,0.0,0.0,0.0,0.0,0.0,0.0,0.0,0.0,0.0,0.0,0.0,0.0,0.0,0.0,0.0,0.0,0.0,0.0,0.0,0.0,0.0,0.0,0.0,0.0,0.0,0.0,0.0,0.0,0.0,0.0,0.0,0.0,0.0,0.0,0.0,0.0,0.0,0.0,0.0,0.0,0.0,0.0,0.0,0.0,0.0,0.0,0.0,0.0,0.0,0.0,0.0,0.0,0.0,0.0,0.0,0.0,0.0,0.0,0.0,0.0,0.0,0.0,0.0,0.0,0.0,0.0,0.0,0.0,0.0,0.0,0.0,0.0,0.0,0.0,0.0,0.0,0.0,0.0,0.0,0.0,0.0,0.0,0.0,0.0,0.0,0.0,0.0,0.0,0.0,0.0,0.0,0.526,0.6622,0.7651,0.0,0.8909,0.9572,0.9482,0.9512,0.9779,1.0301,0.0,0.0,0.0,0.0,0.0,0.0,0.0,0.0,0.0,0.0,0.0,0.0,0.0,0.0,0.0,0.0,0.0,0.0,0.0,0.0,0.0,0.0,0.0,0.0,0.0,0.0,0.0,0.0,0.0,0.0,0.0,0.0,0.0,0.0,0.0,0.0,0.0,0.0,0.0,0.0,0.0,0.0,0.0,0.0,0.0,0.0,0.0,0.0,0.0,0.0,0.0,0.0,0.0,0.0,0.0,0.0,0.0,0.0,0.0,0.0,0.0,0.0,0.0,0.0,0.0,0.0,0.0,0.0,0.0,0.0,0.0,0.0,0.0,0.0,0.0,0.0,0.0,0.0,0.0,0.0,0.0,0.0,0.0,0.0,0.0,0.0,0.0,0.0,0.0,0.0,0.0,0.0,0.0,0.0,0.0,0.0,0.0,0.0,0.0,0.0,0.0,0.0,0.5474,0.6795,0.7757,0.7894,0.8922,0.9497,0.9229,0.8967,0.9154,0.0,0.0,0.0,0.0,0.0,0.0,0.0,0.0,0.0,0.0,0.0,0.0,0.0,0.0,0.0,0.0,0.0,0.0,0.0,0.0,0.0,0.0,0.0,0.0,0.0,0.0,0.0,0.0,0.0,0.0,0.0,0.0,0.0,0.0,0.0,0.0,0.0,0.0,0.0,0.0,0.0,0.0,0.0,0.0,0.0,0.0,0.0,0.0,0.0,0.0,0.0,0.0,0.0,0.0,0.0,0.0,0.0,0.0,0.0,0.0,0.0,0.0,0.0,0.0,0.0,0.0,0.0,0.0,0.0,0.0,0.0,0.0,0.0,0.0,0.0,0.0,0.0,0.0,0.0,0.0,0.0,0.0,0.0,0.0,0.0,0.0,0.0,0.0,0.0,0.0,0.0,0.0,0.0,0.0,0.0,0.0,0.0,0.0,0.0,0.0,0.0,0.0,0.0,0.6176,0.7063,0.7897,0.8606,0.9223,0.9546,0.9425,0.9248,0.9465,1.0176,0.0,0.0,0.0,0.0,0.0,0.0,0.0,0.0,0.0,0.0,0.0,0.0,0.0,0.0,0.0,0.0,0.0,0.0,0.0,0.0,0.0,0.0,0.0,0.0,0.0,0.0,0.0,0.0,0.0,0.0,0.0,0.0,0.0,0.0,0.0,0.0,0.0,0.0,0.0,0.0,0.0,0.0,0.0,0.0,0.0,0.0,0.0,0.0,0.0,0.0,0.0,0.0,0.0,0.0,0.0,0.0,0.0,0.0,0.0,0.0,0.0,0.0,0.0,0.0,0.0,0.0,0.0,0.0,0.0,0.0,0.0,0.0,0.0,0.0,0.0,0.0,0.0,0.0,0.0,0.0,0.0,0.0,0.0,0.0,0.0,0.0,0.0,0.0,0.0,0.0,0.0,0.0,0.0,0.0,0.0,0.0,0.0,0.0,0.0,0.0,0.0,0.0,0.6605,0.7323,0.8076,0.8909,0.9368,0.9527,0.9311,0.9299,0.9472,0.9872,0.0,0.0,0.0,0.0,0.0,0.0,0.0,0.0,0.0,0.0,0.0,0.0,0.0,0.0,0.0,0.0,0.0,0.0,0.0,0.0,0.0,0.0,0.0,0.0,0.0,0.0,0.0,0.0,0.0,0.0,0.0,0.0,0.0,0.0,0.0,0.0,0.0,0.0,0.0,0.0,0.0,0.0,0.0,0.0,0.0,0.0,0.0,0.0,0.0,0.0,0.0,0.0,0.0,0.0,0.0,0.0,0.0,0.0,0.0,0.0,0.0,0.0,0.0,0.0,0.0,0.0,0.0,0.0,0.0,0.0,0.0,0.0,0.0,0.0,0.0,0.0,0.0,0.0,0.0,0.0,0.0,0.0,0.0,0.0,0.0,0.0,0.0,0.0,0.0,0.0,0.0,0.0,0.0,0.0,0.0,0.0,0.0,0.0,0.0,0.0,0.0,0.0,0.6876,0.7587,0.8292,0.8987,0.9394,0.9454,0.9084,0.9206,0.9313,0.9333,0.0,0.0,0.0,0.0,0.0,0.0,0.0,0.0,0.0,0.0,0.0,0.0,0.0,0.0,0.0,0.0,0.0,0.0,0.0,0.0,0.0,0.0,0.0,0.0,0.0,0.0,0.0,0.0,0.0,0.0,0.0,0.0,0.0,0.0,0.0,0.0,0.0,0.0,0.0,0.0,0.0,0.0,0.0,0.0,0.0,0.0,0.0,0.0,0.0,0.0,0.0,0.0,0.0,0.0,0.0,0.0,0.0,0.0,0.0,0.0,1.0595,0.0,0.0,0.0,0.0,0.0,0.0,0.0,0.0,0.0,0.0,0.0,0.0,0.0,0.0,0.0,0.0,0.0,0.0,0.0,0.0,0.0,0.0,0.0,0.0,0.0,0.0,0.0,0.0,0.0,0.0,0.0,0.0,0.0,0.0,0.0,0.0,0.0,0.0,0.0,0.0,0.0,0.7541,0.7973,0.8497,0.9375,0.9549,0.9542,0.9402,0.933,0.9401,0.9606,0.0,0.0,0.0,0.0,0.0,0.0,0.0,0.0,0.0,0.0,0.0,0.0,0.0,0.0,0.0,0.0,0.0,0.0,0.0,0.0,0.0,0.0,0.0,0.0,0.0,0.0,0.0,0.0,0.0,0.0,0.0,0.0,0.0,0.0,0.0,0.0,0.0,0.0,0.0,0.0,0.0,0.0,0.0,0.0,0.0,0.0,0.0,0.0,0.0,0.0,0.0,0.0,0.0,0.0,0.0,0.0,0.0,0.0,0.0,0.0,0.0,1.1689,0.0,0.0,0.0,0.0,0.0,0.0,0.0,0.0,0.0,0.0,0.0,0.0,0.0,0.0,0.0,0.0,0.0,0.0,0.0,0.0,0.0,0.0,0.0,0.0,0.0,0.0,0.0,0.0,0.0,0.0,0.0,0.0,0.0,0.0,0.0,0.0,0.0,0.0,0.0,0.0,0.7751,0.8188,0.8704,0.9504,0.9601,0.9623,0.9693,0.9639,0.961,0.9642,0.9764,0.0,0.0,0.0,0.0,0.0,0.0,0.0,0.0,0.0,0.0,0.0,0.0,0.0,0.0,0.0,0.0,0.0,0.0,0.0,0.0,0.0,0.0,0.0,0.0,0.0,0.0,0.0,0.0,0.0,0.0,0.0,0.0,0.0,0.0,0.0,0.0,0.0,0.0,0.0,0.0,0.0,0.0,0.0,0.0,0.0,0.0,0.0,0.0,0.0,0.0,0.0,0.0,0.0,1.3847,1.4232,1.4412,1.4641,1.4678,1.4506,1.3771,1.2768,1.1685,0.0,0.0,0.0,0.0,0.0,0.0,0.0,0.0,0.0,0.0,0.0,0.0,0.0,0.0,0.0,0.0,0.0,0.0,0.0,0.0,0.0,0.0,0.0,0.0,0.0,0.9925,0.9723,0.0,0.0,0.0,0.0,0.0,0.0,0.0,0.0,0.0,0.0,0.0,0.0,0.7974,0.846,0.8937,0.9546,0.9601,0.9691,0.9893,0.9913,0.9858,0.973,0.9961,0.9905,0.0,0.0,0.0,0.0,0.0,0.0,0.0,0.0,0.0,0.0,0.0,0.0,0.0,0.0,0.0,0.0,0.0,0.0,0.0,0.0,0.0,0.0,0.0,0.0,0.0,0.0,0.0,0.0,0.0,0.0,0.0,0.0,1.2712,1.2495,0.0,0.0,0.0,0.0,0.0,0.0,0.0,0.0,0.0,0.0,0.0,0.0,0.0,0.0,1.5322,1.4977,1.4847,1.4897,1.578,1.5695,1.4768,1.6004,1.6181,1.5504,1.5388,0.0,1.3232,1.2626,0.0,0.0,0.0,0.0,0.0,0.0,0.0,0.0,0.0,0.0,0.0,0.0,0.0,0.0,0.0,0.0,0.0,0.0,0.0,0.0,0.0,0.0,1.0337,1.034,1.0412,1.0384,0.0,0.9916,0.9892,0.9892,0.0,0.0,0.0,0.0,0.0,0.0,0.0,0.0,0.8764,0.9023,0.924,0.9572,0.9601,0.9703,0.9956,0.9931,0.9991,1.0181,1.0142,1.0211,1.0494,1.0545,0.0,0.0,0.0,0.0,0.0,0.0,0.0,0.0,0.0,0.0,0.0,0.0,0.0,0.0,0.0,0.0,0.0,0.0,0.0,0.0,0.0,0.0,0.0,0.0,0.0,0.0,0.0,0.0,0.0,1.2825,1.3006,1.3307,1.3682,1.3834,0.0,0.0,0.0,0.0,0.0,0.0,0.0,0.0,0.0,1.4706,1.5281,1.5845,1.6326,1.6387,1.6409,1.6449,1.7167,1.734,1.7092,1.7999,1.8215,1.7806,1.7563,1.6842,1.5716,1.4091,1.3372,1.3287,0.0,0.0,0.0,0.0,0.0,1.1735,1.1964,1.1726,0.0,0.0,0.0,0.0,0.0,0.0,0.0,0.0,0.0,0.0,0.0,0.0,0.0,1.1341,1.1751,1.2017,1.1469,1.1291,1.0905,0.0,0.9736,0.9767,0.941,0.0,0.0,0.0,0.0,0.0,0.8948,0.937,0.9687,0.9808,0.9991,1.021,1.048,1.0475,1.0471,1.0515,1.0483,1.0516,1.0684,1.0694,1.0884,0.0,0.0,0.0,0.0,0.0,0.0,0.0,0.0,0.0,0.0,0.0,0.0,0.0,0.0,0.0,0.0,0.0,0.0,0.0,0.0,0.0,0.0,0.0,0.0,0.0,0.0,0.0,0.0,1.3199,1.3437,1.3841,1.4288,1.4506,0.0,0.0,0.0,0.0,0.0,0.0,1.464,1.5642,1.6267,1.6439,1.7666,1.8252,1.8069,1.8421,1.8541,1.8376,1.9058,1.9426,1.9477,2.0011,2.0124,1.9826,1.9375,1.8755,1.7879,1.5682,1.4524,1.4126,1.4002,1.3707,1.3395,1.3745,1.3562,1.3217,1.3651,1.3527,1.3193,1.3361,0.0,1.229,1.1919,0.0,0.0,0.0,0.0,1.1395,1.1366,1.2159,1.292,1.2677,1.3307,1.3779,1.3127,1.2711,1.1944,0.0,0.9968,1.0024,0.9762,0.0,0.0,0.0,0.0,0.9044,0.9238,0.9767,1.0124,1.0123,1.0355,1.0611,1.0892,1.0989,1.1002,1.0849,1.0941,1.0964,1.0864,1.0846,1.099,1.1298,0.0,0.0,0.0,0.0,0.0,0.0,0.0,0.0,0.0,0.0,0.0,0.0,0.0,0.0,0.0,0.0,0.0,0.0,0.0,0.0,0.0,0.0,0.0,0.0,0.0,0.0,0.0,0.0,0.0,1.3674,1.4488,0.0,0.0,0.0,0.0,1.5072,1.55,1.5975,1.6449,1.7485,1.8617,1.9812,2.0465,2.1122,2.1726,2.1809,2.1581,2.1009,2.2059,2.2108,2.1302,2.1817,2.1625,2.0785,2.0336,1.9816,1.9141,1.6983,1.5899,1.5559,1.509,1.4669,1.4341,1.436,1.4377,1.4352,1.3941,1.407,1.4407,1.4353,1.4015,1.3487,1.2833,1.2302,0.0,0.0,1.2209,1.2497,1.2368,1.355,1.4689,1.4357,1.4888,1.5317,1.4729,1.3876,1.2879,0.0,1.0688,1.0097,1.0082,0.0,0.9549,0.9562,0.9824,1.0005,0.9959,1.0253,1.0463,1.0463,1.0496,1.0611,1.0892,1.1242,1.1418,1.1288,1.1639,1.1671,1.1291,1.1271,1.1288,1.1296,1.104,0.0,0.0,0.0,0.0,0.0,0.0,0.0,0.0,0.0,0.0,0.0,0.0,0.0,0.0,0.0,0.0,0.0,0.0,0.0,0.0,0.0,0.0,0.0,0.0,0.0,0.0,0.0,0.0,1.6942,1.7044,0.0,0.0,1.7522,1.7549,1.7857,1.7835,1.8306,1.9383,2.0053,2.0837,2.1818,2.2724,2.3304,2.3538,2.3564,2.3469,2.3264,2.396,2.4103,2.3785,2.3938,2.3665,2.3057,2.2503,2.1868,2.1152,2.0398,1.8827,1.6892,1.6405,1.6015,1.5723,1.5995,1.6078,1.6084,1.5923,1.5963,1.5969,1.5113,1.4671,1.4393,1.3984,1.3443,1.3114,1.3856,1.4072,1.4164,1.4436,1.5385,1.6142,1.5729,1.6305,1.6645,1.5529,1.5082,1.4505,1.3173,1.1737,1.0682,1.0462,1.0316,1.017,0.9965,1.0392,1.0662,1.0423,1.0795,1.1172,1.1432,1.143,1.1431,1.1531,1.1669,1.1731,1.1681,1.1569,1.1669,1.2054,1.1569,1.1418,1.1669,1.133,1.1158,0.0,0.0,0.0,0.0,0.0,0.0,0.0,0.0,0.0,0.0,0.0,0.0,0.0,0.0,0.0,0.0,0.0,0.0,0.0,0.0,0.0,0.0,0.0,0.0,0.0,0.0,1.7434,1.8784,1.89,1.9093,1.9653,1.9518,1.9674,2.0274,2.0251,2.0788,2.2105,2.2781,2.3446,2.4135,2.5183,2.5669,2.5486,2.5477,2.5252,2.4912,2.5409,2.5566,2.5379,2.5324,2.4941,2.4296,2.388,2.3219,2.236,2.236,2.0979,1.8833,1.825,1.7596,1.7047,1.731,1.7443,1.7461,1.7461,1.7358,1.7106,1.6255,1.5816,1.5572,1.54,1.4922,1.4595,1.5374,1.5566,1.5631,1.586,1.6683,1.7331,1.6886,1.7375,1.7677,1.675,1.6274,1.5711,1.4587,1.2907,1.1551,1.1162,1.0997,1.0891,1.08,1.1151,1.1352,1.1089,1.148,1.1811,1.1943,1.2056,1.211,1.211,1.2208,1.2163,1.1924,1.1755,1.1861,1.2283,1.1755,1.166,1.2067,1.1718,1.1541,1.155,0.0,0.0,0.0,0.0,0.0,0.0,0.0,0.0,0.0,0.0,0.0,0.0,0.0,0.0,0.0,0.0,0.0,0.0,0.0,0.0,0.0,0.0,0.0,1.6705,1.8014,1.9008,1.9097,1.9958,2.0381,1.9973,2.0801,2.1617,2.223,2.2727,2.3474,2.4573,2.5615,2.6406,2.6858,2.7902,2.8205,2.7664,2.7583,2.7028,2.599,2.6491,2.6457,2.5948,2.5931,2.5366,2.4365,2.4348,2.3737,2.2782,2.2782,2.2241,2.1391,2.0549,1.9429,1.8263,1.8263,1.8322,1.843,1.8466,1.8128,1.7745,1.7745,1.7429,1.7034,1.7065,1.6719,1.6338,1.6405,1.6679,1.6856,1.6485,1.7363,1.8228,1.7839,1.8096,1.8418,1.8398,1.7444,1.6399,1.5835,1.4207,1.2749,1.2237,1.1876,1.1748,1.2069,1.2117,0.0,1.203,1.2311,1.239,1.2038,1.2333,1.2536,1.2567,1.2846,1.2719,1.1992,1.2224,1.2247,1.1924,1.1848,1.1987,1.2362,1.2141,1.1992,1.1997,0.0,0.0,0.0,0.0,0.0,0.0,0.0,0.0,0.0,0.0,0.0,0.0,0.0,0.0,0.0,0.0,0.0,0.0,0.0,0.0,0.0,0.0,1.8841,1.8841,1.9833,2.1287,2.3241,2.3715,2.4149,2.4797,2.5109,2.5514,2.6105,2.6499,2.7085,2.7945,2.8127,2.8334,2.8586,2.9135,2.9214,2.8845,2.8688,2.8287,2.7713,2.7403,2.7205,2.7053,2.6662,2.6305,2.6026,2.5623,2.5046,2.436,2.436,2.3781,2.273,2.1543,2.0445,1.9575,1.9575,1.9397,1.9167,1.9496,1.9164,1.858,1.858,1.8294,1.8018,1.8414,1.7869,1.7343,1.8516,1.8391,1.7978,1.8253,1.8614,1.8861,1.8734,1.8812,1.8812,1.846,1.8118,1.7627,1.6801,1.5889,1.4838,1.3493,1.2948,1.2629,1.2485,1.2636,0.0,1.2452,1.2684,1.32,1.4069,1.3678,1.3514,1.3854,1.3658,1.3269,0.0,1.2556,1.2432,1.2345,1.2039,1.1906,1.1965,1.199,1.1989,0.0,0.0,0.0,0.0,0.0,0.0,0.0,0.0,0.0,0.0,0.0,0.0,0.0,0.0,0.0,0.0,0.0,0.0,0.0,0.0,0.0,0.0,1.9614,2.1325,2.2426,2.2892,2.3853,2.5767,2.6384,2.6924,2.7531,2.7811,2.8223,2.8792,2.9002,2.9415,3.0113,3.0033,3.0016,3.0131,3.0315,3.0245,2.9882,2.9528,2.915,2.8769,2.8177,2.7889,2.7872,2.7274,2.6918,0.0,2.6371,2.5913,2.537,2.5105,2.4537,0.0,0.0,0.0,0.0,0.0,1.9937,1.9741,2.0009,1.9939,1.9733,1.9733,1.9607,1.9466,1.9603,1.9066,1.8614,1.9548,1.925,1.8799,1.9472,1.9516,1.945,1.9603,1.9644,1.9561,1.9292,1.923,1.8935,1.7975,0.0,0.0,1.5492,1.4428,1.3767,1.3773,1.376,1.3711,0.0,1.3548,1.386,1.465,1.4265,1.4139,1.4618,1.4393,0.0,0.0,0.0,1.3217,1.3008,1.2942,0.0,0.0,0.0,1.273,0.0,0.0,0.0,0.0,1.0894,1.0219,0.0,0.0,0.0,0.0,0.0,0.0,0.0,0.0,0.0,0.0,0.0,0.0,0.0,0.0,0.0,0.0,2.1962,2.415,2.6566,2.666,2.6736,2.7384,2.836,2.8991,2.8991,2.9522,3.0078,3.0555,3.0633,3.0885,3.1367,0.0,0.0,0.0,0.0,3.1199,3.0814,3.0201,2.9733,2.9371,2.8795,2.8508,2.8481,2.7951,2.7445,2.7002,2.6926,2.6532,2.5935,2.5359,2.479,2.4229,2.3502,2.2503,2.1357,2.0538,2.027,0.0,0.0,0.0,0.0,2.1027,2.1055,2.1001,2.0711,2.0304,1.9955,1.9997,1.965,1.9433,2.0206,2.0138,1.9951,2.031,2.0413,2.0413,2.0413,2.0372,2.0065,1.9166,1.8909,1.8559,1.7672,1.6066,1.5071,1.5442,1.5144,1.4894,1.4913,1.4604,1.4433,1.4607,0.0,0.0,1.5111,1.5117,1.4892,1.4493,1.4421,1.4209,1.3783,1.4103,1.4045,1.3577,1.3878,1.3749,1.3122,1.3358,1.3149,1.2536,1.1734,1.0787,0.0,0.0,0.0,0.0,0.0,0.0,0.0,0.0,0.0,0.0,0.0,0.0,0.0,0.0,0.0,2.3059,2.5459,2.7454,2.8614,2.9913,3.047,2.9834,3.0365,3.0796,3.0796,3.1281,3.1667,3.1775,3.2062,3.2151,3.1965,3.2253,0.0,3.1965,3.1947,3.1784,3.1419,3.0814,3.0333,2.9936,0.0,0.0,2.9109,2.9004,2.89,2.8768,2.83,2.7495,2.6511,2.5945,2.5128,2.4086,2.2725,2.2021,2.1743,2.1192,2.1229,2.1553,2.1553,2.144,2.1358,2.1816,2.1737,2.1551,2.1856,2.1378,0.0,2.1228,2.0764,2.0185,2.0372,2.033,2.0289,2.0392,2.0413,2.0413,2.0413,2.0141,1.9872,1.9665,1.898,1.8342,1.8161,1.7209,1.6377,1.6089,1.571,1.5332,1.5019,1.4905,1.5167,1.5923,1.5649,1.5621,1.6077,1.5787,1.5362,1.491,1.4537,1.4279,1.4181,1.4148,1.4091,1.3989,1.3802,1.3765,1.3885,1.3106,1.2777,1.2889,1.2073,1.1309,0.0,0.0,0.0,0.0,0.0,0.0,0.0,0.0,0.0,0.0,0.0,2.0322,2.0987,0.0,2.4058,2.5892,2.7897,2.9541,3.0477,3.1761,3.2295,3.1512,3.192,3.2279,3.2279,3.2538,3.2713,3.2713,3.2892,3.2909,3.2713,3.2892,3.2909,3.2713,3.2713,3.2507,3.2146,3.1847,3.1406,3.0824,3.0261,2.989,2.9693,2.9423,2.9292,2.9266,2.8978,2.8532,2.7924,2.7102,2.6089,2.4963,2.3626,2.2923,2.2582,2.2127,2.2104,2.2294,2.2294,2.2337,2.2434,2.2706,2.2709,2.2604,2.2604,2.2159,2.1686,2.1923,2.1357,2.082,2.1282,2.1076,2.0806,2.1033,2.1095,2.1095,2.1095,2.0948,2.0739,2.0511,2.0032,1.9631,1.939,1.8797,1.8025,1.7045,1.6724,1.6547,1.6361,1.6151,1.6183,1.664,1.6312,1.6139,1.6367,1.6374,1.6256,1.6028,1.5756,1.5504,1.5249,1.4935,1.4728,1.4658,1.4681,1.4684,1.4597,1.4256,1.3985,1.374,1.3341,1.2565,0.0,0.0,0.0,0.0,0.0,0.0,0.0,0.0,1.9953,2.0901,2.2099,2.3256,2.4175,2.5489,2.6972,2.856,3.0001,3.1182,3.2062,3.2825,3.3111,3.2634,3.2999,3.3308,3.3308,3.3308,3.3308,3.3308,3.3308,3.3308,3.3308,3.3308,3.3308,3.3308,3.321,3.3033,3.2704,3.2632,3.2291,3.169,3.1217,3.0796,3.0469,2.9986,2.9757,2.9713,2.943,2.9236,2.9045,2.803,2.7097,2.6191,2.5155,2.4443,2.3906,2.3035,2.2817,2.2978,2.2868,2.315,2.3568,2.3659,2.3827,2.3946,2.3559,2.3152,2.2842,2.2842,2.2219,2.1699,2.2376,2.1966,2.1435,2.1733,2.1797,2.1797,2.1797,2.1735,2.155,2.1178,2.1013,2.0847,2.0475,2.012,1.9462,1.8094,1.7812,1.7737,1.7688,1.7378,1.7151,1.7151,1.685,1.6643,1.6643,1.6959,1.7151,1.7151,1.7085,1.6816,1.6357,1.5938,1.5643,1.5429,1.5663,1.5635,1.5307,1.5433,1.5168,1.458,1.4521,1.3729,1.9286,1.8261,1.7834,1.8827,1.8926,1.9438,0.0,0.0,2.287,2.434,2.4858,2.5531,2.7043,2.8297,2.959,3.1203,3.2305,3.3007,3.3143,3.3217,3.328,3.3224,3.3252,3.3308,3.3308,3.3308,3.3308,3.3308,3.3308,3.3308,3.3308,3.3308,3.3308,3.3308,3.2962,3.2757,3.2704,3.2345,3.2128,3.2037,3.1983,3.1938,3.1856,3.1511,3.1338,3.1274,2.9903,2.901,2.8435,2.7839,2.7533,2.733,2.6628,2.6282,2.5956,2.3578,2.3276,2.3971,2.3494,2.3677,2.4177,2.4595,2.5058,2.5455,2.5386,2.5095,2.4786,2.4786,2.4161,2.3427,2.3191,2.2679,2.2188,2.1873,2.1797,2.1797,2.1797,2.1468,2.1158,2.1116,2.0765,2.0475,2.0413,2.0372,2.0003,1.906,1.8585,1.8152,1.775,1.7647,1.7626,1.7626,1.7585,1.7544,1.7544,1.7606,1.7626,1.7626,1.7564,1.7285,1.6743,1.6892,1.6741,1.6198,1.5868,1.5826,1.6075,1.5104,1.4702,1.4842,1.4623,1.4107,2.0562,1.9921,1.9719,0.0,2.1063,2.2437,2.3906,2.4773,2.567,2.6958,2.8013,2.8962,2.9987,3.1008,3.1937,0.0,3.3052,3.3308,3.3308,3.3308,3.3308,3.3308,3.3308,3.3308,3.3308,3.3308,3.3308,3.3308,3.3308,3.3308,3.3308,3.3308,3.3308,3.3308,3.3485,3.3414,3.3051,3.3225,3.3027,3.2453,3.2453,3.2327,3.2092,3.1745,3.1477,3.1209,3.0563,2.9962,2.9365,2.9153,2.9036,2.8937,2.7644,2.7513,2.7762,2.5331,2.4705,2.505,2.4824,2.4893,2.5119,2.5283,2.5513,2.5696,2.5696,2.558,2.5464,2.5464,2.5034,2.4448,2.3998,2.3575,2.3113,2.2703,2.2604,2.2604,2.2604,2.2459,2.2315,2.2315,2.217,2.2025,2.2025,2.159,2.1093,2.0739,1.9827,1.9143,1.8957,1.8671,1.8402,1.8133,1.7869,1.7709,1.7709,1.7952,1.8216,1.8506,1.8087,1.7858,1.7896,1.7351,1.7025,1.7006,1.6814,1.6809,1.6891,1.6405,1.5978,1.5587,1.5473,1.515,2.1575,0.0,0.0,2.1849,2.3474,2.5284,2.6095,2.7126,2.8208,2.9464,3.0649,3.1639,3.2194,3.2895,3.3361,3.3308,3.3308,3.3308,3.3308,3.3308,3.3308,3.3308,3.3308,3.3308,3.3308,3.3308,3.3308,3.3308,3.3308,3.3364,3.3561,3.3561,3.3645,3.3831,3.4253,3.4281,3.3831,3.4281,3.4024,3.3096,3.3096,3.2869,3.2399,3.1946,3.1532,3.1161,3.1048,3.0738,3.0354,3.0354,3.0354,3.021,2.8749,2.866,2.91,2.7128,2.6193,2.5899,2.5761,2.5807,2.5922,2.5922,2.6014,2.6109,2.6109,2.6109,2.6109,2.6109,2.5799,2.5371,2.4915,2.4389,2.3865,2.3466,2.3285,2.3204,2.3204,2.3204,2.3204,2.3204,2.3285,2.3346,2.3224,2.2724,2.2305,2.221,2.1257,2.0363,1.9865,1.9492,1.9119,1.8625,1.8402,1.8283,1.8283,1.8605,1.8978,1.9433,1.8966,1.8676,1.8709,1.7948,1.7518,1.7505,1.7471,1.7439,1.74,1.7176,1.6726,1.6108,1.5963,1.5714,2.1768,0.0,2.3138,2.4668,2.6008,2.7312,2.8757,2.9568,3.0438,3.1977,3.2461,3.2772,3.3185,3.3448,3.3536,3.3326,3.3308,3.3308,3.3308,3.3308,3.3308,3.3308,3.3308,3.3308,0.0,3.3308,3.3308,3.3308,3.3308,3.3561,3.4133,3.4161,3.4459,3.5105,3.5161,3.5161,3.5133,3.5161,3.4833,3.4143,3.4143,3.3834,3.3238,3.2435,3.1891,3.1569,3.1161,3.0992,3.0966,3.0966,3.0966,3.0891,3.0196,2.9954,2.9825,2.8589,2.7425,2.6401,2.5876,2.6037,2.649,2.649,2.6772,2.7144,2.7144,2.7144,2.7144,2.7144,2.6818,2.6348,2.5969,2.511,2.4283,2.3885,2.3486,2.3204,2.3204,2.3204,2.3204,2.3204,2.3506,2.3645,2.3265,2.3505,2.3603,2.3223,2.2729,2.1795,2.0031,1.9782,1.9596,1.9139,1.9471,1.9741,1.9741,1.9741,1.9931,2.033,2.0336,1.9837,1.8765,1.8977,1.863,1.7525,1.7443,1.7404,1.74,1.6561,1.6128,1.6087,1.5631,1.5402,2.4195,0.0,2.7072,2.8266,2.9784,3.1228,3.2159,3.2671,3.2978,3.3061,3.2597,3.2106,3.1813,3.1833,3.1992,3.2307,3.3015,3.3501,3.3501,3.3716,3.374,3.3364,3.3308,0.0,0.0,0.0,0.0,3.3308,3.4033,3.4398,3.4207,3.4952,3.5337,3.5208,3.5583,3.5611,3.5189,3.5611,3.5255,3.4189,3.3796,3.3211,3.2471,3.2218,3.1763,3.1179,3.1048,3.0992,3.0992,3.0992,3.0748,3.0266,2.9646,2.9165,2.8692,2.7857,2.7299,2.6955,2.6752,2.6798,2.6958,2.6958,2.7073,2.721,2.721,2.721,2.721,2.721,2.7096,2.6854,2.6404,2.5863,2.5363,2.5239,2.4618,2.4221,2.4868,2.4743,2.4618,2.4929,2.4847,2.468,2.4555,2.4157,2.37,2.3266,2.2791,2.217,2.1257,2.0863,2.0596,2.0452,2.0286,2.0203,2.0203,2.0203,2.0389,2.0827,2.0058,1.958,1.9506,1.8783,1.8221,1.7843,1.7819,1.7928,1.8202,1.7622,1.7208,1.6875,1.6779,1.6547,2.639,2.8348,3.0263,3.1383,3.2841,3.4061,3.4281,3.4437,3.4156,3.2822,3.2191,3.1584,3.0514,3.0335,3.0584,3.1422,3.2191,3.2891,3.352,3.3822,3.3913,3.3645,3.3599,0.0,0.0,0.0,0.0,3.3336,3.4431,3.4967,3.458,3.551,3.5973,3.5855,3.623,3.6239,3.5864,3.6211,3.5883,3.4853,3.3814,3.3127,3.2836,3.249,3.2055,3.1606,3.1328,3.1216,3.1198,3.1048,3.0748,3.0305,2.9941,2.9555,2.9086,2.8195,2.8133,2.8437,2.7786,2.7554,2.7574,2.7817,2.7736,2.7554,2.7554,2.7394,2.721,2.721,2.721,2.7129,2.6839,2.6426,2.6114,2.6114,2.5528,2.5168,2.578,2.5654,2.5528,2.5843,2.578,2.5569,2.5253,2.4619,2.4012,2.3722,2.3412,2.2915,2.2149,2.1797,2.1549,2.1364,2.1075,2.0909,2.0909,2.0744,2.0847,2.1323,2.0503,2.0022,2.0111,1.9255,1.8648,1.8422,1.8422,1.8562,1.8823,1.8396,1.7954,1.7513,1.7558,1.7327,2.8354,3.047,3.2616,3.3932,3.508,3.5726,3.5112,3.4851,3.4043,3.1546,3.1383,3.1132,0.0,0.0,2.9489,3.075,3.1067,3.176,3.3476,3.3771,3.391,0.0,0.0,0.0,0.0,0.0,0.0,3.3484,0.0,3.5244,3.5301,3.5845,3.6446,3.697,3.6998,3.6998,3.6998,3.697,3.6661,3.6089,3.4253,3.3655,3.4153,3.3169,3.2713,3.2632,3.1909,3.1606,3.1587,3.1161,3.0999,3.0936,3.0962,3.0988,3.0818,2.9624,2.9915,3.0646,2.8979,2.8351,2.8431,2.8978,2.8741,2.827,2.827,2.7806,2.7256,2.7256,2.7213,2.721,2.721,2.686,2.6507,2.6528,2.6218,2.5927,2.5969,2.5948,2.5948,2.5969,2.6239,2.6196,2.5337,2.4807,2.4507,2.4507,2.4507,2.4053,2.277,2.2584,2.2397,2.1963,2.1901,2.188,2.188,2.1426,2.1364,2.1838,2.1529,2.1072,2.0565,2.0199,1.9763,1.9222,1.92,1.92,1.9217,1.877,1.8334,1.7961,1.7959,1.7755,3.2213,3.4066,3.5502,3.6366,3.6791,3.681,3.6162,3.4959,3.349,3.1877,3.022,2.8786,0.0,0.0,0.0,3.0277,3.209,0.0,3.4985,3.5867,0.0,0.0,0.0,3.5324,3.4775,3.5255,0.0,0.0,3.5619,3.5991,3.6526,3.709,3.731,3.7017,3.6998,3.6998,3.6998,3.6548,3.6239,3.6089,3.5161,3.4378,3.3743,3.3486,3.2955,3.2237,3.1781,3.1606,3.1587,3.1161,3.071,3.0298,3.0746,3.0652,3.0268,3.0341,3.0564,3.0826,3.0868,3.0555,3.009,2.9864,2.9606,2.9407,2.9407,2.8647,2.7805,2.7805,2.7509,2.721,2.721,2.686,2.659,2.6942,2.6447,2.6095,2.6738,2.6592,2.6467,2.68,2.6426,2.5864,2.5317,2.4807,2.4507,2.4507,2.4507,2.4383,2.4011,2.3722,2.3494,2.3391,2.3039,2.2832,2.2832,2.2418,2.2335,2.2811,2.1214,2.0498,2.1002,1.9698,1.906,1.9183,1.92,1.9316,1.9568,1.9208,1.8941,1.8797,1.8854,1.8789,3.4352,3.5929,3.7161,3.7528,3.7488,3.7025,3.5725,3.4383,3.2712,3.021,2.8592,0.0,0.0,0.0,0.0,0.0,0.0,0.0,3.5104,3.6026,3.638,0.0,3.6543,0.0,3.5648,3.6115,3.6685,0.0,3.6961,3.6872,3.7006,3.7592,3.7634,3.7017,3.6998,3.6998,3.6998,3.6408,3.6211,3.6464,3.5611,3.5022,3.4697,3.4418,3.4002,3.3431,0.0,3.224,3.2203,3.1612,3.1137,3.0855,3.146,3.1468,3.118,3.124,3.1553,3.2021,3.1853,3.2036,3.2212,3.1104,3.0503,3.0097,2.9565,2.874,2.7964,2.7713,2.7417,2.721,2.721,2.7003,2.688,2.7149,2.6841,2.6614,2.7088,2.6983,2.688,2.7149,2.6633,2.6031,2.5591,2.5126,2.4743,2.455,2.4507,2.4507,2.4507,2.4301,2.4157,2.4157,2.3764,2.3515,2.3515,2.308,2.2915,2.3183,2.1624,2.0906,2.1398,2.0082,1.9457,1.968,1.968,1.9778,1.9961,1.9761,1.9582,1.9368,1.9582,1.956,3.5649,3.6859,3.7958,3.7958,3.7564,3.6639,3.4528,3.3271,3.1469,2.7693,0.0,2.6325,2.4857,0.0,2.5819,2.8433,0.0,3.1183,3.4698,3.5537,3.5961,3.6435,3.7322,3.7481,3.6368,3.683,3.7689,3.8757,3.8315,3.7792,3.7261,3.7659,3.7634,3.7017,3.6998,3.6998,3.6998,3.6464,3.6464,3.6998,3.5949,3.5667,3.6089,3.5555,3.5273,3.5124,0.0,0.0,3.3122,3.2326,3.196,3.198,3.2594,3.2823,3.2769,3.2402,3.2879,3.3578,3.2608,3.3209,3.4131,3.2501,3.1475,3.0723,2.968,2.8806,2.8102,2.7555,2.7348,2.7302,2.7233,2.721,2.721,2.721,2.721,2.721,2.721,2.721,2.7213,2.7302,2.6864,2.6407,2.6122,2.5636,2.5147,2.4759,2.4631,2.459,2.459,2.4528,2.4507,2.4507,2.4198,2.3991,2.3991,2.3556,2.3328,2.337,2.2288,2.1676,2.179,2.0789,2.024,2.0292,2.0292,2.0292,2.0292,2.0292,2.0121,1.9785,2.0138,2.0121,3.7538,3.8068,3.8305,3.8305,3.7395,3.5907,3.3781,3.1355,0.0,0.0,2.5381,2.4862,2.4575,2.5705,0.0,2.9433,0.0,0.0,0.0,0.0,3.769,0.0,0.0,0.0,0.0,0.0,0.0,0.0,0.0,0.0,3.8491,3.8096,3.7634,3.7017,3.6998,3.6998,3.6998,3.6914,3.6914,3.6998,3.6801,3.6464,3.6117,3.6005,3.5667,3.5171,0.0,0.0,3.3718,3.3238,3.2829,3.2594,3.3195,3.343,3.3561,3.4397,3.4523,3.4298,3.4585,3.4575,3.4272,3.3517,3.268,3.1985,3.1758,3.0535,2.9114,2.8586,2.8149,2.7759,2.7325,2.721,2.721,2.721,2.721,2.721,2.721,2.721,2.7325,2.7782,2.7111,2.6629,2.6998,2.6346,2.5738,2.5674,2.5337,2.5065,2.5065,2.4735,2.4507,2.4507,2.4425,2.4405,2.4405,2.4012,2.3908,2.4239,2.2389,2.1589,2.2252,2.0704,1.9961,2.0292,2.0292,2.0292,2.0292,2.0292,2.0257,2.0189,2.0257,2.0257,3.8116,3.8408,3.8311,3.7908,3.6497,3.4489,3.2007,0.0,0.0,0.0,2.4351,2.4172,2.4172,0.0,0.0,0.0,0.0,0.0,0.0,0.0,0.0,0.0,0.0,0.0,0.0,0.0,0.0,0.0,0.0,0.0,3.8833,3.7938,3.7308,3.6998,3.6998,3.6998,3.6998,3.6998,3.6998,3.6998,3.6998,3.6857,3.6576,3.6576,3.6408,3.6098,3.5391,0.0,3.438,3.3958,3.3681,3.3639,3.4241,3.4659,3.4972,3.5521,3.5365,3.492,3.5208,3.4661,3.3848,3.359,3.2945,3.2073,3.08,2.9985,2.9274,2.8218,2.7966,2.7895,2.7348,2.721,2.721,2.721,2.721,2.7279,2.7575,2.7621,2.7759,2.8264,2.798,2.766,2.7699,2.7108,2.6559,2.6305,2.5868,2.5564,2.5564,2.5378,2.5025,2.4549,2.4507,2.4507,2.4507,2.4322,2.428,2.4487,2.282,2.2008,2.2385,2.0864,2.0081,2.0314,2.0292,2.0292,2.0292,2.0292,2.0292,2.0292,2.0292,2.0292,3.7987,3.8278,3.8213,3.7487,3.5577,3.3141,3.0301,2.7871,0.0,0.0,2.3467,2.3814,2.3814,0.0,0.0,0.0,0.0,0.0,0.0,0.0,0.0,0.0,0.0,0.0,0.0,0.0,0.0,0.0,0.0,0.0,3.8852,3.7921,3.7275,3.6998,3.6998,3.6998,3.6998,3.6998,3.6998,3.6998,3.7139,3.7195,3.7195,3.7335,3.7335,3.7147,3.6359,0.0,0.0,3.4862,3.4741,3.4816,3.5286,3.5652,3.5966,3.6201,3.5861,3.5291,3.5271,3.4521,3.3516,3.324,3.2673,3.1719,2.9819,2.9452,2.9389,2.8059,2.8012,2.8216,2.7646,2.7532,2.7532,2.7532,2.7532,2.7623,2.8057,2.8147,2.8287,2.8769,2.8769,2.8596,2.8276,2.7811,2.73,2.6825,2.6355,2.6043,2.6043,2.596,2.5606,2.488,2.4693,2.4611,2.4507,2.4507,2.4507,2.4507,2.3171,2.2403,2.2403,2.1064,2.0292,2.0292,2.0292,2.0292,2.0292,2.0292,2.0292,2.0292,2.0292,2.0292,3.7228,3.7876,3.8213,3.7487,3.5234,3.2429,2.9545,0.0,0.0,2.1948,2.2579,2.3541,2.3541,2.442,0.0,0.0,0.0,3.0482,0.0,0.0,0.0,0.0,0.0,0.0,0.0,0.0,0.0,0.0,0.0,0.0,0.0,3.8744,3.8187,3.7046,3.6998,3.6998,3.6998,3.6998,3.6998,3.7026,3.754,3.7821,3.785,3.8432,3.8404,3.7821,0.0,0.0,0.0,3.6401,3.6203,3.594,3.5992,3.5757,3.5495,3.6541,3.6227,3.5279,3.5161,3.4692,3.3933,3.2779,3.1933,3.1337,3.1132,3.0642,3.0032,2.9458,2.932,2.9228,2.87,2.8563,2.8563,2.8563,2.8563,2.8586,2.8632,2.8632,2.8792,2.932,2.9022,2.8671,2.8647,2.8244,2.7771,2.7311,2.6856,2.654,2.654,2.6167,2.5877,2.5794,2.5377,2.4962,2.4528,2.4507,2.4507,2.4507,2.3171,2.2403,2.2403,2.1064,2.0292,2.0292,2.0292,2.0292,2.0292,2.0292,2.0292,2.0292,2.0292,2.0292,3.616,3.6904,3.695,3.6206,3.3906,3.1013,2.8174,0.0,2.339,2.1657,2.2475,2.3504,2.3504,2.4322,2.5696,2.7817,2.7737,0.0,0.0,0.0,0.0,0.0,0.0,0.0,0.0,0.0,0.0,0.0,0.0,0.0,0.0,3.8491,3.7911,3.7046,3.6998,3.7167,3.754,3.7195,3.7392,3.8123,3.7962,3.8102,3.8516,3.8769,3.8741,3.8488,0.0,0.0,0.0,3.7559,3.7537,3.7454,3.717,3.7166,3.7307,3.749,3.6802,3.5765,3.5711,3.4824,3.3622,3.3115,3.2479,3.1775,3.1021,3.0523,3.0032,2.9251,2.9251,2.9366,2.8838,2.87,2.87,2.87,2.87,2.8792,2.9114,2.9183,2.932,2.9825,3.0009,2.9988,2.9657,2.9217,2.873,2.8211,2.7496,2.704,2.704,2.6851,2.6623,2.6353,2.5647,2.5106,2.4941,2.4652,2.4507,2.4507,2.3602,2.2862,2.2425,2.1472,2.0749,2.0314,2.0292,2.0292,2.0292,2.0292,2.0292,2.0292,2.0292,2.0292,3.4347,3.5331,3.5493,3.4761,3.2417,2.9588,0.0,0.0,2.2807,2.156,2.2313,2.3237,2.3472,2.4099,2.5262,2.7359,2.6932,2.7721,3.1743,0.0,0.0,0.0,0.0,0.0,0.0,0.0,0.0,0.0,0.0,0.0,0.0,3.8414,3.7806,3.7017,3.6998,3.7195,3.7625,3.7372,3.7729,3.86,3.8319,3.8544,3.9163,3.9163,3.9163,3.9163,0.0,0.0,0.0,3.8463,3.8547,3.8591,3.7948,3.7963,3.8264,3.761,3.6828,3.6053,3.5855,3.4863,3.3618,3.3424,3.2863,3.2098,3.1037,3.0631,3.0325,2.9387,2.9527,2.9825,2.9274,2.9366,2.9595,2.9412,2.9389,2.9527,3.0055,3.0055,3.0101,3.0583,3.0973,3.1015,3.0306,2.9947,2.9425,2.8576,2.8021,2.7576,2.7327,2.7389,2.7244,2.6664,2.5999,2.5542,2.5418,2.5108,2.4922,2.4922,2.4146,2.3386,2.2641,2.1835,2.1042,2.0314,2.0292,2.0292,2.0292,2.0292,2.0292,2.0292,2.0292,2.0292,3.1672,3.3064,3.3971,3.3303,3.0938,2.8249,0.0,0.0,2.2183,2.1455,2.1884,2.2645,2.3375,2.3706,2.4754,2.7294,2.7358,2.8476,3.253,0.0,0.0,0.0,0.0,0.0,0.0,0.0,0.0,0.0,0.0,0.0,0.0,3.8802,3.8244,3.7046,3.6998,3.6998,3.7026,3.7597,3.7906,3.7934,3.8572,3.9191,3.9781,3.9781,3.9781,0.0,0.0,0.0,0.0,3.9084,3.9163,3.9193,3.8109,3.7718,3.7572,3.6507,3.6123,3.6009,3.5325,3.4698,3.4085,3.3427,3.2791,3.2171,3.1516,3.1294,3.1116,3.0374,3.056,3.0858,3.0308,3.0973,3.164,3.1111,3.0973,3.1134,3.1663,3.1364,3.1157,3.1686,3.1778,3.1443,3.038,3.0209,2.9669,2.8133,2.8317,2.8276,2.741,2.7655,2.7572,2.6685,2.6581,2.6395,2.5939,2.5897,2.5897,2.5897,2.4818,2.3862,2.31,2.2005,2.1042,2.0314,2.0292,2.0292,2.0292,2.0292,2.0292,2.0292,2.0292,2.0292,2.853,2.9405,2.9653,2.947,2.8012,2.6189,2.4524,0.0,2.2183,2.1455,2.1892,2.2612,2.3375,2.394,2.5046,2.7334,2.7586,2.8479,0.0,0.0,0.0,0.0,0.0,0.0,0.0,0.0,0.0,0.0,0.0,0.0,0.0,3.8187,3.7834,3.7017,3.6998,3.7195,3.7597,3.7793,3.8327,3.9219,3.9416,3.9613,3.9809,3.9809,0.0,0.0,0.0,0.0,0.0,4.0193,4.0025,3.9706,3.9052,3.8599,3.8211,3.7111,3.6724,3.6627,3.6011,3.5073,3.4263,3.4528,3.3579,3.2258,3.2064,3.1647,3.1138,3.042,3.0583,3.095,3.079,3.1272,3.1755,3.1594,3.1525,3.1524,3.1755,3.1663,3.1594,3.1755,3.2054,3.1944,3.0842,3.0668,3.0252,2.9027,2.8711,2.8504,2.8214,2.8317,2.8251,2.8007,2.7966,2.7407,2.6022,2.5897,2.5897,2.5897,2.5053,2.4222,2.3533,2.264,2.1795,2.1086,2.1062,2.0942,2.0709,2.0709,2.0709,2.0709,2.0709,2.0823,2.5907,2.6707,2.6901,2.6901,2.5833,2.4524,0.0,0.0,2.1819,2.1231,2.1569,2.2239,2.3105,2.3732,2.4815,2.6976,2.7527,2.8455,0.0,0.0,0.0,0.0,0.0,0.0,0.0,0.0,0.0,0.0,0.0,0.0,0.0,0.0,3.7612,3.7017,3.6998,3.7195,3.754,3.7793,3.8432,3.9444,3.9219,3.9311,3.9781,3.9303,0.0,0.0,0.0,0.0,0.0,4.0435,4.0234,3.9924,3.9,3.8625,3.8401,3.6901,3.6645,3.6862,3.5974,3.5208,3.464,3.4736,3.3493,3.1981,3.2129,3.1714,3.1131,3.0882,3.118,3.1525,3.1341,3.1847,3.2306,3.21,3.203,3.2076,3.2306,3.2215,3.2123,3.2329,3.2605,3.2467,3.1347,3.1171,3.0727,2.9485,2.9208,2.9001,2.8669,2.8748,2.8731,2.8355,2.8479,2.8069,2.6765,2.6806,2.6827,2.6662,2.5755,2.4848,2.3966,2.302,2.215,2.1405,2.1405,2.1302,2.1079,2.1079,2.1079,2.1079,2.1079,2.1199,0.0,2.4774,2.5273,2.5273,2.4321,2.3172,2.2483,0.0,0.0,2.0901,2.1087,2.1649,2.2775,2.3243,2.4188,2.639,2.7304,0.0,0.0,0.0,0.0,0.0,0.0,0.0,0.0,0.0,0.0,0.0,0.0,0.0,0.0,0.0,3.7569,3.7026,3.6998,3.6998,3.6998,3.7597,3.8187,3.8825,3.8291,3.8608,3.9641,3.8496,0.0,0.0,0.0,0.0,0.0,4.0034,3.9899,3.9842,3.8236,3.8032,3.8322,3.614,3.6044,3.6795,3.5414,3.5076,3.5064,3.4038,3.2599,3.1391,3.1845,3.1506,3.1111,3.164,3.2146,3.2398,3.1962,3.2582,3.3155,3.2674,3.2559,3.2673,3.3203,3.2927,3.272,3.3249,3.3363,3.3012,3.1896,3.1691,3.118,2.9631,2.9787,2.9766,2.8876,2.9145,2.9083,2.8189,2.8458,2.852,2.8086,2.8376,2.8396,2.7921,2.6758,2.5547,2.4383,2.3175,2.2167,2.149,2.1456,2.1432,2.1432,2.1398,2.1398,2.1432,2.1432,2.1456,2.1787,0.0,2.2296,2.2296,2.2046,2.1754,0.0,0.0,0.0,0.0,0.0,2.1778,2.33,2.3255,2.3929,2.6902,2.7738,0.0,0.0,0.0,0.0,0.0,0.0,0.0,0.0,0.0,0.0,0.0,0.0,0.0,0.0,0.0,3.7167,3.6998,3.6998,3.6998,3.6998,3.7597,3.799,3.8131,3.8966,3.9022,3.8355,3.8572,0.0,0.0,0.0,0.0,4.0006,3.9866,3.9899,3.9924,3.9169,3.876,3.8375,3.6586,3.6384,3.6743,3.4996,3.4408,3.419,3.2485,3.1618,3.1372,3.167,3.1412,3.1111,3.164,3.2146,3.249,3.2375,3.2835,3.3271,3.3157,3.3111,3.3157,3.3271,3.3203,3.3271,3.3729,3.3821,3.36,3.2867,3.2748,3.2225,3.0615,3.0787,3.087,3.0263,3.0305,3.0284,3.0056,2.9829,2.9622,2.9518,2.8959,2.8396,2.7921,2.6527,2.5435,2.4795,2.3354,2.2502,2.2328,2.2029,2.1867,2.1867,2.1559,2.1559,2.1867,2.1867,2.2004,2.1139,2.1293,2.1293,2.1293,2.1293,2.1293,2.1293,0.0,0.0,0.0,0.0,0.0,2.2628,2.2873,0.0,2.6394,2.7183,0.0,0.0,0.0,0.0,0.0,0.0,0.0,0.0,0.0,0.0,0.0,0.0,0.0,0.0,0.0,3.6998,3.6998,3.6998,3.6998,3.6998,3.7316,3.7625,3.7906,3.8319,3.8319,3.7906,3.7982,0.0,0.0,0.0,0.0,3.9388,3.9388,3.948,3.9538,3.906,3.8598,3.798,3.6259,3.5841,3.5884,3.4259,3.3842,3.3717,3.1889,3.1438,3.1635,3.1714,3.157,3.1525,3.2283,3.2674,3.2881,3.2881,3.3088,3.3317,3.3317,3.3317,3.3363,3.3568,3.3614,3.3775,3.428,3.4142,3.3697,3.2906,3.2731,3.225,3.0921,3.1118,3.1326,3.1056,3.1036,3.0953,3.0719,3.047,3.0222,3.0015,2.9539,2.9042,2.8562,2.7041,2.5958,2.5515,2.3769,2.2749,2.2603,2.2714,2.2672,2.2501,2.2295,2.2381,2.2783,2.2586,2.2732,2.0977,2.1189,2.123,2.1277,2.1254,2.1214,2.1214,0.0,0.0,0.0,0.0,0.0,0.0,0.0,0.0,0.0,0.0,0.0,0.0,0.0,0.0,0.0,0.0,0.0,0.0,0.0,0.0,0.0,0.0,0.0,0.0,0.0,0.0,3.6998,3.6998,3.6998,3.6998,3.6998,3.7279,3.7765,3.7344,3.7344,3.7737,3.7316,3.7372,0.0,0.0,0.0,3.8741,3.8874,3.9019,3.9154,3.8591,3.8211,3.7701,3.5701,3.5029,3.4917,3.3583,3.3299,3.329,3.1878,3.1679,3.1947,3.183,3.1847,3.21,3.3042,3.3317,3.3317,3.3317,3.3317,3.3317,3.3317,3.3317,3.3432,3.3889,3.4004,3.4188,3.4785,3.4479,3.3869,3.3012,3.2684,3.2177,3.1106,3.1318,3.1553,3.1429,3.1443,3.1319,3.0926,3.0843,3.0642,3.0139,3.0098,2.9911,2.9435,2.7891,2.6693,2.6036,2.4189,2.3049,2.2774,2.3392,2.3537,2.3203,2.3177,2.3357,2.3692,2.334,2.3357,2.0273,2.0678,2.0942,2.1222,2.1087,2.0876,2.0876,0.0,0.0,0.0,0.0,0.0,0.0,0.0,0.0,0.0,0.0,0.0,0.0,0.0,0.0,0.0,0.0,0.0,0.0,0.0,0.0,0.0,0.0,0.0,0.0,0.0,0.0,3.6998,3.6998,3.6998,3.6998,3.6998,3.7054,3.7139,3.754,3.754,3.7167,3.7569,3.7512,0.0,0.0,3.7504,3.8102,3.8657,3.9206,3.962,3.8763,3.8673,3.8679,3.5498,3.4673,3.4917,3.3583,3.2738,3.2218,3.1984,3.1855,3.1805,3.1732,3.203,3.2536,3.3134,3.3317,3.3317,3.3317,3.3317,3.3317,3.3317,3.3317,3.3432,3.3889,3.4004,3.428,3.5221,3.5325,3.5199,3.4975,3.4483,3.3664,3.2177,3.2267,3.225,3.1512,3.1712,3.1891,3.1809,3.1505,3.1118,3.0615,3.0574,3.0387,2.9911,2.8643,2.7084,2.5266,2.4175,2.3572,2.352,2.3623,2.3657,2.3606,2.3597,2.3648,2.3699,2.364,2.364,1.9726,2.0099,2.0296,2.0619,2.0588,2.0471,2.0471,0.0,0.0,0.0,0.0,0.0,0.0,0.0,0.0,0.0,0.0,0.0,0.0,0.0,0.0,0.0,0.0,0.0,0.0,0.0,0.0,0.0,0.0,0.0,0.0,0.0,0.0,0.0,3.6323,3.6492,3.6492,3.6202,3.6351,3.6998,3.7279,3.7279,3.7026,3.7307,3.7279,3.6998,0.0,3.7167,3.7456,3.8094,3.8402,3.8394,3.8048,3.7752,3.7155,3.4252,3.3614,3.3947,3.2149,3.1998,3.2464,3.1713,3.1622,3.1847,3.2053,3.2305,3.2628,3.3157,3.3317,3.3317,3.3317,3.3317,3.3338,3.3614,3.3683,3.3889,3.4647,3.4808,3.5037,3.5772,3.5667,3.526,3.4642,3.4255,3.3576,3.2287,3.2433,3.2553,3.2168,3.2264,3.2284,3.2036,3.1829,3.1547,3.1118,3.1077,3.0551,2.9384,2.8324,2.6983,2.5358,2.462,2.412,2.3692,2.4103,2.4179,2.3973,2.3964,2.4066,2.4299,2.4076,2.4093,1.9174,1.9437,1.9542,1.9936,2.0067,2.0115,2.0259,0.0,0.0,0.0,0.0,0.0,0.0,0.0,0.0,0.0,0.0,0.0,0.0,0.0,0.0,0.0,0.0,0.0,0.0,0.0,0.0,0.0,0.0,0.0,0.0,0.0,0.0,0.0,3.5723,3.5977,3.6117,3.5498,3.5808,3.6998,3.6857,3.6857,3.6998,3.6998,3.6998,3.6998,3.6998,3.6998,3.7054,3.7653,3.7645,3.7303,3.7309,3.6506,3.5173,3.3208,3.2872,3.3074,3.122,3.1639,3.2841,3.174,3.1616,3.2031,3.2398,3.2605,3.2764,3.3203,3.3317,3.3317,3.3317,3.3361,3.3545,3.3912,3.4096,3.444,3.5286,3.5493,3.5657,3.619,3.5927,3.5321,3.4339,3.3967,3.3465,3.2385,3.2493,3.2657,3.2553,3.2636,3.2574,3.2202,3.2181,3.1995,3.1567,3.1443,3.0826,2.942,2.8403,2.7349,2.6171,2.5463,2.474,2.3966,2.4521,2.4648,2.434,2.4425,2.4579,2.4785,2.4665,2.4716,1.8523,1.8723,1.8908,1.943,1.9633,0.0,2.0438,2.0665,0.0,0.0,0.0,0.0,0.0,0.0,0.0,0.0,0.0,0.0,0.0,0.0,0.0,0.0,0.0,0.0,0.0,0.0,0.0,0.0,0.0,0.0,0.0,0.0,0.0,0.0,0.0,3.5527,3.6089,3.5498,3.5808,3.6998,3.6436,3.6464,3.6998,3.6998,3.6998,3.6998,3.6998,3.6998,3.7054,3.7653,3.7645,3.7248,3.6825,3.5389,3.3555,3.3248,3.3133,3.2961,3.202,3.2183,3.277,3.2502,3.2421,3.2467,3.249,3.2858,3.3249,3.3294,3.3317,3.3317,3.3317,3.3614,3.3958,3.4004,3.4372,3.4877,3.5378,3.5493,3.5657,3.619,3.6277,3.6036,3.5388,3.483,3.4066,3.3004,3.2776,3.2553,3.2119,3.2429,3.2698,3.2657,3.2657,3.2471,3.1995,3.1609,3.134,3.1196,2.9977,2.8848,2.7961,2.6674,2.5616,2.4744,2.4768,2.4785,2.475,2.5121,2.5121,2.4802,2.5469,2.5634,1.7731,1.793,1.8153,1.9013,0.0,0.0,0.0,0.0,0.0,0.0,0.0,0.0,0.0,0.0,0.0,0.0,0.0,0.0,0.0,0.0,0.0,0.0,0.0,0.0,0.0,0.0,0.0,0.0,0.0,0.0,0.0,0.0,0.0,0.0,0.0,3.4702,3.4927,3.4309,3.4664,3.5892,3.5639,3.5864,3.6436,3.6436,3.6661,3.6998,3.6998,3.6998,3.7026,3.7251,3.7087,3.6676,3.594,3.4727,3.3326,3.2835,3.282,3.2869,3.1343,3.167,3.2724,3.2176,3.2236,3.2558,3.2904,3.3157,3.3317,3.3317,3.3499,3.3729,3.3729,3.3866,3.4165,3.4759,3.5106,3.5382,3.5887,3.6006,3.6075,3.6259,3.5982,3.5543,3.4941,3.4351,3.3663,3.2874,3.2737,3.2636,3.2471,3.2595,3.2698,3.2698,3.2698,3.2636,3.245,3.2284,3.223,3.223,3.0732,2.9703,2.9372,2.7753,2.6698,2.6378,2.5782,2.5486,2.5486,2.5623,2.5623,2.5486,2.5777,2.5828,1.7024,1.7251,1.7591,0.0,0.0,0.0,0.0,0.0,0.0,0.0,0.0,0.0,0.0,0.0,0.0,0.0,0.0,0.0,0.0,0.0,0.0,0.0,0.0,0.0,0.0,0.0,0.0,0.0,0.0,0.0,0.0,0.0,0.0,0.0,0.0,3.402,3.4189,3.3617,3.3814,3.4889,3.4693,3.5048,3.5836,3.5836,3.6033,3.6436,3.6632,3.6717,3.6717,3.6914,3.6693,3.6078,3.512,3.4209,3.3279,3.2326,3.2317,3.2528,3.0995,3.1229,3.216,3.1828,3.1984,3.2375,3.2904,3.318,3.3317,3.3317,3.3637,3.405,3.4211,3.4257,3.4463,3.5286,3.5493,3.5657,3.619,3.6305,3.6305,3.6305,3.5817,3.5212,3.458,3.4009,3.3409,3.2784,3.2698,3.2698,3.2698,3.2698,3.2698,3.2698,3.2698,3.2698,3.2698,3.2698,3.2698,3.2698,3.1592,3.0738,3.0298,2.8625,2.7576,2.7319,2.6388,2.5914,2.5914,2.6016,2.6016,2.5914,2.6153,2.6204,1.6358,1.6728,1.7231,0.0,0.0,0.0,0.0,0.0,0.0,0.0,0.0,0.0,0.0,0.0,0.0,0.0,0.0,0.0,0.0,0.0,0.0,0.0,0.0,0.0,0.0,0.0,0.0,0.0,0.0,0.0,0.0,0.0,0.0,0.0,0.0,0.0,3.4189,3.3617,3.3617,3.4189,3.3589,3.3944,3.5189,3.5189,3.5189,3.5217,3.5836,3.6089,3.6145,3.6745,3.6488,3.5588,3.4454,3.3742,3.3215,3.1825,3.1605,3.1895,3.1229,3.0996,3.1088,3.1617,3.1802,3.1893,3.2375,3.2881,3.3294,3.3317,3.3637,3.4142,3.467,3.4808,3.4923,3.5405,3.5493,3.5657,3.619,3.6305,3.6305,3.6305,3.579,3.5212,3.4602,3.4009,3.3409,3.2784,3.2698,3.2698,3.2698,3.2698,3.2698,3.2698,3.2698,3.2698,3.2698,3.2698,3.2698,3.2698,3.2698,3.2121,3.0755,2.9362,2.8201,2.7347,2.6406,2.5914,2.5914,2.6319,2.6302,2.5931,2.673,2.6897,1.6506,1.6522,0.0,0.0,0.0,0.0,0.0,0.0,0.0,0.0,0.0,0.0,0.0,0.0,0.0,0.0,0.0,0.0,0.0,0.0,0.0,0.0,0.0,0.0,0.0,0.0,0.0,0.0,0.0,0.0,0.0,0.0,0.0,0.0,0.0,0.0,3.3589,3.3392,3.3392,3.3561,3.3392,3.3729,3.4488,3.4488,3.4731,3.5189,3.5386,3.547,3.5452,3.5366,3.546,3.5534,3.403,3.311,3.2522,3.1627,3.1289,3.1205,3.0652,3.0928,3.1525,3.1318,3.1479,3.1893,3.2375,3.2628,3.2835,3.3203,3.3912,3.4601,3.4762,3.506,3.5428,3.5933,3.6075,3.6121,3.6259,3.6305,3.6173,3.5735,3.5185,3.4574,3.3981,3.336,3.2898,3.2727,3.2698,3.2698,3.2698,3.2698,3.2698,3.2698,3.2698,3.2698,3.2698,3.2698,3.2698,3.2698,3.2698,3.2522,3.2121,3.0421,2.9389,2.9127,2.7546,2.673,2.673,2.685,2.688,2.6747,2.7,2.7034,1.5905,0.0,0.0,0.0,0.0,0.0,0.0,0.0,0.0,0.0,0.0,0.0,0.0,0.0,0.0,0.0,0.0,0.0,0.0,0.0,0.0,0.0,0.0,0.0,0.0,0.0,0.0,0.0,0.0,0.0,0.0,0.0,0.0,0.0,0.0,3.3308,3.3308,3.3308,3.3308,3.3308,3.3308,3.3505,3.3824,3.3824,3.4066,3.4468,3.4693,3.4946,3.5171,3.478,3.4604,3.4493,3.3057,3.2127,3.1506,3.0831,3.0624,3.0629,3.0308,3.0629,3.1111,3.079,3.1042,3.157,3.203,3.2328,3.2628,3.3157,3.4004,3.4808,3.4808,3.5313,3.5887,3.6213,3.6144,3.6025,3.6259,3.6305,3.6173,3.5817,3.5074,3.4379,3.4015,3.3247,3.2698,3.2698,3.2698,3.2698,3.2698,3.2698,3.2698,3.2698,3.2698,3.2698,3.2698,3.2698,3.2698,3.2698,3.2698,3.2698,3.2698,3.0898,2.9913,2.9913,2.808,2.7103,2.7103,2.7103,2.7103,2.7103,2.7103,2.7103,1.4974,0.0,0.0,0.0,0.0,0.0,0.0,0.0,0.0,0.0,0.0,0.0,0.0,0.0,0.0,0.0,0.0,0.0,0.0,0.0,0.0,0.0,0.0,0.0,0.0,0.0,0.0,0.0,0.0,0.0,0.0,0.0,0.0,0.0,3.3308,3.3308,3.3308,3.3308,3.3308,0.0,3.3308,3.3308,3.3308,3.3308,3.3308,3.3336,3.388,3.4488,3.5031,3.4566,3.381,3.2837,3.1711,3.0929,3.0349,2.9723,2.978,3.0124,3.017,3.0193,3.0193,3.0193,3.0514,3.1019,3.1547,3.2029,3.2558,3.3203,3.405,3.4808,3.4854,3.5592,3.6305,3.6305,3.591,3.5703,3.619,3.6305,3.6277,3.625,3.5295,3.4469,3.4435,3.3473,3.2698,3.2698,3.2698,3.2698,3.2698,3.2698,3.2698,3.2698,3.2698,3.2698,3.2698,3.2698,3.2698,3.2698,3.2698,3.2698,3.2698,3.0898,2.9913,2.9913,2.808,2.7103,2.7103,2.7103,2.7103,2.7103,2.7103,2.7103,1.5532,1.5925,0.0,0.0,0.0,0.0,0.0,0.0,0.0,0.0,0.0,0.0,0.0,0.0,0.0,0.0,0.0,0.0,0.0,0.0,0.0,0.0,0.0,0.0,0.0,0.0,0.0,0.0,0.0,0.0,0.0,0.0,0.0,3.3308,3.3308,3.3308,3.3308,3.3308,3.3308,0.0,3.3308,3.3308,3.3308,3.3308,3.3308,3.3308,3.3448,3.3663,3.3891,3.2992,3.2581,3.2382,3.0849,3.0125,2.9896,2.9607,2.9573,2.9711,3.0055,3.0193,3.0193,3.0193,3.0262,3.0537,3.1432,3.1776,3.2143,3.3476,3.4303,3.4877,3.5241,3.5818,3.6305,3.6305,3.6213,3.6167,3.6282,3.6305,3.6145,3.568,3.5019,3.4351,3.3868,3.3182,3.2698,3.2698,3.2698,3.2698,3.2698,3.2698,3.2698,3.2698,3.2698,3.2698,3.2698,3.2698,3.2698,3.2698,3.2698,3.2698,3.2698,3.0898,2.9913,2.9913,2.808,2.7103,2.7103,2.7103,2.7103,2.7103,2.7103,2.7103,0.0,0.0,0.0,0.0,0.0,0.0,0.0,0.0,0.0,0.0,0.0,0.0,0.0,0.0,0.0,0.0,0.0,0.0,0.0,0.0,0.0,0.0,0.0,0.0,0.0,0.0,0.0,0.0,0.0,0.0,0.0,3.3308,3.3308,3.3308,3.3308,3.3308,3.3308,3.3308,3.3308,3.3308,3.3308,3.3308,3.3308,3.3308,3.3308,3.329,3.3086,3.3076,3.3109,3.2227,3.1551,3.0986,2.9921,2.9281,2.8932,2.8828,2.9091,2.9527,2.978,3.001,3.0193,3.0193,3.0193,3.0377,3.1433,3.1754,3.203,3.3292,3.4027,3.4463,3.4716,3.5359,3.591,3.591,3.6121,3.6305,3.6305,3.6305,3.6118,3.5516,3.4914,3.4323,3.3699,3.3097,3.2698,3.2698,3.2698,3.2698,3.2698,3.2698,3.2698,3.2698,3.2698,3.2698,3.2698,3.2698,3.2698,3.2698,3.2698,3.2698,3.2698,3.1334,3.0353,2.9913,2.808,2.7103,2.7103,2.7274,2.733,2.733,2.733,2.733,0.0,0.0,0.0,0.0,0.0,0.0,0.0,0.0,0.0,0.0,0.0,0.0,0.0,0.0,0.0,0.0,0.0,0.0,0.0,0.0,0.0,0.0,0.0,0.0,0.0,0.0,0.0,0.0,0.0,0.0,3.314,3.3252,3.3252,3.314,3.3252,3.3252,3.314,3.3252,3.3252,3.314,3.3252,3.3308,3.3308,3.3308,3.3308,3.329,3.2864,3.2668,3.2543,3.1763,3.0696,2.9549,2.9121,2.8497,2.7851,2.7964,2.8538,2.9251,2.9435,2.9757,3.0078,3.017,3.0193,3.0399,3.1479,3.1778,3.2008,3.3111,3.3683,3.4027,3.4119,3.4831,3.5493,3.5493,3.591,3.6305,3.6305,3.6305,3.6118,3.5516,3.4825,3.4155,3.353,3.304,3.2698,3.2698,3.2698,3.2698,3.2698,3.2698,3.2698,3.2698,3.2698,3.2698,3.2698,3.2698,3.2739,3.2822,3.2822,3.2843,3.2926,3.2047,3.1182,3.0388,2.8373,2.7362,2.7462,2.749,2.7552,2.7604,2.7604,2.7638,0.0,0.0,0.0,0.0,0.0,0.0,0.0,0.0,0.0,0.0,0.0,0.0,0.0,0.0,0.0,0.0,0.0,0.0,0.0,0.0,0.0,0.0,0.0,0.0,0.0,0.0,0.0,0.0,0.0,0.0,3.2567,3.3027,3.3055,3.2539,3.3027,3.3055,3.2539,3.3027,3.3027,3.2539,3.3055,3.3308,3.3308,3.3308,3.3308,3.329,3.2864,3.2507,3.211,3.1145,3.0101,2.9121,2.8554,2.7904,2.7348,2.7828,2.8079,2.8331,2.9206,2.955,2.9665,3.0078,3.0193,3.0399,3.1479,3.1754,3.2006,3.3499,3.3958,3.4119,3.4578,3.5106,3.5493,3.5493,3.591,3.6305,3.6305,3.6305,3.6118,3.5516,3.4491,3.3551,3.2926,3.2755,3.2698,3.2698,3.2698,3.2698,3.2698,3.2698,3.2698,3.2698,3.2698,3.2698,3.2698,3.2698,3.2863,3.3265,3.3315,3.3501,3.3895,3.3004,3.2465,3.2345,2.9695,2.8511,2.8912,2.7735,2.7313,2.7604,2.7604,2.7792,0.0,0.0,0.0,0.0,0.0,0.0,0.0,0.0,0.0,0.0,0.0,0.0,0.0,0.0,0.0,0.0,0.0,0.0,0.0,0.0,0.0,0.0,0.0,0.0,0.0,0.0,0.0,0.0,0.0,3.2887,3.1949,3.2483,3.2539,3.1921,3.2145,3.2174,3.1893,3.2174,3.2174,3.1893,3.2174,3.2483,3.2803,3.2803,3.2971,3.3273,3.2632,3.2064,3.1534,3.0639,2.9607,2.8574,2.8319,2.7777,2.7233,2.7463,2.792,2.8448,2.8907,2.9412,2.994,3.0124,3.0193,3.0399,3.1479,3.1754,3.1983,3.3247,3.3591,3.366,3.3889,3.4532,3.5106,3.5106,3.5703,3.6305,3.6305,3.6009,3.5516,3.4574,3.3699,3.3012,3.2755,3.2698,3.2698,3.2698,3.2698,3.2698,3.2698,3.2698,3.2698,3.2698,3.2698,3.2801,3.3078,3.3099,3.3285,3.377,3.3791,3.3874,3.4081,3.3694,3.3607,3.3872,3.1392,2.9781,2.9197,2.8994,2.8573,2.7946,2.8152,2.8357,0.0,0.0,0.0,0.0,0.0,0.0,0.0,0.0,0.0,0.0,0.0,0.0,0.0,0.0,0.0,0.0,0.0,0.0,0.0,0.0,0.0,0.0,0.0,0.0,0.0,0.0,0.0,0.0,0.0,3.2398,3.1302,3.1836,3.1893,3.1274,3.1415,3.1415,3.1246,3.1246,3.1331,3.1516,3.1516,3.1724,3.2174,3.2212,3.2496,3.288,3.2344,3.17,3.0988,3.0126,2.9145,2.8179,2.8018,2.7635,2.721,2.721,2.7761,2.854,2.8654,2.9274,3.0055,3.0147,3.0193,3.0399,3.1479,3.1778,3.1961,3.2994,3.3317,3.3317,3.3317,3.4027,3.4808,3.4808,3.5569,3.6305,3.6305,3.5817,3.5129,3.4233,3.3445,3.2926,3.2926,3.2812,3.2698,3.2698,3.2698,3.2698,3.2698,3.2698,3.2698,3.2698,3.2698,3.2884,3.3377,3.3397,3.3646,3.4226,3.4268,3.433,3.4433,3.4433,3.4599,3.4951,3.3231,3.1524,2.9874,3.0057,2.9541,2.8357,2.868,2.8869,0.0,0.0,0.0,0.0,0.0,0.0,0.0,0.0,0.0,0.0,0.0,0.0,0.0,0.0,0.0,0.0,0.0,0.0,0.0,0.0,0.0,0.0,0.0,0.0,0.0,0.0,0.0,0.0,0.0,3.1302,3.0584,3.119,3.1246,3.0568,3.1162,3.119,3.0556,3.0556,3.0865,3.1516,3.1516,3.1516,3.1555,3.1732,3.1854,3.1875,3.2045,3.1534,3.0538,2.9568,2.8771,2.8139,2.7516,2.7231,2.721,2.721,2.7555,2.8102,2.854,2.9068,2.9619,3.0078,3.0193,3.0399,3.1479,3.1801,3.2008,3.3019,3.3317,3.3317,3.3317,3.4027,3.4808,3.4808,3.5569,3.6305,3.6305,3.5817,3.5378,3.5323,3.4373,3.3551,3.3551,3.3069,3.2698,3.2698,3.2698,3.2698,3.2698,3.2698,3.2698,3.2698,3.2698,3.2884,3.3377,3.3397,3.3791,3.4703,3.4744,3.4951,3.5304,3.5325,3.5325,3.5345,3.5232,3.4028,3.1671,3.0363,2.9399,2.8783,2.88,2.8956,0.0,0.0,0.0,0.0,0.0,0.0,0.0,0.0,0.0,0.0,0.0,0.0,0.0,0.0,0.0,0.0,0.0,0.0,0.0,0.0,0.0,0.0,0.0,0.0,0.0,0.0,0.0,0.0,0.0,0.0,2.9966,3.05,3.0556,2.9938,2.9785,2.9588,2.9364,2.9713,3.0022,3.0291,3.0291,3.0488,3.0865,3.0715,3.0938,3.14,3.084,3.0377,2.9973,2.9355,2.8494,2.7513,2.7292,2.721,2.721,2.721,2.7715,2.8471,2.8632,2.9251,2.9986,3.017,3.0193,3.0377,3.1433,3.1778,3.2008,3.3019,3.3317,3.3317,3.3317,3.4027,3.4969,3.5615,3.6052,3.6305,3.6305,3.5817,3.5295,3.4886,3.4177,3.3607,3.3607,3.3097,3.2698,3.2698,3.2698,3.2698,3.2698,3.2698,3.2698,3.2698,3.2975,3.3327,3.3812,3.4123,3.4558,3.5148,3.519,3.5128,3.5034,3.5273,3.5293,3.5034,3.5273,3.4202,3.1809,3.1558,3.0533,2.8817,2.9008,2.9059,0.0,0.0,0.0,0.0,0.0,0.0,0.0,0.0,0.0,0.0,0.0,0.0,0.0,0.0,0.0,0.0,0.0,0.0,0.0,0.0,0.0,0.0,0.0,0.0,0.0,0.0,0.0,0.0,0.0,0.0,2.9645,2.9966,2.991,2.9336,2.8914,2.8704,2.8704,2.9111,2.9392,2.9601,2.9601,2.975,3.0015,2.9854,3.001,3.0402,2.9647,2.9408,2.9452,2.8983,2.8175,2.721,2.721,2.721,2.721,2.721,2.783,2.87,2.87,2.9366,3.0193,3.0193,3.0193,3.0377,3.1409,3.1754,3.2008,3.3019,3.3317,3.334,3.3476,3.428,3.5244,3.6098,3.6305,3.6305,3.6305,3.5817,3.535,3.5157,3.4267,3.3643,3.3868,3.3218,3.2698,3.2698,3.2698,3.2698,3.2698,3.2698,3.2698,3.2698,3.312,3.3605,3.406,3.4516,3.4972,3.5366,3.5387,3.5231,3.4806,3.519,3.5211,3.4806,3.4851,3.3951,3.1999,3.2283,3.1157,2.8817,2.9145,2.9042,0.0,0.0,0.0,0.0,0.0,0.0,0.0,0.0,0.0,0.0,0.0,0.0,0.0,0.0,0.0,0.0,0.0,0.0,0.0,0.0,0.0,0.0,0.0,0.0,0.0,0.0,0.0,0.0,0.0,2.956,2.9601,2.9588,2.9279,2.8661,2.8676,2.8676,2.8633,2.8676,2.8998,2.9588,2.9573,2.9429,2.9097,2.9274,2.9181,2.8864,2.8502,2.8618,2.8974,2.841,2.7797,2.721,2.721,2.721,2.721,2.721,2.783,2.87,2.87,2.9366,3.0193,3.0193,3.0193,3.0377,3.1409,3.1754,3.2008,3.3019,3.3317,3.3407,3.3889,3.4762,3.5657,3.6167,3.6305,3.6305,3.6305,3.5817,3.5571,3.6196,3.4847,3.3812,3.4407,3.3501,3.2698,3.2698,3.2698,3.2719,3.2719,3.2719,3.2719,3.2739,3.3141,3.3605,3.4081,3.4537,3.4993,3.5397,3.5387,3.5211,3.4786,3.5169,3.519,3.4786,3.4182,3.3398,3.2416,3.2384,3.1125,2.8817,2.9111,2.8871,1.2817,0.0,0.0,0.0,0.0,0.0,0.0,0.0,0.0,0.0,0.0,0.0,0.0,0.0,0.0,0.0,0.0,0.0,0.0,0.0,0.0,0.0,0.0,0.0,0.0,0.0,0.0,0.0,2.8451,2.8676,2.956,2.9195,2.8436,2.7369,2.7805,2.7833,2.734,2.824,2.8774,2.8942,2.9143,2.9208,2.9097,2.8666,2.8405,2.8291,2.7447,2.7176,2.7325,2.752,2.7449,2.721,2.721,2.721,2.721,2.721,2.783,2.87,2.87,2.9366,3.0193,3.0193,3.0193,3.0399,3.1433,3.1778,3.2008,3.3019,3.3317,3.3501,3.4349,3.5037,3.5657,3.6167,3.6305,3.6305,3.6305,3.5817,3.5571,3.6196,3.5185,3.4295,3.4469,3.3501,3.2698,3.2698,3.2698,3.2822,3.3161,3.2905,3.2946,3.3637,3.3832,3.4102,3.4558,3.4983,3.5293,3.5387,3.5387,3.5066,3.433,3.4723,3.4765,3.4288,3.3719,3.3055,3.2416,3.1616,3.0406,2.88,2.8306,2.7963,0.0,0.0,0.0,0.0,0.0,0.0,1.7172,1.7429,0.0,0.0,0.0,0.0,0.0,0.0,0.0,0.0,0.0,0.0,0.0,0.0,0.0,0.0,0.0,0.0,0.0,0.0,0.0,2.7874,2.7833,2.8226,2.9167,2.8886,2.824,2.7256,2.7608,2.7467,2.6792,2.7421,2.8051,2.8689,2.8358,2.8428,2.8862,2.8088,2.7637,2.7464,2.6917,2.6504,2.63,2.6804,2.698,2.6932,2.7119,2.721,2.721,2.721,2.7692,2.8446,2.8632,2.9228,2.994,3.0124,3.0193,3.0377,3.1433,3.1778,3.2008,3.3019,3.343,3.3775,3.4601,3.5152,3.5657,3.6167,3.6305,3.6305,3.6305,3.6009,3.5817,3.59,3.4963,3.4127,3.4127,3.3332,3.2698,3.2698,3.2863,3.3099,3.3377,3.3327,3.3492,3.404,3.4268,3.4495,3.4765,3.5169,3.5387,3.5387,3.5252,3.4817,3.4123,3.435,3.4288,3.3812,3.3407,3.2642,3.1516,3.0897,2.9899,2.8511,2.7741,2.7467,0.0,0.0,0.0,0.0,0.0,0.0,1.7404,1.7679,1.7776,0.0,0.0,0.0,0.0,0.0,0.0,0.0,0.0,0.0,0.0,0.0,0.0,0.0,0.0,0.0,0.0,2.6245,2.6638,2.668,2.7383,2.7973,2.8367,2.8436,2.8226,2.7608,2.758,2.7299,2.6708,2.6509,2.7106,2.8517,2.7373,2.7434,2.8509,2.7568,2.6958,2.6611,2.6611,2.6226,2.5672,2.6179,2.6457,2.6559,2.7024,2.721,2.721,2.721,2.7555,2.8147,2.854,2.9091,2.9642,3.0055,3.0193,3.0377,3.1409,3.1754,3.2008,3.3019,3.3637,3.4119,3.467,3.5152,3.5657,3.6167,3.6305,3.6305,3.6305,3.6305,3.6091,3.5433,3.4435,3.3671,3.3607,3.3097,3.2698,3.2698,3.3099,3.3418,3.348,3.3832,3.4143,3.4247,3.4578,3.4806,3.4868,3.519,3.5366,3.5355,3.5013,3.4558,3.404,3.4081,3.3895,3.348,3.3387,3.2354,3.028,3.0149,2.946,2.8274,2.7459,2.7322,0.0,0.0,0.0,0.0,0.0,0.0,1.5911,1.6413,1.6904,0.0,0.0,0.0,0.0,0.0,0.0,0.0,0.0,0.0,0.0,0.0,0.0,0.0,0.0,0.0,0.0,2.5006,2.5556,2.6048,2.7158,2.7411,2.6497,2.6919,2.6891,2.6287,2.6287,2.6202,2.6076,2.6287,2.6768,2.7473,2.6761,2.7044,2.8167,2.7241,2.653,2.6052,2.6052,2.5478,2.4571,2.5477,2.6108,2.6559,2.7024,2.721,2.721,2.721,2.7784,2.8563,2.8654,2.9297,3.0078,3.017,3.0193,3.0377,3.1409,3.1754,3.2008,3.3019,3.3637,3.4119,3.467,3.5152,3.5657,3.6167,3.6305,3.6305,3.6305,3.6305,3.5982,3.4908,3.4491,3.4155,3.3671,3.3097,3.2698,3.2698,3.3099,3.3542,3.3915,3.404,3.4371,3.5086,3.4951,3.4931,3.5252,3.5345,3.5273,3.4931,3.4827,3.4413,3.3584,3.3895,3.406,3.3957,3.4202,3.3013,3.028,2.9172,2.8696,2.8816,2.7644,2.7687,0.0,0.0,0.0,1.4622,0.0,0.0,0.0,1.6272,1.6814,0.0,0.0,0.0,0.0,0.0,0.0,0.0,0.0,0.0,0.0,0.0,0.0,0.0,0.0,0.0,0.0,2.37,2.4319,2.4937,2.5597,2.5935,2.5907,2.6188,2.6357,2.6357,2.6357,2.6147,2.5688,2.5714,2.6134,2.6981,2.5783,2.6061,2.7616,2.668,2.5946,2.5468,2.6057,2.5518,2.4287,2.5582,2.6105,2.6175,2.6912,2.721,2.721,2.721,2.7692,2.8379,2.8609,2.9206,2.9894,3.0124,3.0193,3.0377,3.1409,3.2099,3.2651,3.3157,3.3478,3.3821,3.4601,3.4969,3.5359,3.6121,3.6305,3.6305,3.6305,3.6305,3.5927,3.4719,3.4497,3.4211,3.3303,3.2898,3.2698,3.2698,3.3099,3.3584,3.404,3.4288,3.4703,3.5325,3.5231,3.519,3.5366,3.5387,3.5231,3.4827,3.4578,3.4226,3.377,3.375,3.3978,3.4433,3.4081,3.3203,3.1771,3.0081,2.9292,2.9315,2.817,2.8385,0.0,0.0,0.0,0.0,0.0,1.5164,0.0,0.0,0.0,1.8089,0.0,0.0,0.0,0.0,0.0,0.0,0.0,0.0,0.0,0.0,0.0,0.0,0.0,0.0,0.0,2.2463,2.3037,2.3684,2.3825,2.4331,2.5317,2.557,2.5936,2.6441,2.6526,2.6204,2.5494,2.5103,2.5447,2.6502,2.4877,2.5071,2.6908,2.6054,2.5403,2.5065,2.5986,2.5561,2.4305,2.563,2.6003,2.5788,2.682,2.721,2.721,2.721,2.7552,2.8079,2.854,2.9045,2.9573,3.0055,3.0262,3.0514,3.1432,3.2397,3.318,3.3271,3.3317,3.3524,3.4418,3.4716,3.5037,3.5937,3.6236,3.6305,3.6305,3.6305,3.5927,3.4719,3.4497,3.4127,3.2926,3.2698,3.2698,3.2698,3.3099,3.3542,3.3915,3.4454,3.4931,3.5252,3.5345,3.5387,3.5387,3.5387,3.519,3.4682,3.4309,3.406,3.3957,3.377,3.406,3.491,3.4165,3.3651,3.3397,3.1873,3.073,2.9945,2.8734,2.8996,0.0,0.0,0.0,0.0,1.4398,0.0,0.0,0.0,1.6042,1.6651,0.0,0.0,0.0,0.0,0.0,0.0,0.0,0.0,0.0,0.0,0.0,0.0,0.0,0.0,0.0,0.0,2.1755,2.2362,2.2913,2.3266,2.3407,2.4487,2.5134,2.519,2.5494,2.5619,2.5494,2.4864,2.4885,2.5551,2.4575,2.4753,2.595,2.5358,2.5061,2.5024,2.5141,2.4821,2.4264,2.483,2.5336,2.5788,2.682,2.721,2.721,2.721,2.7552,2.8079,2.854,2.9045,2.9573,3.0055,3.0514,3.1019,3.1617,3.2169,3.2697,3.318,3.3317,3.3432,3.3958,3.444,3.4946,3.5447,3.5956,3.6305,3.6305,3.6305,3.5927,3.4719,3.4497,3.4127,3.2926,3.2698,3.2698,3.2698,3.3099,3.3418,3.348,3.4247,3.4806,3.4868,3.519,3.5387,3.5387,3.5387,3.5066,3.4226,3.4123,3.3915,3.3501,3.4226,3.4868,3.5304,3.5624,3.5123,3.3811,3.4017,3.3017,3.0888,2.9047,2.9073,0.0,0.0,0.0,0.0,0.0,0.0,0.0,0.0,1.564,0.0,0.0,0.0,0.0,0.0,0.0,0.0,0.0,0.0,0.0,0.0,0.0,0.0,0.0,0.0,0.0,0.0,0.0,0.0,0.0,2.1833,2.2547,2.2935,2.3629,2.4688,2.4709,2.475,2.4921,2.4366,2.4464,2.5173,2.4179,2.4099,2.4859,2.496,2.4665,2.4107,2.4742,2.4697,2.4269,2.5031,2.549,2.5788,2.682,2.721,2.721,2.721,2.7692,2.8425,2.8632,2.9228,2.994,3.0124,3.056,3.1088,3.1593,3.2099,3.2628,3.3157,3.3317,3.3409,3.3889,3.4395,3.4923,3.5378,3.591,3.6305,3.6305,3.6009,3.5516,3.4686,3.4211,3.3699,3.2841,3.2698,3.2698,3.2698,3.2863,3.3182,3.375,3.4143,3.4599,3.5086,3.5086,3.5148,3.5366,3.4941,3.4495,3.4123,3.4102,3.4123,3.4205,3.4797,3.5231,3.5387,3.5573,3.553,3.5152,3.3934,3.3046,3.2509,3.0839,3.0426,1.4743,0.0,0.0,0.0,0.0,0.0,0.0,0.0,0.0,0.0,0.0,0.0,0.0,0.0,0.0,0.0,0.0,0.0,0.0,0.0,0.0,0.0,0.0,0.0,0.0,0.0,0.0,0.0,2.0024,2.0512,2.1395,2.1657,2.2453,2.3832,2.3811,2.3927,2.4184,2.3695,2.3767,2.4339,2.3553,2.3472,2.3989,2.4233,2.4073,2.3637,2.4273,2.4422,2.4269,2.5142,2.5559,2.5788,2.666,2.7096,2.721,2.721,2.7669,2.8333,2.8609,2.9366,3.0193,3.0193,3.0445,3.0858,3.1363,3.1892,3.2397,3.2925,3.3203,3.3386,3.3706,3.4303,3.49,3.5244,3.5818,3.6305,3.6305,3.5817,3.524,3.4608,3.3929,3.3219,3.2597,3.2615,3.2698,3.2698,3.2698,3.2988,3.3812,3.4019,3.435,3.4983,3.491,3.4868,3.5024,3.4445,3.4102,3.4102,3.4226,3.4433,3.4786,3.519,3.5387,3.5387,3.5387,3.5552,3.5883,3.4092,3.3232,3.3208,3.16,3.0923,0.0,0.0,0.0,1.3727,0.0,0.0,0.0,0.0,1.5112,0.0,0.0,0.0,0.0,0.0,0.0,0.0,0.0,0.0,0.0,0.0,0.0,0.0,0.0,0.0,0.0,0.0,0.0,1.8554,1.9105,1.9442,1.9498,2.0968,2.194,2.2243,2.2764,2.3126,2.3338,2.2858,2.2662,2.2677,2.2647,2.2914,2.3401,2.2899,2.3191,2.4051,2.3637,2.3745,2.4223,2.4728,2.5237,2.5742,2.6309,2.6795,2.721,2.721,2.7213,2.7394,2.8356,2.9366,3.0193,3.0193,3.0216,3.0308,3.0858,3.134,3.1845,3.2374,3.2904,3.3317,3.334,3.405,3.4808,3.4831,3.5592,3.6305,3.6305,3.5817,3.524,3.4608,3.3649,3.2712,3.212,3.2408,3.2698,3.2698,3.2698,3.2863,3.3377,3.3812,3.4102,3.4143,3.4537,3.462,3.4185,3.4123,3.4102,3.4102,3.4516,3.4765,3.4786,3.519,3.5387,3.5387,3.5387,3.5407,3.5407,3.5325,3.4329,3.239,3.0328,2.9743,0.0,0.0,1.4188,1.3727,0.0,0.0,0.0,0.0,0.0,0.0,0.0,0.0,0.0,0.0,0.0,0.0,0.0,0.0,0.0,0.0,0.0,0.0,0.0,0.0,0.0,0.0,0.0,1.7918,1.847,1.8915,0.0,1.9921,2.0654,2.137,2.2168,2.2652,2.2774,2.265,2.2592,2.2592,2.2295,2.2233,2.2427,2.2555,2.2813,2.3186,2.333,2.3704,2.4223,2.4705,2.5233,2.5742,2.6286,2.6792,2.721,2.721,2.7417,2.7874,2.8884,2.9665,3.0193,3.0193,3.0193,3.0285,3.0835,3.1364,3.1893,3.2375,3.2904,3.3317,3.3317,3.4027,3.4808,3.4808,3.5569,3.6173,3.579,3.524,3.463,3.4037,3.3036,3.2239,3.2043,3.2388,3.2698,3.2698,3.3244,3.3658,3.3853,3.3998,3.4102,3.4102,3.3957,3.3936,3.4081,3.4102,3.4226,3.4537,3.4703,3.4931,3.519,3.5335,3.5387,3.5387,3.5387,3.5531,3.5842,3.4877,3.3977,3.3133,3.1194,3.006,1.5424,1.4835,0.0,1.3919,1.337,0.0,1.2915,0.0,0.0,0.0,0.0,0.0,0.0,0.0,0.0,0.0,0.0,0.0,0.0,1.484,0.0,0.0,0.0,0.0,0.0,0.0,1.803,1.7646,1.7979,1.8348,0.0,0.0,1.9527,2.0092,2.142,2.1921,2.1595,2.2104,2.2183,2.1806,2.1713,2.1721,2.1893,2.2048,2.24,2.295,2.3102,2.3549,2.4246,2.4893,2.5375,2.5765,2.6473,2.6932,2.721,2.721,2.7646,2.8377,2.9206,2.9825,3.0193,3.0193,3.0193,3.0262,3.0606,3.1226,3.1847,3.2169,3.2766,3.3317,3.3317,3.4027,3.4808,3.4808,3.5569,3.6173,3.579,3.5074,3.4407,3.4009,3.2769,3.1829,3.1974,3.2388,3.2698,3.2698,3.3348,3.3915,3.4081,3.3957,3.3853,3.3853,3.3584,3.3522,3.3832,3.4164,3.4475,3.4765,3.4931,3.5128,3.5387,3.5387,3.5552,3.5914,3.5552,3.5697,3.6349,3.4693,3.3659,3.3146,3.1551,3.0245]}]]